[[{"header":{"parameterUnit":"m.s-1","parameterCategory":1,"la1":30.6,"la2":29.2853,"lo1":-89.7004,"lo2":-87.6739,"dy":0.0162,"dx":0.0183,"nx":112,"ny":82,"refTime":"2026-03-08T00:00:00:Z","depth":0,"parameterNumber":2,"parameterNumberName":"U-component_of_WINDS"},"data":[0.0,0.0,0.0,0.0,0.0,0.0,0.0,0.0,0.0,0.0,0.0,0.0,0.0,0.0,0.0,0.0,0.0,0.0,0.0,0.0,0.0,0.0,0.0,0.0,0.0,0.0,0.0,0.0,0.0,0.0,0.0,0.0,0.0,0.0,0.0,0.0,0.0,0.0,0.0,0.0,0.0,0.0,0.0,0.0,0.0,0.0,0.0,0.0,0.0,0.0,0.0,0.0,0.0,0.0,0.0,0.0,0.0,0.0,0.0,0.0,0.0,0.0,0.0,0.0,0.0,0.0,0.0,0.0,0.0,0.0,0.0,0.0,0.0,0.0,0.0,0.0,0.0,0.0,0.0,0.0,0.0,0.0,0.0,0.0,0.0,0.0,0.0,0.0,0.0,0.0,0.0,-1.6945,-1.9178,-2.0586,-2.0605,-2.0488,-1.9394,-1.7048,0.0,0.0,0.0,0.0,0.0,0.0,0.0,0.0,0.0,0.0,0.0,0.0,0.0,0.0,0.0,0.0,0.0,0.0,0.0,0.0,0.0,0.0,0.0,0.0,0.0,0.0,0.0,0.0,0.0,0.0,0.0,0.0,0.0,0.0,0.0,0.0,0.0,0.0,0.0,0.0,0.0,0.0,0.0,0.0,0.0,0.0,0.0,0.0,0.0,0.0,0.0,0.0,0.0,0.0,0.0,0.0,0.0,0.0,0.0,0.0,0.0,0.0,0.0,0.0,0.0,0.0,0.0,0.0,0.0,0.0,0.0,0.0,0.0,0.0,0.0,0.0,0.0,0.0,0.0,0.0,0.0,0.0,0.0,0.0,0.0,0.0,0.0,0.0,0.0,0.0,0.0,0.0,0.0,0.0,0.0,0.0,0.0,0.0,0.0,0.0,0.0,0.0,0.0,0.0,-1.538,-1.8494,-1.9848,-2.0539,-2.0605,-1.9922,-1.9004,-1.7871,0.0,0.0,0.0,0.0,0.0,0.0,0.0,0.0,0.0,0.0,0.0,0.0,0.0,0.0,0.0,0.0,0.0,0.0,0.0,0.0,0.0,0.0,0.0,0.0,0.0,0.0,0.0,0.0,0.0,0.0,0.0,0.0,0.0,0.0,0.0,0.0,0.0,0.0,0.0,0.0,0.0,0.0,0.0,0.0,0.0,0.0,0.0,0.0,0.0,0.0,0.0,0.0,0.0,0.0,0.0,0.0,0.0,0.0,0.0,0.0,0.0,0.0,0.0,0.0,0.0,0.0,0.0,0.0,0.0,0.0,0.0,0.0,0.0,0.0,0.0,0.0,0.0,0.0,0.0,0.0,0.0,0.0,0.0,0.0,0.0,0.0,0.0,0.0,0.0,0.0,0.0,0.0,0.0,0.0,0.0,0.0,0.0,0.0,0.0,0.0,0.0,0.0,0.0,-1.489,-1.6555,-1.952,-2.0206,-2.0476,-2.054,-2.0189,-1.9392,-1.8086,-1.6367,0.0,0.0,0.0,0.0,0.0,0.0,0.0,0.0,0.0,0.0,0.0,0.0,0.0,0.0,0.0,0.0,0.0,0.0,0.0,0.0,0.0,0.0,0.0,0.0,0.0,0.0,0.0,0.0,0.0,0.0,0.0,0.0,0.0,0.0,0.0,0.0,0.0,0.0,0.0,0.0,0.0,0.0,0.0,0.0,0.0,0.0,0.0,0.0,0.0,0.0,0.0,0.0,0.0,0.0,0.0,0.0,0.0,0.0,0.0,0.0,0.0,0.0,0.0,0.0,0.0,0.0,0.0,0.0,0.0,0.0,0.0,0.0,0.0,0.0,0.0,0.0,0.0,0.0,0.0,0.0,0.0,0.0,0.0,0.0,0.0,0.0,0.0,0.0,0.0,0.0,0.0,0.0,0.0,0.0,0.0,0.0,0.0,0.0,0.0,0.0,0.0,0.0,-1.657,-1.776,-2.0117,-2.039,-2.0416,-2.0485,-2.0117,-1.9266,-1.7793,-1.5879,0.0,0.0,0.0,0.0,0.0,0.0,0.0,0.0,0.0,0.0,0.0,0.0,0.0,0.0,0.0,0.0,0.0,0.0,0.0,0.0,0.0,0.0,0.0,0.0,0.0,0.0,0.0,0.0,0.0,0.0,0.0,0.0,0.0,0.0,0.0,0.0,0.0,0.0,0.0,0.0,0.0,0.0,0.0,0.0,0.0,0.0,0.0,0.0,0.0,0.0,0.0,0.0,0.0,0.0,0.0,0.0,0.0,0.0,0.0,0.0,0.0,0.0,0.0,0.0,0.0,0.0,0.0,0.0,0.0,0.0,0.0,0.0,0.0,0.0,0.0,0.0,0.0,0.0,0.0,0.0,0.0,0.0,0.0,0.0,0.0,0.0,0.0,0.0,0.0,0.0,0.0,0.0,0.0,0.0,0.0,0.0,0.0,0.0,0.0,0.0,0.0,0.0,-1.6654,-1.831,-2.0116,-2.0319,-2.0354,-2.0483,-1.9002,-1.7703,-1.6855,-1.4453,0.0,0.0,0.0,0.0,0.0,0.0,0.0,0.0,0.0,0.0,0.0,0.0,0.0,0.0,0.0,0.0,0.0,0.0,0.0,0.0,0.0,0.0,0.0,0.0,0.0,0.0,0.0,0.0,0.0,0.0,0.0,0.0,0.0,0.0,0.0,0.0,0.0,0.0,0.0,0.0,0.0,0.0,0.0,0.0,0.0,0.0,0.0,0.0,0.0,0.0,0.0,0.0,0.0,0.0,0.0,0.0,0.0,0.0,0.0,0.0,0.0,0.0,0.0,0.0,0.0,0.0,0.0,0.0,0.0,0.0,0.0,0.0,0.0,0.0,0.0,0.0,0.0,0.0,0.0,0.0,0.0,0.0,0.0,0.0,0.0,0.0,0.0,0.0,0.0,0.0,0.0,0.0,0.0,0.0,0.0,0.0,0.0,0.0,0.0,0.0,0.0,0.0,-1.6234,-1.7809,0.0,-2.0306,-2.0318,-2.0361,-1.9303,-1.8065,-1.6727,0.0,0.0,0.0,0.0,0.0,0.0,0.0,0.0,0.0,0.0,0.0,0.0,0.0,0.0,0.0,0.0,0.0,0.0,0.0,0.0,0.0,0.0,0.0,0.0,0.0,0.0,0.0,0.0,0.0,0.0,0.0,0.0,0.0,0.0,0.0,0.0,0.0,0.0,0.0,0.0,0.0,0.0,0.0,0.0,0.0,0.0,0.0,0.0,0.0,0.0,0.0,0.0,0.0,0.0,0.0,0.0,0.0,0.0,0.0,0.0,0.0,0.0,0.0,0.0,0.0,0.0,0.0,0.0,0.0,0.0,0.0,0.0,0.0,0.0,0.0,0.0,0.0,0.0,0.0,0.0,0.0,0.0,0.0,0.0,0.0,0.0,0.0,0.0,0.0,0.0,0.0,0.0,0.0,0.0,0.0,0.0,0.0,0.0,0.0,0.0,0.0,0.0,-1.4904,-1.6176,-1.7753,0.0,-2.0308,-2.0292,-2.0304,-1.9078,-1.7706,-1.6301,0.0,0.0,0.0,0.0,0.0,0.0,0.0,0.0,0.0,0.0,0.0,0.0,0.0,0.0,0.0,0.0,0.0,0.0,0.0,0.0,0.0,0.0,0.0,0.0,0.0,0.0,0.0,0.0,0.0,0.0,0.0,0.0,0.0,0.0,0.0,0.0,0.0,0.0,0.0,0.0,0.0,0.0,0.0,0.0,0.0,0.0,0.0,0.0,0.0,0.0,0.0,0.0,0.0,0.0,0.0,0.0,0.0,0.0,0.0,0.0,0.0,0.0,0.0,0.0,0.0,0.0,0.0,0.0,0.0,0.0,0.0,0.0,0.0,0.0,0.0,0.0,0.0,0.0,0.0,0.0,0.0,0.0,0.0,0.0,0.0,0.0,0.0,0.0,0.0,0.0,0.0,0.0,0.0,0.0,0.0,0.0,0.0,0.0,0.0,0.0,0.0,0.0,-1.4981,-1.6657,-1.8372,-2.0115,-2.0308,-2.0292,-2.0301,-1.8036,-1.6274,0.0,0.0,0.0,0.0,0.0,0.0,0.0,0.0,0.0,0.0,0.0,0.0,0.0,0.0,0.0,0.0,0.0,0.0,0.0,0.0,0.0,0.0,0.0,0.0,0.0,0.0,0.0,0.0,0.0,0.0,0.0,0.0,0.0,0.0,0.0,0.0,0.0,0.0,0.0,0.0,0.0,0.0,0.0,0.0,0.0,0.0,0.0,0.0,0.0,0.0,0.0,0.0,0.0,0.0,0.0,0.0,0.0,0.0,0.0,0.0,0.0,0.0,0.0,0.0,0.0,0.0,0.0,0.0,0.0,0.0,0.0,0.0,0.0,0.0,0.0,0.0,0.0,0.0,0.0,0.0,0.0,0.0,0.0,0.0,0.0,0.0,0.0,0.0,0.0,0.0,0.0,0.0,0.0,0.0,0.0,0.0,0.0,0.0,0.0,0.0,0.0,0.0,0.0,-1.4981,-1.6657,-1.8372,-2.0115,-2.0308,-2.03,-2.0292,-1.8556,-1.6845,-1.541,0.0,0.0,0.0,0.0,0.0,0.0,0.0,0.0,0.0,0.0,0.0,0.0,0.0,0.0,0.0,0.0,0.0,0.0,0.0,0.0,0.0,0.0,0.0,0.0,0.0,0.0,0.0,0.0,0.0,0.0,0.0,0.0,0.0,0.0,0.0,0.0,0.0,0.0,0.0,0.0,0.0,0.0,0.0,0.0,0.0,0.0,0.0,0.0,0.0,0.0,0.0,0.0,0.0,0.0,0.0,0.0,0.0,0.0,0.0,0.0,0.0,0.0,0.0,0.0,0.0,0.0,0.0,0.0,0.0,0.0,0.0,0.0,0.0,0.0,0.0,0.0,0.0,0.0,0.0,0.0,0.0,0.0,0.0,0.0,0.0,0.0,0.0,0.0,0.0,0.0,0.0,0.0,0.0,0.0,0.0,0.0,0.0,0.0,0.0,0.0,0.0,0.0,-1.5038,-1.6968,-1.8757,-2.0154,-2.0308,-2.0308,-2.0308,-1.8758,-1.7071,-1.5402,0.0,0.0,0.0,0.0,0.0,0.0,0.0,0.0,0.0,0.0,0.0,0.0,0.0,0.0,0.0,0.0,0.0,0.0,0.0,0.0,0.0,0.0,0.0,0.0,0.0,0.0,0.0,0.0,0.0,0.0,0.0,0.0,0.0,0.0,0.0,0.0,0.0,0.0,0.0,0.0,0.0,0.0,0.0,0.0,0.0,0.0,0.0,0.0,0.0,0.0,0.0,0.0,0.0,0.0,0.0,0.0,0.0,0.0,0.0,0.0,0.0,0.0,0.0,0.0,0.0,0.0,0.0,0.0,0.0,0.0,0.0,0.0,0.0,0.0,0.0,0.0,0.0,0.0,0.0,0.0,0.0,0.0,0.0,0.0,0.0,0.0,0.0,0.0,0.0,0.0,0.0,0.0,0.0,0.0,0.0,0.0,0.0,0.0,0.0,0.0,0.0,0.0,-1.5192,-1.7468,-1.9334,-2.0212,-2.0308,-2.0308,-2.0308,-1.8834,-1.721,-1.5536,0.0,0.0,0.0,0.0,0.0,0.0,0.0,0.0,0.0,0.0,0.0,0.0,0.0,0.0,0.0,0.0,0.0,0.0,0.0,0.0,0.0,0.0,0.0,0.0,0.0,0.0,0.0,0.0,0.0,0.0,0.0,0.0,0.0,0.0,0.0,0.0,0.0,0.0,0.0,0.0,0.0,0.0,0.0,0.0,0.0,0.0,0.0,0.0,0.0,0.0,0.0,0.0,0.0,0.0,0.0,0.0,0.0,0.0,0.0,0.0,-1.6055,0.0,0.0,0.0,0.0,0.0,0.0,0.0,0.0,0.0,0.0,0.0,0.0,0.0,0.0,0.0,0.0,0.0,0.0,0.0,0.0,0.0,0.0,0.0,0.0,0.0,0.0,0.0,0.0,0.0,0.0,0.0,0.0,0.0,0.0,0.0,0.0,0.0,0.0,0.0,0.0,0.0,-1.6022,-1.7856,-1.9334,-2.0212,-2.0308,-2.0308,-2.0308,-1.9394,-1.8103,-1.6421,0.0,0.0,0.0,0.0,0.0,0.0,0.0,0.0,0.0,0.0,0.0,0.0,0.0,0.0,0.0,0.0,0.0,0.0,0.0,0.0,0.0,0.0,0.0,0.0,0.0,0.0,0.0,0.0,0.0,0.0,0.0,0.0,0.0,0.0,0.0,0.0,0.0,0.0,0.0,0.0,0.0,0.0,0.0,0.0,0.0,0.0,0.0,0.0,0.0,0.0,0.0,0.0,0.0,0.0,0.0,0.0,0.0,0.0,0.0,0.0,0.0,-1.8652,0.0,0.0,0.0,0.0,0.0,0.0,0.0,0.0,0.0,0.0,0.0,0.0,0.0,0.0,0.0,0.0,0.0,0.0,0.0,0.0,0.0,0.0,0.0,0.0,0.0,0.0,0.0,0.0,0.0,0.0,0.0,0.0,0.0,0.0,0.0,0.0,0.0,0.0,0.0,0.0,-1.633,-1.8334,-1.9792,-2.025,-2.0308,-2.0308,-2.0308,-1.9558,-1.8559,-1.7266,-1.5639,0.0,0.0,0.0,0.0,0.0,0.0,0.0,0.0,0.0,0.0,0.0,0.0,0.0,0.0,0.0,0.0,0.0,0.0,0.0,0.0,0.0,0.0,0.0,0.0,0.0,0.0,0.0,0.0,0.0,0.0,0.0,0.0,0.0,0.0,0.0,0.0,0.0,0.0,0.0,0.0,0.0,0.0,0.0,0.0,0.0,0.0,0.0,0.0,0.0,0.0,0.0,0.0,0.0,-2.1074,-2.1562,-2.1719,-2.1719,-2.2187,-2.2969,-2.209,-2.1875,-2.1971,0.0,0.0,0.0,0.0,0.0,0.0,0.0,0.0,0.0,0.0,0.0,0.0,0.0,0.0,0.0,0.0,0.0,0.0,0.0,0.0,0.0,0.0,0.0,0.0,0.0,-2.072,-2.0523,0.0,0.0,0.0,0.0,0.0,0.0,0.0,0.0,0.0,0.0,0.0,0.0,-1.7003,-1.9119,-2.05,-2.05,-2.05,-2.0442,-2.0308,-1.9684,-1.894,-1.8071,-1.6642,-1.5382,0.0,0.0,0.0,0.0,0.0,0.0,0.0,0.0,0.0,0.0,0.0,0.0,0.0,0.0,0.0,0.0,0.0,0.0,0.0,0.0,0.0,0.0,0.0,0.0,0.0,0.0,0.0,0.0,0.0,0.0,0.0,0.0,-1.4082,-1.4961,0.0,0.0,0.0,0.0,0.0,0.0,0.0,0.0,0.0,0.0,0.0,0.0,0.0,0.0,-2.1211,-2.2148,-2.2988,-2.373,-2.4609,-2.543,-2.6152,-2.6152,-2.6621,-2.7402,-2.6523,0.0,-2.285,-2.1869,0.0,0.0,0.0,0.0,0.0,0.0,0.0,0.0,0.0,0.0,0.0,0.0,0.0,0.0,0.0,0.0,0.0,0.0,0.0,0.0,0.0,0.0,-2.3244,-2.247,-2.247,-2.2235,0.0,-1.885,-1.683,-1.5058,0.0,0.0,0.0,0.0,0.0,0.0,0.0,0.0,-1.95,-2.0692,-2.135,-2.135,-2.135,-2.1058,-2.0365,-2.0202,-1.9793,-1.8975,-1.8064,-1.6864,-1.5293,-1.4297,0.0,0.0,0.0,0.0,0.0,0.0,0.0,0.0,0.0,0.0,0.0,0.0,0.0,0.0,0.0,0.0,0.0,0.0,0.0,0.0,0.0,0.0,0.0,0.0,0.0,0.0,0.0,0.0,0.0,-1.4453,-1.5879,-1.6758,-1.6953,-1.6797,0.0,0.0,0.0,0.0,0.0,0.0,0.0,0.0,0.0,-2.0742,-2.2051,-2.3144,-2.4023,-2.4863,-2.5723,-2.6602,-2.6973,-2.7363,-2.7734,-2.7734,-2.7949,-2.8281,-2.7866,-2.7005,-2.5773,-2.3945,-2.2872,-2.2296,0.0,0.0,0.0,0.0,0.0,-2.1119,-2.21,-2.2182,0.0,0.0,0.0,0.0,0.0,0.0,0.0,0.0,0.0,0.0,0.0,0.0,0.0,-2.3624,-2.387,-2.3985,-2.3144,-2.2085,-2.0508,0.0,-1.7035,-1.6301,-1.4882,0.0,0.0,0.0,0.0,0.0,-2.0096,-2.1427,-2.2235,-2.2235,-2.2235,-2.1889,-2.1038,-2.104,-2.0728,-1.9877,-1.9119,-1.8357,-1.7617,-1.5801,-1.4492,0.0,0.0,0.0,0.0,0.0,0.0,0.0,0.0,0.0,0.0,0.0,0.0,0.0,0.0,0.0,0.0,0.0,0.0,0.0,0.0,0.0,0.0,0.0,0.0,0.0,0.0,0.0,0.0,-1.5977,-1.7617,-1.8262,-1.9297,-1.9375,0.0,0.0,0.0,0.0,0.0,0.0,-2.1504,-2.2402,-2.2969,-2.3203,-2.4629,-2.5703,-2.6367,-2.7012,-2.7656,-2.8301,-2.8301,-2.8418,-2.8633,-2.8633,-2.875,-2.8945,-2.8683,-2.8525,-2.8316,-2.615,-2.4719,-2.3858,-2.3095,-2.2308,-2.1654,-2.225,-2.2462,-2.2658,-2.3971,-2.4413,-2.4298,-2.3639,0.0,-2.1639,-2.0627,0.0,0.0,0.0,0.0,-2.2216,-2.2423,0.0,-2.4413,-2.4413,-2.487,-2.5135,-2.4548,-2.4413,-2.3528,0.0,-1.9785,-1.9035,-1.7135,0.0,0.0,0.0,0.0,-2.0046,-2.1139,-2.2355,-2.3124,-2.3124,-2.3124,-2.2778,-2.1908,-2.1745,-2.1414,-2.0776,-2.0047,-1.9531,-1.9316,-1.7422,-1.6074,-1.541,0.0,0.0,0.0,0.0,0.0,0.0,0.0,0.0,0.0,0.0,0.0,0.0,0.0,0.0,0.0,0.0,0.0,0.0,0.0,0.0,0.0,0.0,0.0,0.0,0.0,0.0,0.0,0.0,0.0,-1.9238,-2.0723,0.0,0.0,0.0,0.0,-2.1641,-2.1738,-2.248,-2.4121,-2.5039,-2.5898,-2.6719,-2.7637,-2.8125,-2.8164,-2.8203,-2.8262,-2.8301,-2.8301,-2.873,-2.9531,-2.9531,-2.998,-3.0723,-2.9883,-2.9531,-2.9432,-2.8287,-2.726,-2.6405,-2.6356,-2.5808,-2.5058,-2.5096,-2.5115,-2.5115,-2.5212,-2.525,-2.5231,-2.5192,-2.4062,-2.2874,-2.3629,-2.2682,0.0,0.0,-2.3937,-2.4144,-2.4904,-2.5173,-2.525,-2.525,-2.5269,-2.5288,-2.525,-2.525,-2.4712,0.0,-2.1947,-2.1331,-2.1216,0.0,-2.0308,-2.1081,-2.1293,-2.1985,-2.3687,-2.3975,-2.4033,-2.4033,-2.4033,-2.3682,-2.2816,-2.2094,-2.1686,-2.1647,-2.0944,-2.0156,-1.9336,-1.918,-1.7949,-1.5449,-1.4453,0.0,0.0,0.0,0.0,0.0,0.0,0.0,0.0,0.0,0.0,0.0,0.0,0.0,0.0,0.0,0.0,0.0,0.0,0.0,0.0,0.0,0.0,0.0,0.0,0.0,0.0,0.0,0.0,-2.1738,-2.2812,0.0,0.0,-2.2246,-2.2852,-2.4238,-2.4355,-2.5098,-2.6816,-2.7207,-2.7519,-2.7832,-2.8144,-2.8574,-2.9121,-2.9141,-2.9414,-2.9961,-2.9961,-3.0137,-3.0449,-3.0449,-3.0605,-3.0879,-3.0482,-3.0301,-3.0278,-2.9858,-2.8867,-2.7629,-2.7582,-2.7388,-2.7097,-2.7097,-2.7071,-2.7041,-2.7041,-2.7007,-2.6967,-2.6967,-2.6197,-2.5293,-2.5601,-2.4889,-2.4077,-2.4697,-2.487,-2.4947,-2.5231,-2.5308,-2.5308,-2.5308,-2.5308,-2.5308,-2.5308,-2.5308,-2.5115,-2.4519,-2.3735,-2.3009,-2.2427,-2.21,-2.1812,-2.1543,-2.2447,-2.3394,-2.4014,-2.4548,-2.4884,-2.4927,-2.4935,-2.4613,-2.3824,-2.3046,-2.2359,-2.1797,-2.103,-2.0469,-2.0156,-1.9062,-1.8027,-1.709,-1.5117,-1.3555,0.0,0.0,0.0,0.0,0.0,0.0,0.0,0.0,0.0,0.0,0.0,0.0,0.0,0.0,0.0,0.0,0.0,0.0,0.0,0.0,0.0,0.0,0.0,0.0,0.0,0.0,-2.2656,-2.3496,-2.459,-2.5059,-2.4473,-2.4727,-2.5371,-2.6484,-2.6582,-2.707,-2.8242,-2.8574,-2.873,-2.873,-2.9023,-2.9453,-3.0039,-3.0039,-3.0332,-3.0898,-3.0898,-3.0898,-3.0898,-3.0898,-3.0898,-3.0898,-3.0814,-3.0769,-3.0768,-3.0723,-3.0066,-2.907,-2.8688,-2.8367,-2.8094,-2.8068,-2.8035,-2.8005,-2.7967,-2.7933,-2.7895,-2.7895,-2.7505,-2.7044,-2.7044,-2.664,-2.6173,-2.6173,-2.6173,-2.6115,-2.5808,-2.5731,-2.5654,-2.5365,-2.5308,-2.5308,-2.5308,-2.5308,-2.5308,-2.5308,-2.487,-2.4317,-2.3735,-2.3639,-2.3447,-2.2865,-2.3774,-2.4509,-2.4509,-2.4985,-2.5346,-2.5406,-2.5421,-2.5246,-2.4754,-2.3724,-2.2846,-2.2283,-2.1208,-2.0605,-2.0605,-1.9219,-1.8301,-1.8008,-1.543,-1.3848,-1.3301,0.0,0.0,0.0,0.0,0.0,0.0,0.0,0.0,0.0,0.0,0.0,0.0,0.0,0.0,0.0,0.0,0.0,0.0,0.0,0.0,0.0,0.0,0.0,-1.9414,-2.1641,-2.3574,-2.4394,-2.5996,-2.7031,-2.7031,-2.7793,-2.8301,-2.834,-2.834,-2.8359,-2.8379,-2.918,-2.9648,-2.9648,-3.0469,-3.0918,-3.0937,-3.0937,-3.0957,-3.0976,-3.0976,-3.0976,-3.0976,-3.0976,-3.0976,-3.0976,-3.0957,-3.0937,-3.0937,-3.0918,-3.0898,-3.08,-2.9829,-2.8931,-2.8172,-2.8103,-2.8074,-2.8074,-2.8,-2.7992,-2.7992,-2.7992,-2.7953,-2.7934,-2.7934,-2.7915,-2.7895,-2.7895,-2.7895,-2.7703,-2.6851,-2.664,-2.6428,-2.5577,-2.5365,-2.5346,-2.5346,-2.5327,-2.5308,-2.5308,-2.5308,-2.5308,-2.5308,-2.5308,-2.5308,-2.5308,-2.5308,0.0,-2.5308,-2.5363,-2.5394,-2.5397,-2.5451,-2.5496,-2.5517,-2.4037,-2.3101,-2.3101,-2.1539,-2.0605,-2.0605,-1.9766,-1.8887,-1.8027,-1.5488,-1.418,-1.418,0.0,0.0,0.0,0.0,0.0,0.0,0.0,0.0,0.0,0.0,0.0,0.0,0.0,0.0,0.0,0.0,0.0,0.0,0.0,0.0,0.0,0.0,-2.2129,-2.2129,-2.3789,-2.5332,-2.6172,-2.7266,-2.7949,-2.7949,-2.8164,-2.8555,-2.9199,-2.9238,-2.9512,-3.0156,-3.041,-3.0547,-3.0547,-3.0781,-3.1191,-3.1836,-3.1836,-3.2148,-3.2715,-3.2715,-3.2715,-3.2715,-3.2715,-3.2715,-3.2676,-3.2109,-3.1836,-3.1797,-3.1152,-3.0898,-3.0879,-3.0601,-3.0344,-3.0128,-2.9996,-2.9894,-2.9808,-2.9748,-2.9712,-2.9712,-2.9712,-2.9294,-2.878,-2.878,-2.8357,-2.7895,-2.7895,-2.7895,-2.7838,-2.7601,-2.7544,-2.7486,-2.7236,-2.6697,-2.6231,-2.6231,-2.575,-2.5308,-2.5308,-2.5308,-2.5308,-2.5308,-2.5308,-2.5308,-2.5308,-2.5308,0.0,-2.5308,-2.5363,-2.5418,-2.5477,-2.5539,-2.5598,-2.5636,-2.4078,-2.3103,0.0,-2.1523,-2.0605,-2.0605,-1.9766,-1.8887,-1.8027,-1.668,-1.5996,0.0,0.0,0.0,0.0,0.0,0.0,0.0,0.0,0.0,0.0,0.0,0.0,0.0,0.0,0.0,0.0,0.0,0.0,0.0,0.0,0.0,0.0,-2.2773,-2.4375,-2.4746,-2.5625,-2.6699,-2.7949,-2.8535,-2.8984,-2.9355,-2.9394,-2.9609,-3.0117,-3.0137,-3.0371,-3.0879,-3.125,-3.1445,-3.1445,-3.1777,-3.2187,-3.2695,-3.2695,-3.2949,-3.3398,-3.3398,-3.3398,-3.3398,-3.3398,-3.3398,0.0,-3.291,-3.2695,-3.2656,-3.2168,-3.1953,0.0,0.0,0.0,0.0,0.0,-3.0597,-3.0481,-3.0417,-3.0404,-3.0404,-3.0404,-3.0058,-2.964,-2.964,-2.9313,-2.8948,-2.8948,-2.8948,-2.8852,-2.8511,-2.8396,-2.8319,-2.7972,-2.7505,-2.714,-2.714,-2.6467,-2.5846,-2.5846,0.0,0.0,-2.5308,-2.5308,-2.5308,-2.5308,-2.5308,-2.5308,0.0,-2.5379,-2.5465,-2.5506,-2.5594,-2.566,-2.5703,-2.4434,0.0,0.0,0.0,-2.082,-2.0098,-1.957,0.0,0.0,0.0,0.0,0.0,0.0,0.0,0.0,-1.5801,-1.4805,0.0,0.0,0.0,0.0,0.0,0.0,0.0,0.0,0.0,0.0,0.0,0.0,0.0,0.0,0.0,0.0,-2.4863,-2.6309,-2.7168,-2.7285,-2.7871,-2.9414,-2.9687,-3.0059,-3.082,-3.0898,-3.0937,-3.1035,-3.1055,-3.1094,-3.1172,0.0,0.0,0.0,0.0,-3.3457,-3.3555,-3.3555,-3.3594,-3.3691,-3.3691,-3.3691,-3.3691,-3.3691,-3.3691,-3.3691,-3.3594,-3.3555,-3.3535,-3.3437,-3.3398,-3.3242,-3.1758,-3.1172,-3.115,-3.0964,-3.0842,0.0,0.0,0.0,0.0,-3.0558,-3.0481,-3.0404,-3.0404,-3.0404,-3.0404,-3.0404,-3.0404,-3.0212,-2.9448,-2.9242,-2.9069,-2.8352,-2.8107,-2.8049,-2.8049,-2.7351,-2.6717,-2.6621,-2.5981,-2.5423,-2.5327,-2.5308,-2.5308,-2.5308,-2.5308,0.0,-2.5308,-2.5418,-2.5493,-2.55,0.0,0.0,-2.5703,-2.4902,-2.4394,-2.4394,-2.293,-2.1348,-1.9805,-1.9727,-1.9355,-1.8594,-1.8574,-1.9336,-2.0879,-2.0898,-2.1289,-2.1934,-1.7988,-1.6484,0.0,0.0,0.0,0.0,0.0,0.0,0.0,0.0,0.0,0.0,0.0,0.0,0.0,0.0,0.0,-2.5,-2.666,-2.8105,-2.8965,-2.9101,-2.9219,-2.9551,-3.0215,-3.0703,-3.0879,-3.0898,-3.1191,-3.1894,-3.1953,-3.2226,-3.2871,-3.3086,0.0,-3.3164,-3.332,-3.373,-3.4434,-3.4453,-3.4805,-3.5508,0.0,0.0,-3.5508,-3.5508,-3.5508,-3.5469,-3.4746,-3.4453,-3.4394,-3.3691,-3.3398,-3.3379,-3.3047,-3.2888,-3.2811,-3.2725,-3.2656,-3.2585,-3.2451,-3.1987,-3.1448,-3.1448,-3.0962,-3.0404,-3.0404,-3.0404,0.0,-3.0404,-3.0404,-3.0365,-3.0192,-3.0154,-3.0115,-2.9942,-2.9371,-2.8876,-2.8876,-2.8222,-2.7448,-2.6736,-2.6467,-2.6135,-2.5423,-2.5308,-2.5308,-2.5308,-2.5308,-2.5327,-2.5368,-2.5456,-2.5529,-2.5569,-2.5658,-2.5703,-2.5703,-2.4902,-2.4394,-2.4394,-2.3496,-2.2793,-2.2461,-2.2383,-2.2285,-2.2129,-2.2109,-2.2285,-2.2617,-2.2676,-2.2754,-2.2832,-2.1348,-2.0352,0.0,0.0,0.0,0.0,0.0,0.0,0.0,0.0,0.0,0.0,0.0,-2.091,-2.2245,0.0,-2.5488,-2.6797,-2.8105,-2.9101,-2.9531,-2.998,-3.0254,-3.0254,-3.0625,-3.1074,-3.1504,-3.1543,-3.1894,-3.2734,-3.2793,-3.2988,-3.3379,-3.3809,-3.4043,-3.4043,-3.4473,-3.4902,-3.5351,-3.5351,-3.5566,-3.5996,-3.5996,-3.5996,-3.5996,-3.5996,-3.5996,-3.5976,-3.5547,-3.5351,-3.5312,-3.4883,-3.4707,-3.4707,-3.4707,-3.4159,-3.3331,-3.3275,-3.3209,-3.3134,-3.303,-3.2694,-3.2295,-3.2295,-3.2006,-3.1654,-3.1654,-3.1365,-3.1058,-3.1058,-3.0731,-3.0404,-3.0404,-3.0404,-3.0404,-3.0404,-3.0077,-2.9756,-2.9756,-2.9083,-2.8376,-2.7928,-2.7525,-2.7127,-2.6712,-2.6292,-2.5844,-2.5423,-2.5346,-2.5368,-2.5447,-2.5517,-2.5561,-2.5599,-2.566,-2.5703,-2.5703,-2.5293,-2.4863,-2.4434,-2.4023,-2.3594,-2.3164,-2.3144,-2.3144,-2.3144,-2.3125,-2.3301,-2.375,-2.3789,-2.4004,-2.4394,-2.3984,-2.3125,0.0,0.0,0.0,0.0,0.0,0.0,0.0,0.0,-1.9145,-2.0426,-2.1792,-2.3285,-2.4863,-2.5879,-2.6914,-2.832,-2.9277,-2.9844,-2.9844,-3.0469,-3.0898,-3.0898,-3.0898,-3.123,-3.2129,-3.2207,-3.2598,-3.3574,-3.3652,-3.373,-3.3906,-3.457,-3.4941,-3.4941,-3.5625,-3.5996,-3.5996,-3.5996,-3.5996,-3.5996,-3.5996,-3.5996,-3.5996,-3.5996,-3.5996,-3.5996,-3.5996,-3.5996,-3.5996,-3.5996,-3.5996,-3.5996,-3.5996,-3.5137,-3.3906,-3.3832,-3.3774,-3.3715,-3.3627,-3.3422,-3.3205,-3.3205,-3.3086,-3.2946,-3.2946,-3.2479,-3.1929,-3.1929,-3.1423,-3.0846,-3.0692,-3.0654,-3.0615,-3.0442,-3.0404,-3.0404,-3.0404,-2.9855,-2.9324,-2.9151,-2.8612,-2.8144,-2.8051,-2.7434,-2.6675,-2.5809,-2.5538,-2.545,-2.55,-2.5563,-2.5604,-2.5629,-2.5661,-2.5703,-2.5703,-2.5703,-2.5391,-2.4707,-2.4648,-2.4336,-2.3633,-2.3652,-2.3691,-2.3691,-2.3633,-2.3945,-2.4648,-2.4648,-2.5019,-2.5703,-2.5703,-2.498,-2.0562,-1.8811,-1.8045,-1.9504,-1.9296,-1.97,0.0,0.0,-2.3023,-2.545,-2.6144,-2.6646,-2.7675,-2.8574,-2.9238,-2.9414,-3.0195,-3.0742,-3.0742,-3.084,-3.0898,-3.0898,-3.0898,-3.123,-3.2129,-3.2207,-3.2851,-3.4434,-3.4551,-3.4883,-3.5664,-3.5801,-3.5859,-3.5859,-3.5957,-3.5996,-3.5996,-3.5996,-3.5996,-3.5996,-3.5996,-3.5996,-3.5996,-3.5996,-3.5996,-3.5996,-3.5996,-3.5996,-3.5996,-3.5996,-3.5996,-3.5996,-3.5996,-3.5879,-3.5703,-3.5625,-3.5607,-3.5574,-3.5451,-3.4931,-3.4321,-3.4321,-3.3759,-3.3069,-3.3069,-3.2938,-3.2776,-3.2776,-3.2699,-3.2468,-3.1737,-3.1545,-3.1365,-3.0577,-3.0404,-3.0404,-3.0404,-3.0374,-3.0113,-2.9343,-2.9209,-2.8996,-2.8218,-2.8006,-2.7653,-2.6775,-2.597,-2.5503,-2.5572,-2.5599,-2.5611,-2.5683,-2.5703,-2.5703,-2.5703,-2.5703,-2.5664,-2.5566,-2.5547,-2.5508,-2.541,-2.543,-2.543,-2.543,-2.541,-2.5469,-2.5547,-2.5547,-2.5605,-2.5703,-2.5703,-2.5605,-2.35,-2.2331,0.0,0.0,-2.2239,-2.2553,-2.4841,-2.4837,-2.4968,-2.717,-2.7644,-2.7935,-2.8886,-2.9355,-2.9766,0.0,-3.0664,-3.0898,-3.0898,-3.0898,-3.0898,-3.0898,-3.0898,-3.1426,-3.2773,-3.2891,-3.3613,-3.5332,-3.5469,-3.5625,-3.5976,-3.5996,-3.5996,-3.5996,-3.5996,-3.5996,-3.5996,-3.5996,-3.5996,-3.5996,-3.5996,-3.5996,-3.5996,-3.5996,-3.5996,-3.5996,-3.5996,-3.5996,-3.5996,-3.5996,-3.5996,-3.5996,-3.5996,-3.5996,-3.5996,-3.5973,-3.5922,-3.59,-3.5838,-3.5552,-3.5204,-3.5204,-3.4927,-3.4602,-3.4602,-3.424,-3.3832,-3.3832,-3.3464,-3.3003,-3.2654,-3.2576,-3.2344,-3.1486,-3.1269,-3.1133,-3.0621,-3.0541,-3.0454,-3.0088,-3.0059,-3.0,-2.9673,-2.9228,-2.8808,-2.8479,-2.7645,-2.6903,-2.6479,-2.6402,-2.6228,-2.5742,-2.5703,-2.5703,-2.5703,-2.5703,-2.5703,-2.5703,-2.5703,-2.5703,-2.5703,-2.5703,-2.5703,-2.5703,-2.5703,-2.5703,-2.5703,-2.5703,-2.5703,-2.5703,-2.5703,-2.5703,-2.4731,0.0,0.0,-2.4432,-2.4606,-2.5019,-2.589,-2.6125,-2.6607,-2.8191,-2.8376,-2.8587,-2.9746,-2.9766,0.0,-3.0762,-3.1094,-3.1172,-3.0937,-3.1113,-3.1172,-3.0937,-3.0898,-3.1465,-3.293,-3.3262,-3.4023,-3.5527,-3.5859,-3.5996,-3.5996,-3.5996,-3.5996,-3.5996,-3.5996,-3.5996,-3.5996,-3.5996,-3.5996,-3.5996,-3.5996,-3.5996,-3.6016,-3.625,-3.623,-3.6016,-3.625,-3.6211,-3.5996,-3.5996,-3.5996,-3.5996,-3.5996,-3.5996,-3.5996,-3.5996,-3.5973,-3.5938,-3.5938,-3.5861,-3.579,-3.579,-3.5775,-3.5758,-3.5758,-3.5317,-3.4834,-3.4834,-3.4371,-3.3848,-3.3618,-3.3559,-3.3345,-3.2466,-3.2249,-3.2093,-3.1445,-3.1131,-3.0989,-3.0989,-3.0825,-3.0693,-3.0743,-3.0278,-2.9894,-2.9941,-2.9372,-2.8568,-2.75,-2.7148,-2.6758,-2.6133,-2.584,-2.5703,-2.5703,-2.5703,-2.5703,-2.5703,-2.5703,-2.5703,-2.5703,-2.5703,-2.5703,-2.5703,-2.5703,-2.5703,-2.5703,-2.5703,-2.5703,-2.5703,-2.5703,-2.5703,0.0,0.0,-2.5269,-2.5269,-2.5904,-2.6755,-2.7631,-2.7927,-2.8268,-2.9174,-2.8785,-2.8828,-3.0547,-3.0176,-2.9883,-3.0762,-3.1601,-3.1875,-3.1016,-3.1621,-3.1855,-3.0996,-3.0898,-3.125,0.0,-3.2949,-3.3769,-3.4668,-3.5527,-3.5996,-3.5996,-3.5996,-3.5996,-3.5996,-3.5996,-3.5996,-3.5996,-3.5996,-3.5996,-3.5996,-3.5996,-3.5996,-3.6035,-3.6875,-3.6797,-3.6055,-3.6894,-3.6777,-3.5996,-3.5996,-3.5996,-3.5996,-3.5996,-3.5996,-3.5996,-3.5996,-3.5996,-3.5996,-3.5996,-3.5996,-3.5996,-3.5996,-3.5948,-3.588,-3.588,-3.5785,-3.5668,-3.5668,-3.5648,-3.5434,-3.4662,-3.4468,-3.4237,-3.3365,-3.3153,-3.315,-3.3131,-3.2517,-3.1965,-3.1965,-3.138,-3.0898,-3.0898,-3.0879,-3.0859,-3.0859,-3.084,-3.0195,-2.8476,-2.7519,-2.6992,-2.6953,-2.6191,-2.5703,-2.5703,-2.5703,-2.5703,-2.5703,-2.5703,-2.5703,-2.5703,-2.5703,-2.5703,-2.5703,-2.5703,-2.5703,-2.5703,-2.5703,-2.5703,-2.5703,-2.5703,-2.5703,0.0,0.0,-2.5577,-2.6736,-2.7255,-2.7685,-2.8569,-2.8876,-2.9065,-2.9398,-2.9305,-2.918,-2.918,-2.8945,-2.9023,-2.9902,-3.0762,-3.123,-3.0937,-3.2109,-3.2461,-3.1074,-3.1406,0.0,0.0,0.0,0.0,-3.459,-3.4961,-3.5391,-3.5976,-3.5996,-3.5996,-3.5996,-3.5996,-3.6289,-3.6855,-3.6855,-3.7148,-3.7734,-3.7734,-3.7734,-3.7734,-3.8027,-3.8008,-3.7734,-3.8047,-3.8008,-3.7734,-3.7734,-3.7734,-3.7734,-3.7734,-3.7734,-3.7734,-3.7734,-3.7734,-3.7559,-3.6406,-3.5996,-3.5996,-3.5996,-3.5976,-3.5972,-3.5972,-3.5929,-3.5902,-3.5902,-3.5902,-3.5845,-3.5573,-3.5495,-3.528,-3.4402,-3.4207,-3.4031,-3.3464,-3.3119,-3.2927,-3.2927,-3.2304,-3.1758,-3.1758,-3.1289,-3.0898,-3.0898,-3.041,-2.9824,-2.9238,-2.8398,-2.7851,-2.7851,-2.7598,-2.7187,-2.6602,-2.6562,-2.6328,-2.5742,-2.5703,-2.5703,-2.5703,-2.5703,-2.5703,-2.5703,-2.5703,-2.5703,-2.5703,-2.5703,-2.5703,-2.5703,-2.5703,-2.5703,-2.5774,-2.6173,-2.6563,-2.7992,-2.8338,-2.8552,-2.9429,-2.9489,-2.9374,-2.9412,-2.9011,-2.8594,-2.8359,-2.8047,-2.8223,-2.9414,-3.0586,-3.1367,-3.1367,-3.2539,-3.3008,-3.1914,-3.2031,0.0,0.0,0.0,0.0,-3.4141,-3.4805,-3.541,-3.5976,-3.5996,-3.6133,-3.6445,-3.6465,-3.6875,-3.7754,-3.7754,-3.8047,-3.8594,-3.8594,-3.8594,-3.8613,-3.8926,-3.8887,-3.8613,-3.8926,-3.8887,-3.8594,-3.8594,-3.8594,-3.8594,-3.8594,-3.8594,-3.8594,-3.8594,-3.8594,-3.8398,-3.6953,-3.668,-3.6836,-3.6191,-3.6211,-3.6406,-3.6094,-3.5996,-3.5996,-3.5996,-3.5996,-3.5996,-3.5996,-3.5996,-3.5859,-3.5293,-3.5156,-3.5019,-3.4453,-3.4082,-3.3867,-3.3867,-3.3203,-3.2637,-3.2637,-3.1934,-3.1269,-3.0957,-3.043,-3.0059,-3.0059,-2.9297,-2.8769,-2.8769,-2.8496,-2.8066,-2.7519,-2.7461,-2.709,-2.6211,-2.6152,-2.6016,-2.5703,-2.5703,-2.5703,-2.5703,-2.5703,-2.5703,-2.5703,-2.5703,-2.5703,-2.5703,-2.5703,-2.5703,-2.5673,-2.6697,-2.8165,-2.8953,-2.9165,-2.9371,-3.0154,-2.9793,-2.9271,-2.9193,-2.8019,-2.7226,0.0,0.0,-2.748,-2.9199,-3.0976,-3.2148,-3.2187,-3.2969,-3.3496,0.0,0.0,0.0,0.0,0.0,0.0,-3.3476,0.0,-3.5957,-3.5996,-3.6035,-3.6445,-3.7266,-3.7344,-3.7793,-3.8652,-3.8711,-3.873,-3.873,-3.873,-3.873,-3.8769,-3.959,-3.9512,-3.8789,-3.9609,-3.9492,-3.873,-3.873,-3.873,-3.873,-3.873,-3.873,-3.873,-3.873,-3.873,-3.8613,-3.7734,-3.7949,-3.832,-3.668,-3.6699,-3.7207,-3.6387,-3.6133,-3.6113,-3.6074,-3.6074,-3.6055,-3.6016,-3.5996,-3.5996,-3.5996,-3.5996,-3.5996,-3.5996,-3.5351,-3.4766,-3.4766,-3.4062,-3.3457,-3.3418,-3.2773,-3.1973,-3.1094,-3.0976,-3.0957,-3.0918,-3.0176,-2.9668,-2.9668,-2.8926,-2.8418,-2.8379,-2.8379,-2.7988,-2.7129,-2.707,-2.6699,-2.5879,-2.582,-2.582,-2.582,-2.5781,-2.5762,-2.5762,-2.5723,-2.5703,-2.5703,-2.5742,-2.5742,-2.7678,-2.8453,-2.9011,-2.9871,-3.0077,-2.9967,-2.9525,-2.9352,-2.896,-2.7693,-2.7201,-2.668,0.0,0.0,0.0,-2.748,-2.9668,0.0,-3.2109,-3.4004,0.0,0.0,0.0,-3.3887,-3.3437,-3.3984,0.0,0.0,-3.4785,-3.5312,-3.5976,-3.6621,-3.707,-3.7285,-3.793,-3.8691,-3.9551,-4.0215,-4.0547,-4.0547,-4.0547,-4.0547,-4.0547,-4.0762,-4.0742,-4.0547,-4.0762,-4.0742,-4.0547,-4.0547,-4.0547,-4.0547,-4.0547,-4.0547,-4.0547,-4.0547,-4.0547,-4.041,-3.9531,-3.8965,-3.8535,-3.8086,-3.8086,-3.8223,-3.8008,-3.7949,-3.7793,-3.7148,-3.6973,-3.6816,-3.6172,-3.5996,-3.5996,-3.5996,-3.5996,-3.5996,-3.5996,-3.582,-3.5664,-3.5664,-3.4961,-3.416,-3.3516,-3.3223,-3.2812,-3.1992,-3.1875,-3.1621,-3.0976,-3.0703,-3.0566,-3.0566,-3.0371,-2.9961,-2.9316,-2.9277,-2.8906,-2.8027,-2.7969,-2.7871,-2.7656,-2.7637,-2.7637,-2.7637,-2.6992,-2.668,-2.668,-2.6016,-2.5703,-2.5723,-2.6367,-2.6328,-2.8703,-2.9371,-2.9794,-3.0288,-3.0115,-2.9698,-2.9204,-2.8635,-2.7829,-2.6501,-2.6029,0.0,0.0,0.0,0.0,0.0,0.0,0.0,-3.25,-3.3965,-3.4785,0.0,-3.4648,0.0,-3.4551,-3.498,-3.543,0.0,-3.584,-3.6055,-3.6543,-3.7402,-3.8047,-3.8437,-3.8926,-3.959,-4.0469,-4.0957,-4.1191,-4.1191,-4.1191,-4.1191,-4.1191,-4.1191,-4.1191,-4.1191,0.0,-4.1191,-4.1191,-4.1191,-4.1191,-4.1191,-4.1191,-4.1191,-4.1191,-4.1191,-4.1191,-4.1133,-4.0644,-4.0156,-3.9609,-3.8848,-3.8867,-3.9101,-3.8711,-3.8594,-3.8496,-3.8008,-3.7871,-3.7676,-3.6797,-3.6562,-3.6465,-3.6094,-3.5996,-3.5996,-3.5996,-3.5996,-3.5996,-3.5996,-3.5605,-3.498,-3.4121,-3.3965,-3.3691,-3.2851,-3.2734,-3.2422,-3.1582,-3.1133,-3.0898,-3.0898,-3.0898,-3.0703,-3.0215,-3.0176,-2.9805,-2.8926,-2.8867,-2.8691,-2.832,-2.8301,-2.8301,-2.8301,-2.7812,-2.7578,-2.7578,-2.707,-2.6836,-2.6855,-2.7344,-2.7305,-2.9242,-2.9813,-3.0404,-3.0404,-2.9737,-2.9069,-2.8973,-2.7728,-2.6376,-2.5504,0.0,-2.4004,-2.3242,0.0,-2.4961,-2.6719,0.0,-3.0488,-3.3047,-3.3496,-3.418,-3.5801,-3.5332,-3.5215,-3.6094,-3.6172,-3.6523,-3.7402,-3.7578,-3.7598,-3.748,-3.8301,-3.918,-4.0039,-4.0078,-4.0449,-4.1191,-4.1191,-4.1191,-4.1191,-4.1191,-4.1191,-4.1191,-4.1191,-4.1191,-4.1191,0.0,0.0,-4.1191,-4.1191,-4.1191,-4.1191,-4.1191,-4.1191,-4.1191,-4.1191,-4.1191,-4.1191,-4.1191,-4.1191,-4.0957,-3.9434,-3.9453,-3.9922,-3.918,-3.8945,-3.8926,-3.8809,-3.8769,-3.8574,-3.7695,-3.7461,-3.7285,-3.6523,-3.6348,-3.6309,-3.6191,-3.6074,-3.5996,-3.5996,-3.5996,-3.5762,-3.5,-3.4863,-3.457,-3.3691,-3.3574,-3.3281,-3.2461,-3.1601,-3.1035,-3.0918,-3.0898,-3.0898,-3.0898,-3.0898,-3.0586,-2.9824,-2.9766,-2.9434,-2.8672,-2.8652,-2.8652,-2.8652,-2.8535,-2.8476,-2.8476,-2.8359,-2.8301,-2.8301,-2.8418,-2.8418,-2.9987,-3.0288,-3.0404,-3.0404,-2.9737,-2.8934,-2.8261,-2.6822,0.0,0.0,0.0,-2.3274,-2.3125,-2.3809,0.0,-2.6719,0.0,0.0,0.0,0.0,-3.4844,0.0,0.0,0.0,0.0,0.0,0.0,0.0,0.0,0.0,-3.8418,-3.9199,-4.0078,-4.0957,-4.0976,-4.1055,-4.1191,-4.1191,-4.1191,-4.1191,-4.1191,-4.1191,-4.1191,-4.1191,-4.1191,-4.1191,0.0,0.0,-4.1191,-4.1191,-4.1191,-4.1191,-4.1191,-4.1191,-4.1191,-4.1191,-4.1191,-4.1191,-4.1191,-4.1191,-4.1152,-4.0859,-4.0859,-4.0957,-4.0781,-4.0742,-4.0605,-3.9883,-3.9668,-3.9473,-3.8594,-3.8379,-3.834,-3.8184,-3.8144,-3.7949,-3.7226,-3.6504,-3.5996,-3.5996,-3.5996,-3.5957,-3.5801,-3.5762,-3.5488,-3.4609,-3.4473,-3.416,-3.3301,-3.248,-3.1699,-3.0976,-3.0898,-3.0898,-3.0898,-3.0898,-3.084,-3.0684,-3.0664,-3.0605,-3.0469,-3.0449,-3.0449,-3.0449,-2.9746,-2.9375,-2.9375,-2.8652,-2.8301,-2.832,-2.9043,-2.8984,-3.0288,-3.0404,-3.0404,-3.0404,-2.9429,-2.8376,-2.7992,0.0,0.0,0.0,0.0,-2.2341,-2.1875,0.0,0.0,0.0,0.0,0.0,0.0,0.0,0.0,0.0,0.0,0.0,0.0,0.0,0.0,0.0,0.0,0.0,-3.9297,-4.0098,-4.0762,-4.1191,-4.1191,-4.1191,-4.1191,-4.1191,-4.1191,-4.1191,-4.1191,-4.1191,-4.1191,-4.1191,-4.1191,-4.1191,-4.1191,0.0,-4.1191,-4.1191,-4.1191,-4.1191,-4.1191,-4.1191,-4.1191,-4.1191,-4.1191,-4.1191,-4.1191,-4.1191,-4.1191,-4.1191,-4.1191,-4.1191,-4.1191,-4.1191,-4.1113,-4.0684,-4.0586,-4.0371,-3.9492,-3.9277,-3.916,-3.8711,-3.8594,-3.8496,-3.8066,-3.7285,-3.668,-3.668,-3.6309,-3.5996,-3.5996,-3.5996,-3.5859,-3.5449,-3.5371,-3.5059,-3.4199,-3.373,-3.3164,-3.2285,-3.2207,-3.2207,-3.2207,-3.1816,-3.1582,-3.1582,-3.1152,-3.0898,-3.0898,-3.0898,-3.0898,-3.0898,-3.0488,-3.0273,-3.0273,-2.9863,-2.9648,-2.9668,-3.0078,-3.0059,-3.0346,-3.0404,-3.0404,-3.0404,-2.914,-2.7857,-2.7659,-2.5696,0.0,0.0,0.0,-2.1423,-2.0956,0.0,0.0,0.0,0.0,0.0,0.0,0.0,0.0,0.0,0.0,0.0,0.0,0.0,0.0,0.0,0.0,0.0,-4.0176,-4.082,-4.1191,-4.1191,-4.1191,-4.1191,-4.1191,-4.1191,-4.1191,-4.1191,-4.1191,-4.1191,-4.1191,-4.1191,-4.1191,-4.1191,-4.1191,0.0,0.0,-4.1191,-4.1191,-4.1191,-4.1191,-4.1191,-4.1191,-4.1191,-4.1191,-4.1191,-4.1191,-4.1191,-4.1191,-4.1191,-4.1191,-4.1191,-4.1191,-4.1191,-4.1191,-4.1191,-4.1191,-4.1035,-4.0351,-4.0176,-4.0019,-3.9316,-3.9004,-3.8887,-3.8887,-3.8184,-3.7578,-3.7578,-3.7031,-3.6562,-3.6562,-3.6406,-3.6289,-3.6289,-3.6113,-3.5742,-3.5078,-3.498,-3.4726,-3.4023,-3.3613,-3.3398,-3.3398,-3.2812,-3.2461,-3.2461,-3.1816,-3.1367,-3.1191,-3.1172,-3.1094,-3.0898,-3.0898,-3.0898,-3.0898,-3.0898,-3.0898,-3.0898,-3.0898,-3.0898,-3.0173,-3.0404,-3.0404,-3.0404,-2.914,-2.7678,-2.6909,0.0,0.0,-2.1888,-2.1097,-2.0768,-2.1543,0.0,0.0,0.0,0.0,0.0,0.0,0.0,0.0,0.0,0.0,0.0,0.0,0.0,0.0,0.0,0.0,0.0,0.0,-4.1152,-4.1191,-4.1191,-4.1191,-4.1191,-4.1191,-4.1191,-4.1191,-4.1191,-4.1191,-4.1191,-4.1191,-4.1191,-4.1191,-4.1191,0.0,0.0,0.0,-4.1191,-4.1191,-4.1191,-4.1191,-4.1191,-4.1191,-4.1191,-4.1191,-4.1191,-4.1191,-4.1191,-4.1191,-4.1191,-4.1191,-4.1191,-4.1191,-4.1191,-4.1191,-4.1191,-4.1191,-4.1172,-4.1094,-4.1074,-4.1055,-4.0976,-4.0351,-3.9785,-3.9785,-3.9101,-3.8476,-3.8476,-3.8418,-3.8359,-3.8359,-3.7695,-3.7187,-3.7187,-3.6504,-3.5976,-3.5898,-3.5879,-3.5859,-3.5762,-3.4336,-3.3398,-3.3398,-3.332,-3.3281,-3.3281,-3.3203,-3.2832,-3.2109,-3.207,-3.1719,-3.0918,-3.0898,-3.0898,-3.0898,-3.0898,-3.0898,-3.0898,-3.0898,-3.0898,-2.9525,-3.0,-3.0404,-3.0404,-2.914,-2.7659,-2.6794,0.0,-2.2623,-2.1769,-2.0966,-2.0522,-2.0933,-2.1473,0.0,0.0,0.0,0.0,0.0,0.0,0.0,0.0,0.0,0.0,0.0,0.0,0.0,0.0,0.0,0.0,0.0,-4.1191,-4.1191,-4.1191,-4.1191,-4.1191,-4.1191,-4.1191,-4.1191,-4.1191,-4.1191,-4.1191,-4.1191,-4.1191,-4.1191,-4.1191,0.0,0.0,0.0,-4.1191,-4.1191,-4.1191,-4.1191,-4.1191,-4.1191,-4.1191,-4.1191,-4.1191,-4.1191,-4.1191,-4.1191,-4.1191,-4.1191,-4.1191,-4.1191,-4.1191,-4.1191,-4.1191,-4.1191,-4.1191,-4.1191,-4.1191,-4.1191,-4.1191,-4.0937,-4.0684,-4.0684,-4.0,-3.9375,-3.9375,-3.8965,-3.8594,-3.8594,-3.8301,-3.7891,-3.7383,-3.6992,-3.6582,-3.6074,-3.5996,-3.5996,-3.5996,-3.5371,-3.4961,-3.4961,-3.4473,-3.418,-3.418,-3.3691,-3.3262,-3.2949,-3.293,-3.2539,-3.1699,-3.168,-3.1426,-3.0898,-3.0898,-3.0898,-3.0898,-3.0898,-3.0898,-2.905,-2.9737,-3.0346,-3.0077,-2.8948,-2.7549,0.0,0.0,-2.255,-2.1433,-2.0778,-2.04,-2.045,-2.1212,-2.2124,0.0,0.0,0.0,0.0,0.0,0.0,0.0,0.0,0.0,0.0,0.0,0.0,0.0,0.0,0.0,0.0,-4.1191,-4.1191,-4.1191,-4.1191,-4.1191,-4.1191,-4.1191,-4.1191,-4.1191,-4.1191,-4.1191,-4.1191,-4.1191,-4.1191,-4.1191,0.0,0.0,0.0,-4.1191,-4.1191,-4.1191,-4.1191,-4.1191,-4.1191,-4.1191,-4.1191,-4.1191,-4.1191,-4.1191,-4.1191,-4.1191,-4.1191,-4.1191,-4.1191,-4.1191,-4.1191,-4.1191,-4.1191,-4.1191,-4.1191,-4.1191,-4.1191,-4.1191,-4.1191,-4.1191,-4.1191,-4.0723,-4.0273,-4.0273,-3.9785,-3.9375,-3.9375,-3.916,-3.8789,-3.8164,-3.7851,-3.7363,-3.6504,-3.6387,-3.6289,-3.6035,-3.5996,-3.5996,-3.5996,-3.5449,-3.5078,-3.5078,-3.4512,-3.4043,-3.3809,-3.3789,-3.3398,-3.2578,-3.2559,-3.2246,-3.1641,-3.1641,-3.1641,-3.1641,-3.1641,-3.1641,-2.8876,-2.9737,-3.0192,-2.9338,-2.8492,-2.7241,0.0,-2.3432,-2.2336,-2.0658,-2.0357,-2.0408,-2.041,-2.1215,-2.2187,-2.3066,0.0,0.0,0.0,0.0,0.0,0.0,0.0,0.0,0.0,0.0,0.0,0.0,0.0,0.0,0.0,-4.1191,-4.1191,-4.1191,-4.1191,-4.1191,-4.1191,-4.1191,-4.1191,-4.1191,-4.1191,-4.1191,-4.1191,-4.1191,-4.1191,0.0,0.0,0.0,0.0,-4.1191,-4.1191,-4.1191,-4.1191,-4.1191,-4.1191,-4.1191,-4.1191,-4.1191,-4.1191,-4.1191,-4.1191,-4.1191,-4.1191,-4.1191,-4.1191,-4.1191,-4.1191,-4.1191,-4.1191,-4.1191,-4.1191,-4.1191,-4.1191,-4.1191,-4.1191,-4.1191,-4.1191,-4.1191,-4.1191,-4.1191,-4.1172,-4.1172,-4.1172,-4.0469,-3.9883,-3.9863,-3.9141,-3.8262,-3.7402,-3.7285,-3.6953,-3.6094,-3.5996,-3.5996,-3.5996,-3.5996,-3.5996,-3.5996,-3.5976,-3.5586,-3.4726,-3.4687,-3.4277,-3.3398,-3.3398,-3.3379,-3.3379,-3.3379,-3.3379,-3.3379,-3.3379,-3.3379,-2.7159,-2.8025,-2.8621,-2.8357,-2.764,-2.6505,-2.4553,-2.3432,-2.2314,-2.0643,-2.0313,-2.0354,-2.0444,-2.0723,-2.1616,-2.3672,0.0,0.0,0.0,0.0,0.0,0.0,0.0,0.0,0.0,0.0,0.0,0.0,0.0,0.0,0.0,-4.1191,-4.1191,-4.1191,-4.1191,-4.1191,-4.1191,-4.1191,-4.1191,-4.1191,-4.1191,-4.1191,-4.1191,-4.1191,0.0,0.0,0.0,0.0,0.0,-4.1191,-4.1191,-4.1191,-4.1191,-4.1191,-4.1191,-4.1191,-4.1191,-4.1191,-4.1191,-4.1191,-4.1191,-4.1191,-4.1191,-4.1191,-4.1191,-4.1191,-4.1191,-4.1191,-4.1191,-4.1191,-4.1191,-4.1191,-4.1191,-4.1191,-4.1191,-4.1191,-4.1191,-4.1191,-4.1191,-4.1191,-4.1191,-4.1191,-4.1191,-4.0976,-4.0586,-3.998,-3.9668,-3.918,-3.8301,-3.7676,-3.7187,-3.6914,-3.6367,-3.5996,-3.5996,-3.5996,-3.5996,-3.5996,-3.5996,-3.5879,-3.5605,-3.5586,-3.5176,-3.4316,-3.4297,-3.4004,-3.3398,-3.3398,-3.3398,-3.3398,-3.3398,-3.3398,0.0,-2.6986,-2.7818,-2.7486,-2.6755,-2.5678,-2.399,-2.2943,-2.196,-2.0588,-2.0335,-2.0391,-2.0482,-2.0789,-2.1675,-2.3633,0.0,0.0,0.0,0.0,0.0,0.0,0.0,0.0,0.0,0.0,0.0,0.0,0.0,0.0,0.0,0.0,-4.1191,-4.1191,-4.1191,-4.1191,-4.1191,-4.1191,-4.1191,-4.1191,-4.1191,-4.1191,-4.1191,-4.1191,0.0,0.0,0.0,0.0,0.0,-4.1191,-4.1191,-4.1191,-4.1191,-4.1191,-4.1191,-4.1191,-4.1191,-4.1191,-4.1191,-4.1191,-4.1191,-4.1191,-4.1191,-4.1191,-4.1191,-4.1191,-4.1191,-4.1191,-4.1191,-4.1191,-4.1191,-4.1191,-4.1191,-4.1191,-4.1191,-4.1191,-4.1191,-4.1191,-4.1191,-4.1191,-4.1191,-4.1191,-4.1191,-4.1191,-4.1016,-4.0469,-4.0391,-4.0078,-3.9199,-3.8613,-3.8144,-3.7832,-3.7012,-3.6484,-3.6484,-3.6191,-3.5996,-3.5996,-3.5996,-3.5996,-3.5996,-3.5996,-3.5742,-3.5195,-3.5195,-3.4922,-3.4375,-3.4375,-3.4375,-3.4375,-3.4375,-3.4375,0.0,-2.6255,-2.7332,-2.6524,-2.5712,-2.4692,-2.3081,-2.2138,0.0,-2.049,-2.0416,-2.0527,-2.0588,-2.1305,-2.2227,-2.3223,0.0,0.0,0.0,0.0,0.0,0.0,0.0,0.0,0.0,0.0,0.0,0.0,0.0,0.0,0.0,0.0,-4.1191,-4.1191,-4.1191,-4.1191,-4.1191,-4.1191,-4.1191,-4.1191,-4.1191,-4.1191,-4.1191,-4.1191,0.0,0.0,0.0,0.0,0.0,-4.1191,-4.1191,-4.1191,-4.1191,-4.1191,-4.1191,-4.1191,-4.1191,-4.1191,-4.1191,-4.1191,-4.1191,-4.1191,-4.1191,-4.1191,-4.1191,-4.1191,-4.1191,-4.1191,-4.1191,-4.1191,-4.1191,-4.1191,-4.1191,-4.1191,-4.1191,-4.1191,-4.1191,-4.1191,-4.1191,-4.1191,-4.1191,-4.1191,-4.1191,-4.1191,-4.1191,-4.1191,-4.1191,-4.0918,-4.0098,-3.9941,-3.959,-3.8789,-3.791,-3.7383,-3.7383,-3.6543,-3.5996,-3.5996,-3.5996,-3.5996,-3.5996,-3.5996,-3.5996,-3.5996,-3.5996,-3.5996,-3.5996,-3.5996,-3.5996,-3.5996,-3.5996,-3.5996,-2.2231,0.0,-2.3952,-2.374,-2.3543,-2.3101,0.0,-2.1694,-2.1368,-2.0553,0.0,0.0,-2.1443,-2.1758,0.0,0.0,0.0,0.0,0.0,0.0,0.0,0.0,0.0,0.0,0.0,0.0,0.0,0.0,0.0,0.0,0.0,0.0,-4.1191,-4.1191,-4.1191,-4.1191,-4.1191,-4.1191,-4.1191,-4.1191,-4.1191,-4.1191,-4.1191,-4.1191,0.0,0.0,0.0,0.0,-4.1191,-4.1191,-4.1191,-4.1191,-4.1191,-4.1191,-4.1191,-4.1191,-4.1191,-4.1191,-4.1191,-4.1191,-4.1191,-4.1191,-4.1191,-4.1191,-4.1191,-4.1191,-4.1191,-4.1191,-4.1191,-4.1191,-4.1191,-4.1191,-4.1191,-4.1191,-4.1191,-4.1191,-4.1191,-4.1191,-4.1191,-4.1191,-4.1191,-4.1191,-4.1191,-4.1191,-4.1191,-4.1191,-4.1191,-4.1133,-4.0918,-4.0312,-3.9824,-3.9629,-3.8809,-3.8281,-3.8281,-3.6875,-3.5996,-3.5996,-3.5996,-3.5996,-3.5996,-3.5996,-3.5996,-3.5996,-3.5996,-3.5996,-3.5996,-3.5996,-3.5996,-3.5996,-3.5996,-3.5996,-2.0942,-2.2139,-2.3394,-2.3394,-2.3105,-2.2682,-2.2197,0.0,0.0,0.0,0.0,0.0,0.0,0.0,0.0,0.0,0.0,0.0,0.0,0.0,0.0,0.0,0.0,0.0,0.0,0.0,0.0,0.0,0.0,0.0,0.0,0.0,-4.1021,-4.1021,-4.1021,-4.1078,-4.1191,-4.1191,-4.1191,-4.1191,-4.1191,-4.1171,-4.1105,-4.1171,0.0,0.0,0.0,0.0,-4.1191,-4.1191,-4.1191,-4.1191,-4.1191,-4.1191,-4.1191,-4.1191,-4.1191,-4.1191,-4.1191,-4.1191,-4.1191,-4.1191,-4.1191,-4.1191,-4.1191,-4.1191,-4.1191,-4.1191,-4.1191,-4.1191,-4.1191,-4.1191,-4.1191,-4.1191,-4.1191,-4.1191,-4.1191,-4.1191,-4.1191,-4.1191,-4.1191,-4.1191,-4.1191,-4.1191,-4.1191,-4.1191,-4.1191,-4.1191,-4.1191,-4.0781,-4.0508,-4.0508,-3.9726,-3.9199,-3.9199,-3.7969,-3.7012,-3.6621,-3.6211,-3.5996,-3.5996,-3.5996,-3.5996,-3.5996,-3.5996,-3.5996,-3.5996,-3.5996,-3.5996,-3.5996,-3.5996,-3.5996,-2.0442,-2.2162,-2.3841,-2.3586,-2.3163,-2.2778,-2.2624,0.0,0.0,0.0,0.0,0.0,0.0,0.0,0.0,0.0,0.0,0.0,0.0,0.0,0.0,0.0,0.0,0.0,0.0,0.0,0.0,0.0,0.0,0.0,0.0,0.0,0.0,-4.0797,-4.0797,-4.0911,-4.1148,-4.1149,-4.1149,-4.1149,-4.1149,-4.108,-4.0964,-4.1081,-4.1078,0.0,0.0,0.0,-4.1149,-4.1151,-4.1171,-4.1171,-4.1171,-4.1171,-4.1171,-4.1171,-4.1171,-4.1171,-4.1191,-4.1191,-4.1191,-4.1191,-4.1191,-4.1191,-4.1191,-4.1191,-4.1191,-4.1191,-4.1191,-4.1191,-4.1191,-4.1191,-4.1191,-4.1191,-4.1191,-4.1191,-4.1191,-4.1191,-4.1191,-4.1191,-4.1191,-4.1191,-4.1191,-4.1191,-4.1191,-4.1191,-4.1191,-4.1191,-4.1191,-4.1191,-4.1191,-4.1191,-4.0547,-4.0098,-4.0098,-3.9297,-3.8476,-3.7734,-3.6758,-3.6133,-3.6016,-3.5996,-3.5996,-3.5996,-3.5996,-3.5996,-3.5996,-3.5996,-3.5996,-3.5996,-3.5996,-3.5996,-2.1135,-2.2139,-2.2663,-2.1235,-2.185,-2.2605,-2.187,0.0,0.0,0.0,0.0,0.0,0.0,0.0,0.0,0.0,0.0,0.0,0.0,0.0,0.0,0.0,0.0,0.0,0.0,0.0,0.0,0.0,0.0,0.0,0.0,0.0,0.0,-4.0797,-4.0797,-4.0813,-4.0864,-4.0864,-4.0864,-4.0864,-4.0864,-4.0857,-4.0824,-4.0857,-4.0854,0.0,0.0,-4.0864,-4.087,-4.099,-4.1026,-4.1026,-4.1026,-4.1026,-4.1026,-4.1026,-4.1026,-4.1051,-4.1151,-4.1191,-4.1191,-4.1191,-4.1191,-4.1191,-4.1191,-4.1191,-4.1191,-4.1191,-4.1191,-4.1191,-4.1191,-4.1191,-4.1191,-4.1191,-4.1191,-4.1191,-4.1191,-4.1191,-4.1191,-4.1191,-4.1191,-4.1191,-4.1191,-4.1191,-4.1191,-4.1191,-4.1191,-4.1191,-4.1191,-4.1191,-4.1191,-4.1191,-4.1074,-4.0996,-4.0996,-4.0195,-3.9648,-3.9512,-3.7988,-3.6777,-3.6035,-3.5996,-3.5996,-3.5996,-3.5996,-3.5996,-3.5996,-3.5996,-3.5996,-3.5996,-3.5996,-3.5996,-2.075,-2.1812,-2.2509,-2.1254,-2.2235,-2.3394,-2.3009,0.0,0.0,0.0,0.0,0.0,0.0,0.0,0.0,0.0,0.0,0.0,0.0,0.0,0.0,0.0,0.0,0.0,0.0,0.0,0.0,0.0,0.0,0.0,0.0,0.0,0.0,0.0,-4.0647,-4.0647,-4.0647,-4.0647,-4.0687,-4.0797,-4.0797,-4.0788,-4.0742,-4.0773,-4.0784,-4.0742,0.0,-4.0797,-4.0801,-4.0867,-4.0883,-4.0883,-4.0883,-4.0883,-4.0883,-4.0883,-4.0883,-4.0908,-4.0959,-4.099,-4.099,-4.099,-4.099,-4.099,-4.099,-4.099,-4.0996,-4.1077,-4.1149,-4.1191,-4.1191,-4.1191,-4.1191,-4.1191,-4.1191,-4.1191,-4.1191,-4.1191,-4.1191,-4.1191,-4.1191,-4.1191,-4.1191,-4.1191,-4.1191,-4.1191,-4.1191,-4.1191,-4.1191,-4.1191,-4.1191,-4.1191,-4.1191,-4.1191,-4.1191,-4.082,-4.0195,-3.9258,-3.8457,-3.7812,-3.7422,-3.6953,-3.6699,-3.6699,-3.623,-3.5996,-3.5996,-3.5996,-3.5996,-3.5996,-3.5996,-3.5996,-2.0827,-2.1812,-2.2682,-2.2216,0.0,-2.4375,-2.4375,0.0,0.0,0.0,0.0,0.0,0.0,0.0,0.0,0.0,0.0,0.0,0.0,0.0,0.0,0.0,0.0,0.0,0.0,0.0,0.0,0.0,0.0,0.0,0.0,0.0,0.0,0.0,-4.0496,-4.0496,-4.0496,-4.0496,-4.0584,-4.0738,-4.0738,-4.0701,-4.0649,-4.0707,-4.0701,-4.0649,-4.0712,-4.0738,-4.0738,-4.0766,-4.0779,-4.0779,-4.0779,-4.0779,-4.0779,-4.0779,-4.0796,-4.0797,-4.0797,-4.0797,-4.0797,-4.0797,-4.0797,-4.0836,-4.1031,-4.1108,-4.1163,-4.1482,-4.1647,-4.1672,-4.1523,-4.1621,-4.1738,-4.1523,-4.1484,-4.1484,-4.1484,-4.1328,-4.1328,-4.1719,-4.1465,-4.1328,-4.1719,-4.1621,-4.1484,-4.1484,-4.1484,-4.1406,-4.1211,-4.1191,-4.1191,-4.1191,-4.1191,-4.1191,-4.1191,-4.1191,-4.0625,-3.9297,-3.9023,-3.8809,-3.8613,-3.7969,-3.7598,-3.7598,-3.6953,-3.6504,-3.6309,-3.6309,-3.6191,-3.5996,-3.5996,-3.5996,-2.2393,-2.272,-2.299,-2.3725,-2.4562,0.0,-2.5212,-2.5788,0.0,-2.7376,0.0,0.0,0.0,0.0,0.0,0.0,0.0,0.0,0.0,0.0,0.0,0.0,0.0,0.0,0.0,0.0,0.0,0.0,0.0,0.0,0.0,0.0,0.0,0.0,0.0,-4.0496,-4.0496,-4.0496,-4.0512,-4.0523,-4.0523,-4.0515,-4.0519,-4.0515,-4.0508,-4.0519,-4.0515,-4.0523,-4.053,-4.0655,-4.0715,-4.0715,-4.0715,-4.0715,-4.0715,-4.0715,-4.0742,-4.0797,-4.0797,-4.0797,-4.0797,-4.0797,-4.0797,-4.0953,-4.1766,-4.2019,-4.2174,-4.2996,-4.3233,-4.3107,-4.2475,-4.291,-4.332,-4.2519,-4.2305,-4.2305,-4.2305,-4.1738,-4.166,-4.3223,-4.2266,-4.1699,-4.3242,-4.2851,-4.2305,-4.2305,-4.2305,-4.2031,-4.1308,-4.1191,-4.1191,-4.1191,-4.1191,-4.1191,-4.1191,-4.1191,-4.1152,-4.1016,-4.0254,-3.9434,-3.8633,-3.8535,-3.8516,-3.8516,-3.8437,-3.8008,-3.7207,-3.7207,-3.6797,-3.5996,-3.5996,-3.5996,-2.1908,-2.2389,-2.2874,-2.3201,-2.4293,0.0,0.0,-2.6774,-2.764,0.0,0.0,0.0,0.0,0.0,0.0,0.0,0.0,0.0,0.0,0.0,0.0,0.0,0.0,0.0,0.0,0.0,0.0,0.0,0.0,0.0,0.0,0.0,0.0,0.0,0.0,-4.0496,-4.0496,-4.0496,-4.0496,-4.0496,-4.0496,-4.0496,-4.0496,-4.0496,-4.0496,-4.0496,-4.0496,-4.0496,-4.0504,-4.0552,-4.0581,-4.0581,-4.0581,-4.0581,-4.0581,-4.0581,-4.059,-4.0604,-4.0604,-4.0604,-4.0604,-4.0604,-4.0991,-4.1487,-4.1815,-4.2299,-4.2802,-4.3172,-4.3666,-4.3948,-4.3316,-4.3381,-4.3562,-4.3281,-4.3203,-4.3203,-4.3203,-4.2969,-4.2949,-4.3574,-4.3183,-4.2969,-4.3594,-4.3437,-4.3203,-4.3203,-4.3203,-4.3105,-4.2793,-4.2285,-4.1953,-4.1953,-4.1504,-4.1191,-4.1191,-4.1191,-4.1191,-4.1191,-4.0898,-4.0566,-4.0234,-3.9707,-3.9414,-3.9414,-3.8887,-3.8437,-3.8105,-3.8105,-3.7949,-3.7617,-3.7617,-3.7617,-2.1658,-2.2331,-2.3201,-2.3201,0.0,0.0,-2.714,-2.7852,-2.8588,0.0,0.0,0.0,0.0,0.0,0.0,0.0,0.0,0.0,0.0,0.0,0.0,0.0,0.0,0.0,0.0,0.0,0.0,0.0,0.0,0.0,0.0,0.0,0.0,0.0,0.0,0.0,-4.0496,-4.0496,-4.0496,-4.0496,-4.0496,-4.0496,-4.0496,-4.0496,-4.0496,-4.0496,-4.0496,-4.0496,-4.0496,-4.0496,-4.0496,-4.0496,-4.0496,-4.0496,-4.0496,-4.0496,-4.0496,-4.0496,-4.0496,-4.0496,-4.0496,-4.0496,-4.0893,-4.1489,-4.2047,-4.2624,-4.3214,-4.3808,-4.4392,-4.4757,-4.4385,-4.4316,-4.427,-4.4076,-4.4032,-4.4058,-4.4058,-4.3866,-4.3867,-4.4414,-4.4082,-4.3867,-4.4433,-4.4297,-4.4101,-4.4101,-4.4101,-4.4004,-4.373,-4.3183,-4.2715,-4.2422,-4.1914,-4.1484,-4.1211,-4.1191,-4.1191,-4.1191,-4.1191,-4.1191,-4.1191,-4.0625,-4.0312,-4.0312,-3.9726,-3.9297,-3.9004,-3.9004,-3.8867,-3.8594,-3.8594,-3.8594,-2.1966,-2.2759,-2.4091,0.0,0.0,0.0,0.0,-2.9127,0.0,0.0,0.0,0.0,0.0,0.0,0.0,0.0,0.0,0.0,0.0,0.0,0.0,0.0,0.0,0.0,0.0,0.0,0.0,0.0,0.0,0.0,0.0,0.0,0.0,0.0,0.0,0.0,-4.0496,-4.0496,-4.0496,-4.0496,-4.0496,-4.0496,-4.0496,-4.0496,-4.0496,-4.0496,-4.0496,-4.0496,-4.0496,-4.0496,-4.0496,-4.0496,-4.0496,-4.0496,-4.0496,-4.0496,-4.0496,-4.0496,-4.0496,-4.0496,-4.0496,-4.0496,-4.0516,-4.0823,-4.2566,-4.3104,-4.3451,-4.5114,-4.5594,-4.5627,-4.5775,-4.5839,-4.5704,-4.4902,-4.4764,-4.4818,-4.4818,-4.4247,-4.4238,-4.5957,-4.4902,-4.4277,-4.5996,-4.5586,-4.5019,-4.5019,-4.5019,-4.4707,-4.3828,-4.3711,-4.3379,-4.2519,-4.2402,-4.207,-4.1289,-4.1191,-4.1191,-4.1191,-4.1191,-4.1191,-4.1191,-4.1191,-4.1191,-4.1191,-4.1191,-4.0781,-3.9902,-3.9902,-3.9473,-3.8613,-3.8613,-3.8613,-2.1119,-2.1889,0.0,0.0,0.0,0.0,0.0,0.0,0.0,0.0,0.0,0.0,0.0,0.0,0.0,0.0,0.0,0.0,0.0,0.0,0.0,0.0,0.0,0.0,0.0,0.0,0.0,0.0,0.0,0.0,0.0,0.0,0.0,0.0,0.0,0.0,-4.0496,-4.0496,-4.0496,-4.0496,-4.0496,-4.0496,-4.0496,-4.0496,-4.0496,-4.0496,-4.0496,-4.0496,-4.0496,-4.0496,-4.0496,-4.0496,-4.0496,-4.0496,-4.0496,-4.0496,-4.0496,-4.0496,-4.0496,-4.0496,-4.0496,-4.0496,-4.0912,-4.1508,-4.2027,-4.3008,-4.4061,-4.466,-4.5276,-4.5754,-4.579,-4.5839,-4.584,-4.5607,-4.5554,-4.5595,-4.5689,-4.5462,-4.5437,-4.6046,-4.574,-4.5545,-4.6072,-4.6012,-4.5918,-4.5918,-4.5918,-4.5605,-4.4726,-4.4609,-4.4277,-4.3418,-4.2773,-4.2305,-4.2051,-4.1523,-4.1191,-4.1191,-4.1191,-4.1191,-4.1191,-4.1191,-4.1191,-4.1191,-4.1191,-4.1074,-4.0801,-4.0801,-4.0684,-4.043,-4.043,-4.043,-2.1562,0.0,0.0,0.0,0.0,0.0,0.0,0.0,0.0,0.0,0.0,0.0,0.0,0.0,0.0,0.0,0.0,0.0,0.0,0.0,0.0,0.0,0.0,0.0,0.0,0.0,0.0,0.0,0.0,0.0,0.0,0.0,0.0,0.0,0.0,0.0,-4.0015,-4.0342,-4.0496,-4.0496,-4.0496,-4.0496,-4.0496,-4.0496,-4.0496,-4.0496,-4.0496,-4.0496,-4.0496,-4.0496,-4.0496,-4.0496,-4.0496,-4.0496,-4.0496,-4.0496,-4.0496,-4.0496,-4.0496,-4.0496,-4.0496,-4.0496,-4.0854,-4.1354,-4.1692,-4.2758,-4.3907,-4.4302,-4.5054,-4.573,-4.573,-4.5783,-4.5861,-4.5861,-4.5923,-4.5988,-4.6005,-4.5995,-4.5988,-4.6024,-4.6027,-4.6027,-4.6027,-4.6122,-4.6223,-4.6223,-4.6268,-4.6113,-4.5586,-4.5527,-4.5176,-4.4316,-4.375,-4.3144,-4.2461,-4.1953,-4.1543,-4.1211,-4.1191,-4.1191,-4.1191,-4.1191,-4.1191,-4.1191,-4.1191,-4.1191,-4.1191,-4.1191,-4.1191,-4.1191,-4.1191,-4.1191,0.0,0.0,0.0,0.0,0.0,0.0,0.0,0.0,0.0,0.0,0.0,0.0,0.0,0.0,0.0,0.0,0.0,0.0,0.0,0.0,0.0,0.0,0.0,0.0,0.0,0.0,0.0,0.0,0.0,0.0,0.0,0.0,0.0,0.0,0.0,0.0,-3.9188,-3.9996,-4.04,0.0,-4.0458,-4.0496,-4.0496,-4.0496,-4.0496,-4.0496,-4.0496,-4.0496,-4.0496,-4.0496,-4.0496,-4.0496,-4.0496,-4.0496,-4.0496,-4.0496,-4.0496,-4.0496,-4.0496,-4.0496,-4.0496,-4.0496,-4.0496,-4.065,-4.145,-4.2354,-4.3247,-4.3995,-4.487,-4.562,-4.562,-4.5703,-4.5822,-4.5803,-4.5933,-4.6045,-4.5924,-4.5988,-4.6033,-4.5903,-4.5885,-4.5885,-4.5885,-4.5992,-4.6082,-4.6082,-4.6196,-4.6268,-4.6268,-4.6268,-4.5956,-4.5174,-4.5019,-4.4335,-4.2753,-4.2558,-4.2168,-4.1367,-4.1308,-4.1289,-4.1191,-4.1191,-4.1191,-4.1191,-4.1191,-4.1191,-4.1191,-4.1191,-4.1191,-4.1191,-4.1191,-4.1191,0.0,0.0,0.0,0.0,0.0,0.0,0.0,0.0,0.0,0.0,0.0,0.0,0.0,0.0,0.0,0.0,0.0,0.0,0.0,0.0,0.0,0.0,0.0,0.0,0.0,0.0,0.0,0.0,0.0,0.0,0.0,0.0,0.0,0.0,0.0,-3.7584,-3.8277,-3.913,-3.9554,0.0,-4.0208,-4.0496,-4.0496,-4.0496,-4.0496,-4.0496,-4.0496,-4.0496,-4.0496,-4.0496,-4.0496,-4.0496,-4.0496,-4.0496,-4.0496,-4.0496,-4.0496,-4.0496,-4.0496,-4.0496,-4.0496,-4.0496,-4.0496,-4.0535,-4.0727,-4.1873,-4.3145,-4.3361,-4.4562,-4.5761,-4.5761,-4.5813,-4.5871,-4.5815,-4.5866,-4.5948,-4.5907,-4.5881,-4.5856,-4.582,-4.5814,-4.5814,-4.5814,-4.5896,-4.5936,-4.5936,-4.5974,-4.5988,-4.5988,-4.5988,-4.5907,-4.5732,-4.518,-4.4699,-4.4328,-4.3745,-4.3047,-4.2207,-4.2148,-4.1855,-4.123,-4.1191,-4.1191,-4.1191,-4.1191,-4.1191,-4.1191,-4.1191,-4.1191,-4.1191,-4.1191,-4.1191,0.0,0.0,0.0,0.0,0.0,0.0,0.0,0.0,0.0,0.0,0.0,0.0,0.0,0.0,0.0,0.0,0.0,0.0,0.0,0.0,0.0,0.0,0.0,0.0,0.0,0.0,0.0,0.0,0.0,0.0,0.0,0.0,0.0,0.0,-3.65,-3.6923,-3.7373,-3.8238,-3.8681,-3.8681,-3.9534,-4.0131,-4.0496,-4.0496,-4.0496,-4.0496,-4.0496,-4.0496,-4.0496,-4.0496,-4.0496,-4.0496,-4.0496,-4.0496,-4.0496,-4.0496,-4.0496,-4.0496,-4.0496,-4.0496,-4.0496,-4.0496,-4.0496,-4.0496,-4.0496,-4.1431,-4.2571,-4.3014,-4.4085,-4.5186,-4.5611,-4.5783,-4.5847,-4.5803,-4.5845,-4.5885,-4.5861,-4.582,-4.5776,-4.5723,-4.57,-4.57,-4.57,-4.5783,-4.5871,-4.589,-4.5899,-4.5899,-4.5899,-4.5899,-4.5899,-4.5899,-4.5558,-4.5176,-4.4787,-4.4392,-4.3806,-4.2926,-4.2949,-4.2782,-4.2372,-4.1971,-4.1582,-4.1211,-4.1191,-4.1191,-4.1191,-4.1191,-4.1191,-4.1191,-4.1191,-4.1191,0.0,0.0,0.0,0.0,0.0,0.0,0.0,0.0,0.0,0.0,0.0,0.0,0.0,0.0,0.0,0.0,0.0,0.0,0.0,0.0,0.0,0.0,0.0,0.0,0.0,0.0,0.0,0.0,0.0,0.0,0.0,0.0,-3.55,-3.55,-3.6154,-3.6481,-3.6481,-3.7353,-3.7777,-3.7796,-3.8661,-3.9496,-4.0285,-4.0285,-4.0362,-4.0496,-4.0496,-4.0496,-4.0496,-4.0496,-4.0496,-4.0496,-4.0496,-4.0496,-4.0496,-4.0496,-4.0496,-4.0496,-4.0496,-4.0496,-4.0496,-4.0496,-4.0496,-4.0496,-4.0496,-4.12,-4.2181,-4.2893,-4.3797,-4.4682,-4.5421,-4.5688,-4.5775,-4.5775,-4.5807,-4.585,-4.5803,-4.5803,-4.5768,-4.5637,-4.5594,-4.5594,-4.5594,-4.5685,-4.5783,-4.5836,-4.5857,-4.5857,-4.5857,-4.5857,-4.5857,-4.5857,-4.5877,-4.5614,-4.4948,-4.4908,-4.4548,-4.3683,-4.3728,-4.3726,-4.357,-4.293,-4.2182,-4.1362,-4.1249,-4.1191,-4.1191,-4.1191,-4.1191,-4.1191,-4.1191,-4.1191,0.0,0.0,0.0,0.0,0.0,0.0,0.0,0.0,0.0,0.0,0.0,0.0,0.0,0.0,0.0,0.0,0.0,0.0,0.0,0.0,0.0,0.0,0.0,0.0,0.0,0.0,0.0,0.0,0.0,0.0,0.0,-3.55,-3.55,-3.55,-3.5596,-3.5654,-3.5654,-3.6462,-3.6865,-3.6885,-3.7757,-3.8623,-3.9457,-3.9457,-3.9842,-4.0496,-4.0496,-4.0496,-4.0496,-4.0496,-4.0496,-4.0496,-4.0496,-4.0496,-4.0496,-4.0496,-4.0496,-4.0496,-4.0496,-4.0496,-4.0496,-4.0496,-4.0496,-4.0496,-4.0496,-4.1643,-4.2951,-4.3066,-4.422,-4.546,-4.5575,-4.5612,-4.5637,-4.5637,-4.5624,-4.5669,-4.5769,-4.5803,-4.5768,-4.5637,-4.5594,-4.5594,-4.5594,-4.562,-4.5627,-4.564,-4.564,-4.564,-4.564,-4.564,-4.564,-4.564,-4.5742,-4.5776,-4.5654,-4.5721,-4.5389,-4.4587,-4.4541,-4.4218,-4.3451,-4.3312,-4.2852,-4.1999,-4.1469,-4.1191,-4.1191,-4.1191,-4.1191,-4.1191,-4.1191,-4.1191,0.0,0.0,0.0,0.0,0.0,0.0,0.0,0.0,0.0,0.0,0.0,0.0,0.0,0.0,0.0,0.0,0.0,0.0,0.0,0.0,0.0,0.0,0.0,0.0,0.0,0.0,0.0,0.0,0.0,0.0,-3.55,-3.55,-3.55,-3.55,-3.55,-3.55,-3.55,-3.5846,-3.625,-3.6692,-3.7084,-3.7988,-3.9304,-3.9304,-3.9746,-4.0496,-4.0496,-4.0496,-4.0496,-4.0496,-4.0496,-4.0496,-4.0496,-4.0496,-4.0496,-4.0496,-4.0496,-4.0496,-4.0496,-4.0496,-4.0496,-4.0496,-4.0496,-4.0496,-4.0496,-4.1373,-4.247,-4.297,-4.3951,-4.4979,-4.5479,-4.5594,-4.5594,-4.5594,-4.5594,-4.562,-4.568,-4.5696,-4.5673,-4.5612,-4.5594,-4.5594,-4.5594,-4.5594,-4.5594,-4.5594,-4.5594,-4.5594,-4.5594,-4.5594,-4.5594,-4.5594,-4.564,-4.5696,-4.5696,-4.5701,-4.5569,-4.5233,-4.5265,-4.5138,-4.4769,-4.4351,-4.394,-4.3556,-4.241,-4.1587,-4.1082,-4.1151,-4.1191,-4.1191,-4.1191,-4.1191,0.0,0.0,0.0,0.0,0.0,0.0,0.0,0.0,0.0,0.0,0.0,0.0,0.0,0.0,0.0,0.0,0.0,0.0,0.0,0.0,0.0,0.0,0.0,0.0,0.0,0.0,0.0,0.0,0.0,0.0,-3.55,-3.55,-3.55,-3.55,-3.55,-3.55,-3.55,-3.55,-3.5808,-3.6404,-3.6404,-3.718,-3.8642,-3.8873,-3.9419,-4.0208,-4.0419,-4.0496,-4.0496,-4.0496,-4.0496,-4.0496,-4.0496,-4.0496,-4.0496,-4.0496,-4.0496,-4.0496,-4.0496,-4.0496,-4.0496,-4.0496,-4.0496,-4.0496,-4.0496,-4.1258,-4.2277,-4.2912,-4.3835,-4.4778,-4.5441,-4.5594,-4.5594,-4.5594,-4.5594,-4.5594,-4.5594,-4.5594,-4.5594,-4.5594,-4.5594,-4.5594,-4.5594,-4.5594,-4.5594,-4.5594,-4.5594,-4.5594,-4.5594,-4.5594,-4.5594,-4.5594,-4.5594,-4.5594,-4.5594,-4.5594,-4.5594,-4.5594,-4.5685,-4.5747,-4.5747,-4.5227,-4.4819,-4.4605,-4.3245,-4.2117,-4.1284,-4.1168,-4.1103,-4.1103,-4.1103,-4.1126,0.0,0.0,0.0,0.0,0.0,0.0,0.0,0.0,0.0,0.0,0.0,0.0,0.0,0.0,0.0,0.0,0.0,0.0,0.0,0.0,0.0,0.0,0.0,0.0,0.0,0.0,0.0,0.0,0.0,0.0,-3.55,-3.55,-3.55,-3.55,-3.55,-3.55,-3.55,-3.55,-3.5519,-3.5558,-3.5558,-3.6,-3.6865,-3.77,-3.8546,-3.94,-4.0169,-4.0496,-4.0496,-4.0496,-4.0496,-4.0496,-4.0496,-4.0496,-4.0496,-4.0496,-4.0496,-4.0496,-4.0496,-4.0496,-4.0496,-4.0496,-4.0496,-4.0496,-4.0496,-4.1681,-4.3047,-4.3085,-4.4259,-4.5537,-4.5594,-4.5594,-4.5594,-4.5594,-4.5594,-4.5594,-4.5594,-4.5594,-4.5594,-4.5594,-4.5594,-4.5594,-4.5594,-4.5594,-4.5594,-4.5594,-4.5594,-4.5594,-4.5594,-4.5594,-4.5594,-4.5594,-4.5594,-4.5594,-4.5594,-4.5594,-4.5594,-4.5594,-4.5603,-4.5612,-4.5612,-4.5563,-4.5167,-4.4331,-4.3555,-4.2798,-4.2046,-4.1217,-4.0816,-4.0816,-4.0816,-4.088,0.0,0.0,0.0,0.0,0.0,0.0,0.0,0.0,0.0,0.0,0.0,0.0,0.0,0.0,0.0,0.0,0.0,0.0,0.0,0.0,0.0,0.0,0.0,0.0,0.0,0.0,0.0,0.0,0.0,0.0,-3.55,-3.55,-3.55,-3.55,-3.55,-3.55,-3.55,-3.55,-3.55,-3.55,-3.55,-3.5923,-3.6712,-3.7019,-3.795,-3.9323,-3.9611,-4.0015,-4.0496,-4.0496,-4.0496,-4.0496,-4.0496,-4.0496,-4.0496,-4.0496,-4.0496,-4.0496,-4.0496,-4.0496,-4.0496,-4.0496,-4.0496,-4.0593,-4.1162,-4.2162,-4.3201,-4.372,-4.4701,-4.5594,-4.5594,-4.5594,-4.5594,-4.5594,-4.5594,-4.5594,-4.5594,-4.5594,-4.5594,-4.5594,-4.5594,-4.5594,-4.5594,-4.5594,-4.5594,-4.5594,-4.5594,-4.5594,-4.5594,-4.5594,-4.5594,-4.5594,-4.5594,-4.5594,-4.5594,-4.5594,-4.5594,-4.5594,-4.5594,-4.5594,-4.5594,-4.5594,-4.546,-4.5152,-4.4333,-4.3283,-4.2031,-4.1207,-4.0797,-4.0797,-4.0797,-4.0839,-1.7295,0.0,0.0,0.0,0.0,0.0,0.0,0.0,0.0,0.0,0.0,0.0,0.0,0.0,0.0,0.0,0.0,0.0,0.0,0.0,0.0,0.0,0.0,0.0,0.0,0.0,0.0,0.0,0.0,0.0,-3.55,-3.55,-3.55,-3.55,-3.55,-3.55,-3.55,-3.55,-3.55,-3.55,-3.55,-3.5788,-3.6308,-3.6577,-3.7334,-3.845,-3.9053,-3.9765,-4.0496,-4.0496,-4.0496,-4.0496,-4.0496,-4.0496,-4.0496,-4.0496,-4.0496,-4.0496,-4.0496,-4.0496,-4.0496,-4.0496,-4.0496,-4.0669,-4.1546,-4.2412,-4.3278,-4.4066,-4.494,-4.5594,-4.5594,-4.5594,-4.5594,-4.5594,-4.5594,-4.5594,-4.5594,-4.5594,-4.5594,-4.5594,-4.5594,-4.5594,-4.5594,-4.5594,-4.5594,-4.5594,-4.5594,-4.5594,-4.5594,-4.5594,-4.5594,-4.5594,-4.5594,-4.5594,-4.5594,-4.5594,-4.5594,-4.5594,-4.5594,-4.5594,-4.5594,-4.5594,-4.5594,-4.5594,-4.4739,-4.3651,-4.2368,-4.1534,-4.0983,-4.0698,-4.0698,-4.0723,0.0,0.0,0.0,0.0,0.0,0.0,0.0,0.0,0.0,0.0,0.0,0.0,0.0,0.0,0.0,0.0,0.0,0.0,0.0,0.0,0.0,0.0,0.0,0.0,0.0,0.0,0.0,0.0,0.0,-3.5462,-3.55,-3.55,-3.55,-3.55,-3.55,-3.55,-3.55,-3.55,-3.55,-3.55,-3.55,-3.55,-3.5538,-3.6308,-3.6673,-3.6788,-3.8488,-3.9708,-4.0477,-4.0496,-4.0496,-4.0496,-4.0496,-4.0496,-4.0496,-4.0496,-4.0496,-4.0496,-4.0496,-4.0496,-4.0496,-4.0496,-4.0496,-4.0669,-4.1566,-4.2431,-4.3278,-4.4105,-4.496,-4.5594,-4.5594,-4.5594,-4.5594,-4.5594,-4.5594,-4.5594,-4.5594,-4.5594,-4.5594,-4.5594,-4.5594,-4.5594,-4.5594,-4.5594,-4.5594,-4.5594,-4.5594,-4.5594,-4.5594,-4.5594,-4.5594,-4.5594,-4.5594,-4.5594,-4.5594,-4.5594,-4.5594,-4.5594,-4.5594,-4.5594,-4.5594,-4.5594,-4.5594,-4.5594,-4.4759,-4.3932,-4.3104,-4.2239,-4.1354,-4.0496,-4.0496,-4.0574,-1.7372,0.0,0.0,0.0,0.0,0.0,0.0,0.0,0.0,0.0,0.0,0.0,0.0,0.0,0.0,0.0,0.0,0.0,0.0,0.0,0.0,0.0,0.0,0.0,0.0,0.0,0.0,0.0,-3.4564,-3.4834,-3.5462,-3.55,-3.55,-3.55,-3.55,-3.55,-3.55,-3.55,-3.55,-3.55,-3.55,-3.55,-3.5519,-3.5731,-3.6154,-3.6731,-3.7219,-3.8257,-3.9688,-4.0265,-4.0496,-4.0496,-4.0496,-4.0496,-4.0496,-4.0496,-4.0496,-4.0496,-4.0496,-4.0496,-4.0496,-4.0496,-4.0496,-4.0785,-4.2277,-4.2912,-4.3393,-4.4844,-4.5421,-4.5594,-4.5594,-4.5594,-4.5594,-4.5594,-4.5594,-4.5594,-4.5594,-4.5594,-4.5594,-4.5594,-4.5594,-4.5594,-4.5594,-4.5594,-4.5594,-4.5594,-4.5594,-4.5594,-4.5594,-4.5594,-4.5594,-4.5594,-4.5594,-4.5594,-4.5594,-4.5594,-4.5594,-4.5594,-4.5594,-4.5594,-4.5594,-4.5594,-4.5594,-4.5594,-4.5364,-4.4528,-4.3104,-4.2239,-4.1354,-4.0496,-4.0496,-4.0527,-1.822,0.0,0.0,0.0,0.0,0.0,0.0,0.0,0.0,0.0,0.0,0.0,0.0,0.0,0.0,0.0,0.0,0.0,0.0,0.0,0.0,0.0,0.0,0.0,0.0,0.0,0.0,0.0,-3.366,-3.4045,-3.4911,-3.4968,-3.5115,-3.5481,-3.55,-3.55,-3.55,-3.55,-3.55,-3.55,-3.55,-3.55,-3.55,-3.55,-3.575,-3.6231,-3.6942,-3.7815,-3.8854,-4.0015,-4.0496,-4.0496,-4.0496,-4.0496,-4.0496,-4.0496,-4.0496,-4.0496,-4.0496,-4.0496,-4.0496,-4.0496,-4.0496,-4.0823,-4.2566,-4.3104,-4.3451,-4.5133,-4.5594,-4.5594,-4.5594,-4.5594,-4.5594,-4.5594,-4.5594,-4.5594,-4.5594,-4.5594,-4.5594,-4.5594,-4.5594,-4.5594,-4.5594,-4.5594,-4.5594,-4.5594,-4.5594,-4.5594,-4.5594,-4.5594,-4.5594,-4.5594,-4.5594,-4.5594,-4.5594,-4.5594,-4.5594,-4.5594,-4.5594,-4.5594,-4.5594,-4.5594,-4.5594,-4.5594,-4.5594,-4.4786,-4.3104,-4.2585,-4.17,-4.0496,-4.0496,-4.0496,-1.9288,-2.0001,0.0,0.0,0.0,0.0,-2.2581,-2.2568,0.0,0.0,0.0,0.0,0.0,0.0,0.0,0.0,0.0,0.0,0.0,0.0,0.0,0.0,0.0,0.0,0.0,0.0,-3.1891,-3.2718,-3.2852,-3.3237,-3.4013,-3.4071,-3.4449,-3.5327,-3.5365,-3.5404,-3.55,-3.55,-3.55,-3.55,-3.55,-3.55,-3.55,-3.55,-3.55,-3.5577,-3.7084,-3.7834,-3.8123,-3.9611,-4.0323,-4.0496,-4.0496,-4.0496,-4.0496,-4.0496,-4.0496,-4.0496,-4.0496,-4.0496,-4.0496,-4.0496,-4.0496,-4.0804,-4.245,-4.3028,-4.3451,-4.5133,-4.5594,-4.5594,-4.5594,-4.5594,-4.5594,-4.5594,-4.5594,-4.5594,-4.5594,-4.5594,-4.5594,-4.5594,-4.5594,-4.5594,-4.5594,-4.5594,-4.5594,-4.5594,-4.5594,-4.5594,-4.5594,-4.5594,-4.5594,-4.5594,-4.5594,-4.5594,-4.5594,-4.5594,-4.5594,-4.5594,-4.5594,-4.5594,-4.5594,-4.5594,-4.5594,-4.5594,-4.5498,-4.469,-4.3104,-4.3008,-4.2104,-4.0496,-4.0496,-4.0496,-2.1399,-2.1718,-2.18,0.0,0.0,0.0,0.0,-2.0611,0.0,0.0,0.0,0.0,0.0,0.0,0.0,0.0,0.0,0.0,0.0,0.0,0.0,0.0,0.0,0.0,0.0,0.0,-3.1,-3.1872,-3.2526,-3.2968,-3.3141,-3.3141,-3.3545,-3.443,-3.4449,-3.4795,-3.5481,-3.55,-3.55,-3.55,-3.55,-3.55,-3.55,-3.55,-3.55,-3.5519,-3.5846,-3.675,-3.8027,-3.8354,-3.9277,-4.0496,-4.0496,-4.0496,-4.0496,-4.0496,-4.0496,-4.0496,-4.0496,-4.0496,-4.0496,-4.0496,-4.0496,-4.0689,-4.1739,-4.2547,-4.3451,-4.5133,-4.5594,-4.5594,-4.5594,-4.5594,-4.5594,-4.5594,-4.5594,-4.5594,-4.5594,-4.5594,-4.5594,-4.5594,-4.5594,-4.5594,-4.5594,-4.5594,-4.5594,-4.5594,-4.5594,-4.5594,-4.5594,-4.5594,-4.5594,-4.5594,-4.5594,-4.5594,-4.5594,-4.5594,-4.5594,-4.5594,-4.5594,-4.5594,-4.5594,-4.5594,-4.5594,-4.5594,-4.4913,-4.4066,-4.3104,-4.2412,-4.1527,-4.0496,-4.0496,-4.0496,-2.2596,-2.2901,-2.2994,-2.2202,0.0,0.0,0.0,0.0,0.0,0.0,0.0,0.0,0.0,0.0,0.0,0.0,0.0,0.0,0.0,0.0,0.0,0.0,0.0,0.0,0.0,0.0,-2.9834,-3.0777,-3.1224,-3.1705,-3.2269,-3.2295,-3.2699,-3.3526,-3.3975,-3.4417,-3.4853,-3.5269,-3.55,-3.55,-3.55,-3.55,-3.55,-3.55,-3.55,-3.5519,-3.5923,-3.6577,-3.743,-3.8296,-3.915,-3.9938,-4.0342,-4.0496,-4.0496,-4.0496,-4.0496,-4.0496,-4.0496,-4.0496,-4.0496,-4.0496,-4.0496,-4.0669,-4.1546,-4.2701,-4.3951,-4.5248,-4.5594,-4.5594,-4.5594,-4.5594,-4.5594,-4.5594,-4.5594,-4.5594,-4.5594,-4.5594,-4.5594,-4.5594,-4.5594,-4.5594,-4.5594,-4.5594,-4.5594,-4.5594,-4.5594,-4.5594,-4.5594,-4.5594,-4.5594,-4.5594,-4.5594,-4.5594,-4.5594,-4.5594,-4.5594,-4.5594,-4.5594,-4.5594,-4.5594,-4.5594,-4.5594,-4.5594,-4.5171,-4.4335,-4.3104,-4.2662,-4.1777,-4.0496,-4.0496,-4.0496,0.0,0.0,0.0,0.0,0.0,-2.3336,0.0,0.0,0.0,0.0,0.0,0.0,0.0,0.0,0.0,0.0,0.0,0.0,0.0,0.0,0.0,0.0,0.0,0.0,0.0,0.0,-2.8498,-2.9623,-2.9591,-3.0065,-3.1316,-3.143,-3.1814,-3.2641,-3.3506,-3.4032,-3.4205,-3.5064,-3.55,-3.55,-3.55,-3.55,-3.55,-3.55,-3.55,-3.5538,-3.6192,-3.6558,-3.6827,-3.8392,-3.915,-3.9381,-4.0189,-4.0496,-4.0496,-4.0496,-4.0496,-4.0496,-4.0496,-4.0496,-4.0496,-4.0496,-4.0496,-4.0689,-4.1739,-4.3008,-4.4278,-4.5306,-4.5594,-4.5594,-4.5594,-4.5594,-4.5594,-4.5594,-4.5594,-4.5594,-4.5594,-4.5594,-4.5594,-4.5594,-4.5594,-4.5594,-4.5594,-4.5594,-4.5594,-4.5594,-4.5594,-4.5594,-4.5594,-4.5594,-4.5594,-4.5594,-4.5594,-4.5594,-4.5594,-4.5594,-4.5594,-4.5594,-4.5594,-4.5594,-4.5594,-4.5594,-4.5594,-4.5594,-4.5594,-4.4863,-4.3335,-4.3181,-4.22,-4.0496,-4.0496,-4.0496,0.0,0.0,0.0,0.0,-2.4061,0.0,0.0,0.0,0.0,0.0,0.0,0.0,0.0,0.0,0.0,0.0,0.0,0.0,0.0,0.0,0.0,0.0,0.0,0.0,0.0,0.0,0.0,-2.8553,-2.8172,-2.8554,-3.0118,-3.042,-3.0942,-3.1814,-3.2622,-3.341,-3.4186,-3.5064,-3.55,-3.55,-3.55,-3.55,-3.55,-3.55,-3.55,-3.5519,-3.5596,-3.6038,-3.6769,-3.7757,-3.8604,-3.9381,-4.0189,-4.0496,-4.0496,-4.0496,-4.0496,-4.0496,-4.0496,-4.0496,-4.0496,-4.0496,-4.0496,-4.0804,-4.245,-4.3085,-4.3566,-4.5152,-4.5594,-4.5594,-4.5594,-4.5594,-4.5594,-4.5594,-4.5594,-4.5594,-4.5594,-4.5594,-4.5594,-4.5594,-4.5594,-4.5594,-4.5594,-4.5594,-4.5594,-4.5594,-4.5594,-4.5594,-4.5594,-4.5594,-4.5594,-4.5594,-4.5594,-4.5594,-4.5594,-4.5594,-4.5594,-4.5594,-4.5594,-4.5594,-4.5594,-4.5594,-4.5594,-4.5594,-4.5594,-4.5133,-4.4162,-4.3451,-4.22,-4.0496,-4.0496,-4.0496,0.0,0.0,0.0,0.0,0.0,0.0,0.0,0.0,-2.3043,0.0,0.0,0.0,0.0,0.0,0.0,0.0,0.0,0.0,0.0,0.0,0.0,0.0,0.0,0.0,0.0,0.0,0.0,0.0,0.0,-2.744,-2.9208,-2.9519,-3.0044,-3.0923,-3.1756,-3.2602,-3.343,-3.4314,-3.5007,-3.55,-3.55,-3.55,-3.55,-3.55,-3.55,-3.55,-3.55,-3.5692,-3.6115,-3.745,-3.8219,-3.8681,-3.9996,-4.0496,-4.0496,-4.0496,-4.0496,-4.0496,-4.0496,-4.0496,-4.0496,-4.0496,-4.0496,-4.0823,-4.2566,-4.3104,-4.3451,-4.5133,-4.5594,-4.5594,-4.5594,-4.5594,-4.5594,-4.5594,-4.5594,-4.5594,-4.5594,-4.5594,-4.5594,-4.5594,-4.5594,-4.5594,-4.5594,-4.5594,-4.5594,-4.5594,-4.5594,-4.5594,-4.5594,-4.5594,-4.5594,-4.5594,-4.5594,-4.5594,-4.5594,-4.5594,-4.5594,-4.5594,-4.5594,-4.5594,-4.5594,-4.5594,-4.5594,-4.5594,-4.5594,-4.5171,-4.4297,-4.3951,-4.2912,-4.1239,-4.0746,-4.0496,-2.4593,0.0,0.0,0.0,0.0,0.0,0.0,0.0,0.0,0.0,0.0,0.0,0.0,0.0,0.0,0.0,0.0,0.0,0.0,0.0,0.0,0.0,0.0,0.0,0.0,0.0,0.0,0.0,0.0,0.0,-2.8241,-2.8835,-2.939,-3.0019,-3.1121,-3.2083,-3.2891,-3.3763,-3.4641,-3.55,-3.55,-3.55,-3.55,-3.55,-3.55,-3.55,-3.55,-3.55,-3.5635,-3.7315,-3.8007,-3.8161,-3.9861,-4.0496,-4.0496,-4.0496,-4.0496,-4.0496,-4.0496,-4.0496,-4.0496,-4.0496,-4.0669,-4.1143,-4.2643,-4.3258,-4.372,-4.519,-4.5594,-4.5594,-4.5594,-4.5594,-4.5594,-4.5594,-4.5594,-4.5594,-4.5594,-4.5594,-4.5594,-4.5594,-4.5594,-4.5594,-4.5594,-4.5594,-4.5594,-4.5594,-4.5594,-4.5594,-4.5594,-4.5594,-4.5594,-4.5594,-4.5594,-4.5594,-4.5594,-4.5594,-4.5594,-4.5594,-4.5594,-4.5594,-4.5594,-4.5594,-4.5594,-4.5594,-4.5594,-4.5287,-4.4662,-4.4412,-4.3566,-4.2143,-4.1258,-4.0727,0.0,0.0,0.0,-2.4593,0.0,0.0,0.0,0.0,-2.5117,0.0,0.0,0.0,0.0,0.0,0.0,0.0,0.0,0.0,0.0,0.0,0.0,0.0,0.0,0.0,0.0,0.0,0.0,0.0,0.0,0.0,-2.7118,-2.8441,-2.9107,-2.9146,-3.0814,-3.2083,-3.2891,-3.3763,-3.4641,-3.55,-3.55,-3.55,-3.55,-3.55,-3.55,-3.55,-3.55,-3.55,-3.5635,-3.7315,-3.8007,-3.8161,-3.9861,-4.0496,-4.0496,-4.0496,-4.0496,-4.0496,-4.0496,-4.0496,-4.0496,-4.0496,-4.1066,-4.1923,-4.2835,-4.3643,-4.4451,-4.5344,-4.5594,-4.5594,-4.5594,-4.5594,-4.5594,-4.5594,-4.5594,-4.5594,-4.5594,-4.5594,-4.5594,-4.5594,-4.5594,-4.5594,-4.5594,-4.5594,-4.5594,-4.5594,-4.5594,-4.5594,-4.5594,-4.5594,-4.5594,-4.5594,-4.5594,-4.5594,-4.5594,-4.5594,-4.5594,-4.5594,-4.5594,-4.5594,-4.5594,-4.5594,-4.5594,-4.5594,-4.5594,-4.5594,-4.5556,-4.4701,-4.3874,-4.3047,-4.2162,-4.1316,0.0,0.0,-2.6998,-2.5393,0.0,0.0,0.0,0.0,0.0,0.0,0.0,0.0,0.0,0.0,0.0,0.0,0.0,0.0,0.0,0.0,0.0,0.0,0.0,0.0,0.0,0.0,0.0,0.0,0.0,0.0,0.0,-2.7244,-2.8106,-2.8684,-2.9916,-3.1259,-3.269,-3.3127,-3.4064,-3.55,-3.55,-3.55,-3.55,-3.55,-3.55,-3.55,-3.55,-3.5808,-3.6385,-3.7526,-3.8334,-3.8969,-4.0073,-4.0496,-4.0496,-4.0496,-4.0496,-4.0496,-4.0496,-4.0496,-4.0593,-4.1162,-4.1566,-4.2058,-4.347,-4.4085,-4.447,-4.5344,-4.5594,-4.5594,-4.5594,-4.5594,-4.5594,-4.5594,-4.5594,-4.5594,-4.5594,-4.5594,-4.5594,-4.5594,-4.5594,-4.5594,-4.5594,-4.5594,-4.5594,-4.5594,-4.5594,-4.5594,-4.5594,-4.5594,-4.5594,-4.5594,-4.5594,-4.5594,-4.5594,-4.5594,-4.5594,-4.5594,-4.5594,-4.5594,-4.5594,-4.5594,-4.5594,-4.5594,-4.5594,-4.5594,-4.5594,-4.5306,-4.472,-4.3874,-4.3047,-4.1873,-2.7108,-2.7622,0.0,-2.6237,-2.6429,0.0,-2.4989,0.0,0.0,0.0,0.0,0.0,0.0,0.0,0.0,0.0,0.0,0.0,0.0,0.0,0.0,0.0,0.0,0.0,0.0,0.0,-2.2171,-2.3336,-2.2799,0.0,0.0,0.0,-2.7458,-2.8021,-2.93,-3.0833,-3.2573,-3.2793,-3.3776,-3.55,-3.55,-3.55,-3.55,-3.55,-3.55,-3.55,-3.55,-3.5962,-3.6769,-3.7642,-3.8507,-3.9381,-4.0189,-4.0496,-4.0496,-4.0496,-4.0496,-4.0496,-4.0496,-4.0496,-4.065,-4.1527,-4.2,-4.2527,-4.3893,-4.4509,-4.4874,-4.5441,-4.5594,-4.5594,-4.5594,-4.5594,-4.5594,-4.5594,-4.5594,-4.5594,-4.5594,-4.5594,-4.5594,-4.5594,-4.5594,-4.5594,-4.5594,-4.5594,-4.5594,-4.5594,-4.5594,-4.5594,-4.5594,-4.5594,-4.5594,-4.5594,-4.5594,-4.5594,-4.5594,-4.5594,-4.5594,-4.5594,-4.5594,-4.5594,-4.5594,-4.5594,-4.5594,-4.5594,-4.5594,-4.5594,-4.5594,-4.5594,-4.5152,-4.4278,-4.347,-4.2335]},{"header":{"parameterUnit":"m.s-1","parameterCategory":1,"la1":30.6,"la2":29.2853,"lo1":-89.7004,"lo2":-87.6739,"dy":0.0162,"dx":0.0183,"nx":112,"ny":82,"refTime":"2026-03-08T00:00:00:Z","depth":0,"parameterNumber":3,"parameterNumberName":"V-component_of_WINDS"},"data":[0.0,0.0,0.0,0.0,0.0,0.0,0.0,0.0,0.0,0.0,0.0,0.0,0.0,0.0,0.0,0.0,0.0,0.0,0.0,0.0,0.0,0.0,0.0,0.0,0.0,0.0,0.0,0.0,0.0,0.0,0.0,0.0,0.0,0.0,0.0,0.0,0.0,0.0,0.0,0.0,0.0,0.0,0.0,0.0,0.0,0.0,0.0,0.0,0.0,0.0,0.0,0.0,0.0,0.0,0.0,0.0,0.0,0.0,0.0,0.0,0.0,0.0,0.0,0.0,0.0,0.0,0.0,0.0,0.0,0.0,0.0,0.0,0.0,0.0,0.0,0.0,0.0,0.0,0.0,0.0,0.0,0.0,0.0,0.0,0.0,0.0,0.0,0.0,0.0,0.0,0.0,-0.0536,-0.0272,-0.0112,0.0,0.0,-0.0106,-0.0316,0.0,0.0,0.0,0.0,0.0,0.0,0.0,0.0,0.0,0.0,0.0,0.0,0.0,0.0,0.0,0.0,0.0,0.0,0.0,0.0,0.0,0.0,0.0,0.0,0.0,0.0,0.0,0.0,0.0,0.0,0.0,0.0,0.0,0.0,0.0,0.0,0.0,0.0,0.0,0.0,0.0,0.0,0.0,0.0,0.0,0.0,0.0,0.0,0.0,0.0,0.0,0.0,0.0,0.0,0.0,0.0,0.0,0.0,0.0,0.0,0.0,0.0,0.0,0.0,0.0,0.0,0.0,0.0,0.0,0.0,0.0,0.0,0.0,0.0,0.0,0.0,0.0,0.0,0.0,0.0,0.0,0.0,0.0,0.0,0.0,0.0,0.0,0.0,0.0,0.0,0.0,0.0,0.0,0.0,0.0,0.0,0.0,0.0,0.0,0.0,0.0,0.0,0.0,0.0,-0.1464,-0.0888,-0.078,-0.056,-0.0045,0.0,-0.0021,-0.0058,0.0,0.0,0.0,0.0,0.0,0.0,0.0,0.0,0.0,0.0,0.0,0.0,0.0,0.0,0.0,0.0,0.0,0.0,0.0,0.0,0.0,0.0,0.0,0.0,0.0,0.0,0.0,0.0,0.0,0.0,0.0,0.0,0.0,0.0,0.0,0.0,0.0,0.0,0.0,0.0,0.0,0.0,0.0,0.0,0.0,0.0,0.0,0.0,0.0,0.0,0.0,0.0,0.0,0.0,0.0,0.0,0.0,0.0,0.0,0.0,0.0,0.0,0.0,0.0,0.0,0.0,0.0,0.0,0.0,0.0,0.0,0.0,0.0,0.0,0.0,0.0,0.0,0.0,0.0,0.0,0.0,0.0,0.0,0.0,0.0,0.0,0.0,0.0,0.0,0.0,0.0,0.0,0.0,0.0,0.0,0.0,0.0,0.0,0.0,0.0,0.0,0.0,0.0,-0.1647,-0.1485,-0.1408,-0.1391,-0.114,-0.0538,-0.0485,-0.0338,-0.002,-0.0107,0.0,0.0,0.0,0.0,0.0,0.0,0.0,0.0,0.0,0.0,0.0,0.0,0.0,0.0,0.0,0.0,0.0,0.0,0.0,0.0,0.0,0.0,0.0,0.0,0.0,0.0,0.0,0.0,0.0,0.0,0.0,0.0,0.0,0.0,0.0,0.0,0.0,0.0,0.0,0.0,0.0,0.0,0.0,0.0,0.0,0.0,0.0,0.0,0.0,0.0,0.0,0.0,0.0,0.0,0.0,0.0,0.0,0.0,0.0,0.0,0.0,0.0,0.0,0.0,0.0,0.0,0.0,0.0,0.0,0.0,0.0,0.0,0.0,0.0,0.0,0.0,0.0,0.0,0.0,0.0,0.0,0.0,0.0,0.0,0.0,0.0,0.0,0.0,0.0,0.0,0.0,0.0,0.0,0.0,0.0,0.0,0.0,0.0,0.0,0.0,0.0,0.0,-0.1906,-0.1808,-0.1981,-0.2008,-0.1719,-0.0962,-0.09,-0.0652,-0.0039,0.0,0.0,0.0,0.0,0.0,0.0,0.0,0.0,0.0,0.0,0.0,0.0,0.0,0.0,0.0,0.0,0.0,0.0,0.0,0.0,0.0,0.0,0.0,0.0,0.0,0.0,0.0,0.0,0.0,0.0,0.0,0.0,0.0,0.0,0.0,0.0,0.0,0.0,0.0,0.0,0.0,0.0,0.0,0.0,0.0,0.0,0.0,0.0,0.0,0.0,0.0,0.0,0.0,0.0,0.0,0.0,0.0,0.0,0.0,0.0,0.0,0.0,0.0,0.0,0.0,0.0,0.0,0.0,0.0,0.0,0.0,0.0,0.0,0.0,0.0,0.0,0.0,0.0,0.0,0.0,0.0,0.0,0.0,0.0,0.0,0.0,0.0,0.0,0.0,0.0,0.0,0.0,0.0,0.0,0.0,0.0,0.0,0.0,0.0,0.0,0.0,0.0,0.0,-0.2843,-0.288,-0.2671,-0.263,-0.2162,-0.1006,-0.0892,-0.0638,-0.0037,0.0,0.0,0.0,0.0,0.0,0.0,0.0,0.0,0.0,0.0,0.0,0.0,0.0,0.0,0.0,0.0,0.0,0.0,0.0,0.0,0.0,0.0,0.0,0.0,0.0,0.0,0.0,0.0,0.0,0.0,0.0,0.0,0.0,0.0,0.0,0.0,0.0,0.0,0.0,0.0,0.0,0.0,0.0,0.0,0.0,0.0,0.0,0.0,0.0,0.0,0.0,0.0,0.0,0.0,0.0,0.0,0.0,0.0,0.0,0.0,0.0,0.0,0.0,0.0,0.0,0.0,0.0,0.0,0.0,0.0,0.0,0.0,0.0,0.0,0.0,0.0,0.0,0.0,0.0,0.0,0.0,0.0,0.0,0.0,0.0,0.0,0.0,0.0,0.0,0.0,0.0,0.0,0.0,0.0,0.0,0.0,0.0,0.0,0.0,0.0,0.0,0.0,0.0,-0.2862,-0.304,0.0,-0.3262,-0.2923,-0.2095,-0.1668,-0.1204,-0.0602,0.0,0.0,0.0,0.0,0.0,0.0,0.0,0.0,0.0,0.0,0.0,0.0,0.0,0.0,0.0,0.0,0.0,0.0,0.0,0.0,0.0,0.0,0.0,0.0,0.0,0.0,0.0,0.0,0.0,0.0,0.0,0.0,0.0,0.0,0.0,0.0,0.0,0.0,0.0,0.0,0.0,0.0,0.0,0.0,0.0,0.0,0.0,0.0,0.0,0.0,0.0,0.0,0.0,0.0,0.0,0.0,0.0,0.0,0.0,0.0,0.0,0.0,0.0,0.0,0.0,0.0,0.0,0.0,0.0,0.0,0.0,0.0,0.0,0.0,0.0,0.0,0.0,0.0,0.0,0.0,0.0,0.0,0.0,0.0,0.0,0.0,0.0,0.0,0.0,0.0,0.0,0.0,0.0,0.0,0.0,0.0,0.0,0.0,0.0,0.0,0.0,0.0,-0.2645,-0.2852,-0.313,0.0,-0.3604,-0.335,-0.2741,-0.2153,-0.1549,-0.0943,0.0,0.0,0.0,0.0,0.0,0.0,0.0,0.0,0.0,0.0,0.0,0.0,0.0,0.0,0.0,0.0,0.0,0.0,0.0,0.0,0.0,0.0,0.0,0.0,0.0,0.0,0.0,0.0,0.0,0.0,0.0,0.0,0.0,0.0,0.0,0.0,0.0,0.0,0.0,0.0,0.0,0.0,0.0,0.0,0.0,0.0,0.0,0.0,0.0,0.0,0.0,0.0,0.0,0.0,0.0,0.0,0.0,0.0,0.0,0.0,0.0,0.0,0.0,0.0,0.0,0.0,0.0,0.0,0.0,0.0,0.0,0.0,0.0,0.0,0.0,0.0,0.0,0.0,0.0,0.0,0.0,0.0,0.0,0.0,0.0,0.0,0.0,0.0,0.0,0.0,0.0,0.0,0.0,0.0,0.0,0.0,0.0,0.0,0.0,0.0,0.0,0.0,-0.2658,-0.2937,-0.3219,-0.357,-0.3604,-0.335,-0.2763,-0.2155,-0.1549,0.0,0.0,0.0,0.0,0.0,0.0,0.0,0.0,0.0,0.0,0.0,0.0,0.0,0.0,0.0,0.0,0.0,0.0,0.0,0.0,0.0,0.0,0.0,0.0,0.0,0.0,0.0,0.0,0.0,0.0,0.0,0.0,0.0,0.0,0.0,0.0,0.0,0.0,0.0,0.0,0.0,0.0,0.0,0.0,0.0,0.0,0.0,0.0,0.0,0.0,0.0,0.0,0.0,0.0,0.0,0.0,0.0,0.0,0.0,0.0,0.0,0.0,0.0,0.0,0.0,0.0,0.0,0.0,0.0,0.0,0.0,0.0,0.0,0.0,0.0,0.0,0.0,0.0,0.0,0.0,0.0,0.0,0.0,0.0,0.0,0.0,0.0,0.0,0.0,0.0,0.0,0.0,0.0,0.0,0.0,0.0,0.0,0.0,0.0,0.0,0.0,0.0,0.0,-0.2658,-0.2937,-0.3219,-0.357,-0.3604,-0.3534,-0.335,-0.2402,-0.1733,-0.1552,0.0,0.0,0.0,0.0,0.0,0.0,0.0,0.0,0.0,0.0,0.0,0.0,0.0,0.0,0.0,0.0,0.0,0.0,0.0,0.0,0.0,0.0,0.0,0.0,0.0,0.0,0.0,0.0,0.0,0.0,0.0,0.0,0.0,0.0,0.0,0.0,0.0,0.0,0.0,0.0,0.0,0.0,0.0,0.0,0.0,0.0,0.0,0.0,0.0,0.0,0.0,0.0,0.0,0.0,0.0,0.0,0.0,0.0,0.0,0.0,0.0,0.0,0.0,0.0,0.0,0.0,0.0,0.0,0.0,0.0,0.0,0.0,0.0,0.0,0.0,0.0,0.0,0.0,0.0,0.0,0.0,0.0,0.0,0.0,0.0,0.0,0.0,0.0,0.0,0.0,0.0,0.0,0.0,0.0,0.0,0.0,0.0,0.0,0.0,0.0,0.0,0.0,-0.2669,-0.2973,-0.3286,-0.3576,-0.3604,-0.3604,-0.3604,-0.2657,-0.2002,-0.1806,0.0,0.0,0.0,0.0,0.0,0.0,0.0,0.0,0.0,0.0,0.0,0.0,0.0,0.0,0.0,0.0,0.0,0.0,0.0,0.0,0.0,0.0,0.0,0.0,0.0,0.0,0.0,0.0,0.0,0.0,0.0,0.0,0.0,0.0,0.0,0.0,0.0,0.0,0.0,0.0,0.0,0.0,0.0,0.0,0.0,0.0,0.0,0.0,0.0,0.0,0.0,0.0,0.0,0.0,0.0,0.0,0.0,0.0,0.0,0.0,0.0,0.0,0.0,0.0,0.0,0.0,0.0,0.0,0.0,0.0,0.0,0.0,0.0,0.0,0.0,0.0,0.0,0.0,0.0,0.0,0.0,0.0,0.0,0.0,0.0,0.0,0.0,0.0,0.0,0.0,0.0,0.0,0.0,0.0,0.0,0.0,0.0,0.0,0.0,0.0,0.0,0.0,-0.2696,-0.306,-0.3387,-0.3587,-0.3604,-0.3604,-0.3604,-0.2941,-0.2304,-0.1839,0.0,0.0,0.0,0.0,0.0,0.0,0.0,0.0,0.0,0.0,0.0,0.0,0.0,0.0,0.0,0.0,0.0,0.0,0.0,0.0,0.0,0.0,0.0,0.0,0.0,0.0,0.0,0.0,0.0,0.0,0.0,0.0,0.0,0.0,0.0,0.0,0.0,0.0,0.0,0.0,0.0,0.0,0.0,0.0,0.0,0.0,0.0,0.0,0.0,0.0,0.0,0.0,0.0,0.0,0.0,0.0,0.0,0.0,0.0,0.0,0.0,0.0,0.0,0.0,0.0,0.0,0.0,0.0,0.0,0.0,0.0,0.0,0.0,0.0,0.0,0.0,0.0,0.0,0.0,0.0,0.0,0.0,0.0,0.0,0.0,0.0,0.0,0.0,0.0,0.0,0.0,0.0,0.0,0.0,0.0,0.0,0.0,0.0,0.0,0.0,0.0,0.0,-0.2825,-0.3108,-0.3387,-0.3587,-0.3604,-0.3604,-0.3604,-0.3028,-0.2403,-0.1835,0.0,0.0,0.0,0.0,0.0,0.0,0.0,0.0,0.0,0.0,0.0,0.0,0.0,0.0,0.0,0.0,0.0,0.0,0.0,0.0,0.0,0.0,0.0,0.0,0.0,0.0,0.0,0.0,0.0,0.0,0.0,0.0,0.0,0.0,0.0,0.0,0.0,0.0,0.0,0.0,0.0,0.0,0.0,0.0,0.0,0.0,0.0,0.0,0.0,0.0,0.0,0.0,0.0,0.0,0.0,0.0,0.0,0.0,0.0,0.0,0.0,0.0,0.0,0.0,0.0,0.0,0.0,0.0,0.0,0.0,0.0,0.0,0.0,0.0,0.0,0.0,0.0,0.0,0.0,0.0,0.0,0.0,0.0,0.0,0.0,0.0,0.0,0.0,0.0,0.0,0.0,0.0,0.0,0.0,0.0,0.0,0.0,0.0,0.0,0.0,0.0,0.0,-0.2879,-0.3212,-0.349,-0.3593,-0.3604,-0.3604,-0.3604,-0.2988,-0.2382,-0.1834,-0.1179,0.0,0.0,0.0,0.0,0.0,0.0,0.0,0.0,0.0,0.0,0.0,0.0,0.0,0.0,0.0,0.0,0.0,0.0,0.0,0.0,0.0,0.0,0.0,0.0,0.0,0.0,0.0,0.0,0.0,0.0,0.0,0.0,0.0,0.0,0.0,0.0,0.0,0.0,0.0,0.0,0.0,0.0,0.0,0.0,0.0,0.0,0.0,0.0,0.0,0.0,0.0,0.0,0.0,0.0,0.0,0.0,0.0,0.0,0.0,0.0,-0.0072,-0.024,0.0,0.0,0.0,0.0,0.0,0.0,0.0,0.0,0.0,0.0,0.0,0.0,0.0,0.0,0.0,0.0,0.0,0.0,0.0,0.0,0.0,0.0,0.0,0.0,0.0,-0.363,-0.3619,0.0,0.0,0.0,0.0,0.0,0.0,0.0,0.0,0.0,0.0,0.0,0.0,-0.2998,-0.3371,-0.3638,-0.3638,-0.3638,-0.3628,-0.3604,-0.2942,-0.2326,-0.184,-0.1127,-0.052,0.0,0.0,0.0,0.0,0.0,0.0,0.0,0.0,0.0,0.0,0.0,0.0,0.0,0.0,0.0,0.0,0.0,0.0,0.0,0.0,0.0,0.0,0.0,0.0,0.0,0.0,0.0,0.0,0.0,0.0,0.0,0.0,0.0,0.0,0.0,0.0,0.0,0.0,0.0,0.0,0.0,0.0,0.0,0.0,0.0,0.0,0.0,0.0,0.0,0.0,0.0,0.0,0.0,0.0,0.0,0.0,0.0,0.0,0.0,0.0,-0.0973,-0.105,0.0,0.0,0.0,0.0,0.0,0.0,0.0,0.0,0.0,0.0,0.0,0.0,0.0,0.0,0.0,0.0,0.0,0.0,0.0,0.0,0.0,0.0,-0.4046,-0.3937,-0.3937,-0.3921,0.0,-0.3324,-0.2968,-0.2672,0.0,0.0,0.0,0.0,0.0,0.0,0.0,0.0,-0.346,-0.3672,-0.3765,-0.3765,-0.3765,-0.3737,-0.3614,-0.3042,-0.243,-0.1827,-0.1224,-0.0607,-0.0017,0.0,0.0,0.0,0.0,0.0,0.0,0.0,0.0,0.0,0.0,0.0,0.0,0.0,0.0,0.0,0.0,0.0,0.0,0.0,0.0,0.0,0.0,0.0,0.0,0.0,0.0,0.0,0.0,0.0,0.0,0.0079,0.0,0.0,0.0,0.0,0.0,0.0,0.0,0.0,0.0,0.0,0.0,0.0,0.0,0.0,0.0,0.0,0.0,0.0,0.0,0.0,0.0,0.0,0.0,0.0,0.0,-0.0031,-0.0517,-0.1179,-0.1859,-0.1674,-0.1875,-0.2368,0.0,0.0,0.0,0.0,0.0,-0.3724,-0.3897,-0.3886,0.0,0.0,0.0,0.0,0.0,0.0,0.0,0.0,0.0,0.0,0.0,0.0,0.0,-0.4139,-0.4209,-0.4229,-0.4055,-0.3869,-0.3593,0.0,-0.3042,-0.2929,-0.2658,0.0,0.0,0.0,0.0,0.0,-0.3566,-0.3778,-0.3921,-0.3921,-0.3921,-0.386,-0.3733,-0.284,-0.2156,-0.1826,-0.0918,-0.028,-0.0019,0.0,0.0,0.0,0.0,0.0,0.0,0.0,0.0,0.0,0.0,0.0,0.0,0.0,0.0,0.0,0.0,0.0,0.0,0.0,0.0,0.0,0.0,0.0,0.0,0.0,0.0,0.0,0.0,0.0,0.0,0.0,0.0,0.0,0.0,0.0,0.0,0.0,0.0,0.0,0.0,0.0,0.0,0.0,0.0,0.0,0.0,0.0,0.0,0.0,0.0,0.0,0.0,0.0,0.0,0.0,0.0,-0.0032,-0.0688,-0.1308,-0.1887,-0.2288,-0.2489,-0.2639,-0.3632,-0.3959,-0.3843,-0.3948,-0.3986,-0.3995,-0.42,-0.4277,-0.4257,-0.4168,0.0,-0.3816,-0.3591,0.0,0.0,0.0,0.0,-0.3917,-0.3979,0.0,-0.4277,-0.4277,-0.4385,-0.446,-0.4301,-0.4277,-0.4122,0.0,-0.3533,-0.3399,-0.3041,0.0,0.0,0.0,0.0,-0.3512,-0.3727,-0.3917,-0.4051,-0.4051,-0.4051,-0.3991,-0.3863,-0.2718,-0.1968,-0.1863,-0.0678,0.0,0.0,0.0,0.0,0.0,0.0,0.0,0.0,0.0,0.0,0.0,0.0,0.0,0.0,0.0,0.0,0.0,0.0,0.0,0.0,0.0,0.0,0.0,0.0,0.0,0.0,0.0,0.0,0.0,0.0,0.0,0.0,0.0,0.0,0.0,0.0,0.0,0.0,0.0,0.0,0.0,0.0,0.0,0.0,0.0,0.0,0.0,0.0,0.0,0.0,0.0,0.0,0.0,0.0,0.0,0.0,0.0,0.0,0.0,-0.0033,-0.0097,-0.0321,-0.2724,-0.4044,-0.4567,-0.4618,-0.458,-0.4447,-0.4453,-0.4457,-0.4457,-0.4474,-0.4481,-0.4477,-0.447,-0.4243,-0.4008,-0.4113,-0.3974,0.0,0.0,-0.4167,-0.423,-0.4419,-0.4467,-0.4481,-0.4481,-0.4484,-0.4487,-0.4481,-0.4481,-0.4385,0.0,-0.387,-0.3761,-0.3741,0.0,-0.3604,-0.3717,-0.3754,-0.3877,-0.4123,-0.4174,-0.4184,-0.4184,-0.4184,-0.4149,-0.3998,-0.2762,-0.1993,-0.1989,-0.0731,0.0,0.0,0.0,0.0,0.0,0.0,0.0,0.0,0.0,0.0,0.0,0.0,0.0,0.0,0.0,0.0,0.0,0.0,0.0,0.0,0.0,0.0,0.0,0.0,0.0,0.0,0.0,0.0,0.0,0.0,0.0,0.0,0.0,0.0,0.0,0.0,0.0,0.0,0.0,0.0,0.0,0.0,0.0,0.0,0.0,0.0,0.0,0.0,0.0,0.0,0.0,0.0,0.0,0.0,0.0,0.0,0.0,0.0,-0.0034,-0.0599,-0.0827,-0.0958,-0.2481,-0.2811,-0.2417,-0.2899,-0.306,-0.3027,-0.3027,-0.3414,-0.3921,-0.3921,-0.4277,-0.4755,-0.4755,-0.4619,-0.446,-0.4514,-0.4389,-0.4272,-0.4355,-0.4385,-0.4399,-0.4477,-0.4491,-0.4491,-0.4491,-0.4491,-0.4491,-0.4491,-0.4491,-0.4457,-0.4351,-0.4185,-0.4031,-0.3955,-0.3897,-0.3846,-0.3799,-0.3958,-0.4099,-0.418,-0.4301,-0.4192,-0.367,-0.3615,-0.3377,-0.2767,-0.1915,-0.1392,-0.1309,-0.0482,0.0,0.0,0.0,0.0,0.0,0.0,0.0,0.0,0.0,0.0,0.0,0.0,0.0,0.0,0.0,0.0,0.0,0.0,0.0,0.0,0.0,0.0,0.0,0.0,0.0,0.0,0.0,0.0,0.0,0.0,0.0,0.0,0.0,0.0,0.0,0.0,0.0,0.0,0.0,0.0,0.0,0.0,0.0,0.0,0.0,0.0,0.0,0.0,0.0,0.0,0.0,0.0,0.0,0.0,0.0,0.0,0.0,0.0,-0.0034,-0.0605,-0.0873,-0.0906,-0.1543,-0.1378,-0.0825,-0.188,-0.2264,-0.2242,-0.2548,-0.307,-0.3656,-0.3931,-0.4424,-0.4887,-0.4887,-0.485,-0.4769,-0.4769,-0.4697,-0.4644,-0.4644,-0.4644,-0.4634,-0.458,-0.4566,-0.4552,-0.4501,-0.4491,-0.4491,-0.4491,-0.4491,-0.4491,-0.4491,-0.4385,-0.426,-0.4185,-0.4168,-0.4134,-0.4058,-0.4192,-0.4294,-0.4294,-0.4181,-0.3901,-0.3345,-0.3065,-0.2709,-0.2111,-0.1477,-0.1072,-0.0973,-0.037,0.0,0.0,0.0,0.0,0.0,0.0,0.0,0.0,0.0,0.0,0.0,0.0,0.0,0.0,0.0,0.0,0.0,0.0,0.0,0.0,0.0,0.0,0.0,0.0,0.0,0.0,0.0,0.0,0.0,0.0,0.0,0.0,0.0,0.0,0.0,0.0,0.0,0.0,0.0,0.0,0.0,0.0,0.0,0.0,0.0,0.0,0.0,0.0,0.0,0.0,0.0,0.0,0.0,0.0,0.0,0.0,0.0,0.0,0.0,0.0,0.0,0.0,0.0,0.0,-0.0168,-0.1792,-0.2309,-0.2248,-0.3171,-0.3572,-0.3727,-0.4623,-0.4904,-0.4904,-0.4904,-0.4897,-0.4894,-0.4894,-0.4891,-0.4887,-0.4887,-0.4887,-0.4854,-0.4735,-0.4697,-0.466,-0.4539,-0.4501,-0.4498,-0.4498,-0.4494,-0.4491,-0.4491,-0.4491,-0.4491,-0.4491,-0.4491,-0.4491,-0.4491,-0.4491,0.0,-0.4491,-0.379,-0.3287,-0.3259,-0.2619,-0.2147,-0.212,-0.147,-0.1059,-0.1059,-0.0399,0.0,0.0,0.0,0.0,0.0,0.0,0.0,0.0,0.0,0.0,0.0,0.0,0.0,0.0,0.0,0.0,0.0,0.0,0.0,0.0,0.0,0.0,0.0,0.0,0.0,0.0,0.0,0.0,0.0,0.0,0.0,0.0,0.0,0.0,0.0,0.0,0.0,0.0,0.0,0.0,0.0,0.0,0.0,0.0,0.0,0.0,0.0,0.0,0.0,0.0,0.0,0.0,0.0,0.0,0.0,0.0,0.0,0.0,0.0,0.0,0.0,0.0,0.0,0.0,-0.0034,-0.0501,-0.0662,-0.0723,-0.1605,-0.2747,-0.4024,-0.4945,-0.5272,-0.5272,-0.5272,-0.5165,-0.5042,-0.5042,-0.4968,-0.4887,-0.4887,-0.4887,-0.4877,-0.4867,-0.4857,-0.4847,-0.4802,-0.4707,-0.4655,-0.4655,-0.4569,-0.4491,-0.4491,-0.4491,-0.4491,-0.4491,-0.4491,-0.4491,-0.4491,-0.4491,0.0,-0.4491,-0.379,-0.3093,-0.2565,-0.1842,-0.1174,-0.0643,-0.042,-0.0302,0.0,-0.0117,0.0,0.0,0.0,0.0,0.0,0.0,0.0,0.0,0.0,0.0,0.0,0.0,0.0,0.0,0.0,0.0,0.0,0.0,0.0,0.0,0.0,0.0,0.0,0.0,0.0,0.0,0.0,0.0,0.0,0.0,0.0,0.0,0.0,0.0,0.0,0.0,0.0,0.0,0.0,0.0,0.0,0.0,0.0,0.0,0.0,0.0,0.0,0.0,0.0,0.0,0.0,0.0,0.0,0.0,0.0,0.0,0.0,0.0,0.0,0.0,0.0,0.0,0.0,0.0,0.0,0.0,0.0,0.0,0.0,-0.2778,-0.4148,-0.509,-0.5395,-0.5395,-0.5395,-0.5334,-0.5226,-0.5226,-0.5169,-0.5104,-0.5104,-0.5104,-0.5087,-0.4995,-0.4975,-0.4961,-0.4901,-0.485,-0.4785,-0.4785,-0.4667,-0.4586,-0.4586,0.0,0.0,-0.4491,-0.4491,-0.4491,-0.4491,-0.4491,-0.4491,0.0,-0.3539,-0.2676,-0.2259,-0.1257,-0.0476,-0.0028,0.0,0.0,0.0,0.0,0.0,0.0,0.0,0.0,0.0,0.0,0.0,0.0,0.0,0.0,0.0,0.0,0.0,0.0,0.0,0.0,0.0,0.0,0.0,0.0,0.0,0.0,0.0,0.0,0.0,0.0,0.0,0.0,0.0,0.0,0.0,0.0,0.0,0.0,0.0,0.0,0.0,0.0,0.0,0.0,0.0,0.0,0.0,0.0,0.0,0.0,0.0,0.0,0.0,0.0,0.0,0.0,0.0,0.0,0.0,0.0,0.0,0.0,0.0,0.0,0.0,0.0,0.0,0.0,0.0,0.0,-0.0068,-0.034,-0.2097,-0.3276,0.0,0.0,0.0,0.0,-0.5423,-0.5409,-0.5395,-0.5395,-0.5395,-0.5395,-0.5395,-0.5395,-0.5361,-0.5192,-0.5123,-0.5093,-0.4999,-0.4924,-0.4914,-0.4914,-0.4823,-0.4711,-0.4694,-0.461,-0.4511,-0.4494,-0.4491,-0.4491,-0.4491,-0.4491,0.0,-0.4377,-0.3093,-0.2174,-0.2091,0.0,0.0,0.0,0.0,0.0,0.0,0.0,0.0,0.0,0.0,0.0,0.0,0.0,0.0,0.0,0.0,0.0,0.0,0.0,0.0,0.0,0.0,0.0,0.0,0.0,0.0,0.0,0.0,0.0,0.0,0.0,0.0,0.0,0.0,0.0,0.0,0.0,0.0,0.0,0.0,0.0,0.0,0.0,0.0,0.0,0.0,0.0,0.0,0.0,0.0,0.0,0.0,0.0,0.0,0.0,0.0,0.0,0.0,0.0,0.0,0.0,0.0,0.0,0.0,0.0,0.0,0.0,0.0,0.0,0.0,0.0,0.0,0.0,-0.0431,-0.1182,-0.2396,-0.3396,-0.4326,-0.5358,-0.564,-0.5545,-0.5545,-0.5494,-0.5395,-0.5395,-0.5395,0.0,-0.5395,-0.5395,-0.5388,-0.5358,-0.5351,-0.5344,-0.5313,-0.5179,-0.5059,-0.5059,-0.4945,-0.484,-0.4714,-0.4667,-0.4638,-0.4511,-0.4491,-0.4491,-0.4491,-0.4491,-0.4267,-0.3622,-0.276,-0.1981,-0.1368,-0.0532,0.0,0.0,0.0,0.0,0.0,0.0,0.0,0.0,0.0,0.0,0.0,0.0,0.0,0.0,0.0,0.0,0.0,0.0,0.0,0.0,0.0,0.0,0.0,0.0,0.0,0.0,0.0,0.0,0.0,0.0,0.1073,0.017,0.0,0.0,0.0,0.0,0.0,0.0,0.0,0.0,0.0,0.0,0.0,0.0,0.0,0.0,0.0,0.0,0.0,0.0,0.0,0.0,0.0,0.0,0.0,0.0,0.0,0.0,0.0,0.0,0.0,0.0,0.0,0.0,0.0,0.0,0.0,0.0,0.0,0.0,0.0,0.0,-0.0261,-0.0764,-0.1744,-0.2723,-0.3702,-0.4679,-0.5325,-0.5694,-0.5694,-0.5644,-0.5617,-0.5617,-0.5566,-0.5511,-0.5511,-0.5453,-0.5395,-0.5395,-0.5395,-0.5395,-0.5395,-0.5337,-0.5247,-0.5247,-0.5128,-0.4972,-0.4925,-0.4853,-0.4631,-0.4141,-0.4047,-0.4007,-0.3913,-0.3901,-0.3622,-0.2843,-0.212,-0.1507,-0.1146,-0.0448,0.0,0.0,0.0,0.0,0.0,0.0,0.0,0.0,0.0,0.0,0.0,0.0,0.0,0.0,0.0,0.0,0.0,0.0,0.0,0.0,0.0,0.0,0.0,0.0,0.0,0.0,0.0,0.2414,0.1832,0.1381,0.0864,0.0136,0.0,0.0,0.0,0.0,0.0,0.0,0.0,0.0,0.0,0.0,0.0,0.0,0.0,0.0,0.0,0.0,0.0,0.0,0.0,0.0,0.0,0.0,0.0,0.0,0.0,0.0,0.0,0.0,0.0,0.0,0.0,0.0,0.0,0.0,0.0,0.0,0.0,0.0,0.0,0.0,0.0,-0.0111,-0.1034,-0.1918,-0.2764,-0.3683,-0.4549,-0.5222,-0.5222,-0.5351,-0.5476,-0.5476,-0.5544,-0.563,-0.563,-0.5576,-0.5474,-0.5446,-0.544,-0.5433,-0.5402,-0.5395,-0.5395,-0.5395,-0.513,-0.4874,-0.4845,-0.4628,-0.4206,-0.3444,-0.3338,-0.3275,-0.3112,-0.3079,-0.2815,-0.2091,-0.148,-0.1034,-0.0895,-0.0364,0.0,0.0,0.0,0.0,0.0,0.0,0.0,0.0,0.0,0.0,0.0,0.0,0.0,0.0,0.0,0.0,0.0,0.0,0.0,0.3626,0.3317,0.3162,0.3439,0.3381,0.3451,0.0,0.0,0.2725,0.2227,0.157,0.0872,0.0151,0.0,0.0,0.0,0.0,0.0,0.0,0.0,0.0,0.0,0.0,0.0,0.0,0.0,0.0,0.0,0.0,0.0,0.0,0.0,0.0,0.0,0.0,0.0,0.0,0.0,0.0,0.0,0.0,0.0,0.0,0.0,0.0,0.0,0.0,0.0,0.0,0.0,0.0,0.0,0.0,0.0,-0.0117,-0.1166,-0.1632,-0.1903,-0.2868,-0.321,-0.3229,-0.3229,-0.3734,-0.439,-0.439,-0.5033,-0.5779,-0.5779,-0.5766,-0.5725,-0.5596,-0.5562,-0.5566,-0.5426,-0.5395,-0.5395,-0.5395,-0.4743,-0.4098,-0.3961,-0.3296,-0.2696,-0.2407,-0.2358,-0.2359,-0.2313,-0.2329,-0.2063,-0.1312,-0.1146,-0.0838,-0.0196,-0.0056,0.0,0.0,0.0,0.0,0.0,0.0,0.0,0.0,0.0,0.0,0.0,0.0,0.0,0.0,0.0,0.0,0.0,0.0,0.0,0.417,0.3938,0.0,0.0,0.3896,0.3799,0.3713,0.3325,0.2734,0.1751,0.1328,0.0884,0.0126,0.0,0.0,0.0,0.0,0.0,0.0,0.0,0.0,0.0,0.0,0.0,0.0,0.0,0.0,0.0,0.0,0.0,0.0,0.0,0.0,0.0,0.0,0.0,0.0,0.0,0.0,0.0,0.0,0.0,0.0,0.0,0.0,0.0,0.0,0.0,0.0,0.0,0.0,0.0,0.0,0.0,-0.0039,-0.051,-0.1058,-0.1646,-0.2074,-0.2564,-0.3003,-0.3003,-0.3248,-0.3561,-0.3561,-0.3826,-0.4117,-0.4117,-0.4072,-0.3979,-0.3937,-0.3928,-0.39,-0.3831,-0.3839,-0.3823,-0.3828,-0.3513,-0.3234,-0.3162,-0.2861,-0.2427,-0.1782,-0.1692,-0.151,-0.0994,-0.1298,-0.1292,-0.0549,-0.0461,-0.0343,-0.0028,0.0,0.0,0.0,0.0,0.0,0.0,0.0,0.0,0.0,0.0,0.0,0.0,0.0,0.0,0.0,0.0,0.0,0.0,0.0,0.0,0.4389,0.0,0.0,0.4281,0.4311,0.4215,0.3696,0.3266,0.265,0.1693,0.1115,0.0624,0.0097,0.0,0.0,0.0,0.0,0.0,0.0,0.0,0.0,0.0,0.0,0.0,0.0,0.0,0.0,0.0,0.0,0.0,0.0,0.0,0.0,0.0,0.0,0.0,0.0,0.0,0.0,0.0,0.0,0.0,0.0,0.0,0.0,0.0,0.0,0.0,0.0,0.0,0.0,0.0,0.0,0.0,0.0,0.0,-0.051,-0.1176,-0.1176,-0.1644,-0.2228,-0.2228,-0.2462,-0.2696,-0.2696,-0.2818,-0.2971,-0.2971,-0.2894,-0.2813,-0.2756,-0.2752,-0.2734,-0.2698,-0.2715,-0.2702,-0.2717,-0.2484,-0.2303,-0.2303,-0.2122,-0.1743,-0.1074,-0.0958,-0.0718,-0.0098,-0.0449,-0.0592,-0.006,0.0,0.0,0.0,0.0,0.0,0.0,0.0,0.0,0.0,0.0,0.0,0.0,0.0,0.0,0.0,0.0,0.0,0.0,0.0,0.0,0.0,0.0,0.0,0.0,0.0,0.4484,0.4484,0.4597,0.4718,0.481,0.3646,0.2504,0.2456,0.1162,0.0031,0.0,0.0,0.0,0.0,0.0,0.0,0.0,0.0,0.0,0.0,0.0,0.0,0.0,0.0,0.0,0.0,0.0,0.0,0.0,0.0,0.0,0.0,0.0,0.0,0.0,0.0,0.0,0.0,0.0,0.0,0.0,0.0,0.0,0.0,0.0,0.0,0.0,0.0,0.0,0.0,0.0,0.0,0.0,0.0,-0.0039,-0.0039,-0.0039,-0.0079,-0.0079,-0.0079,-0.0784,-0.1645,-0.1645,-0.2306,-0.3081,-0.3081,-0.308,-0.3061,-0.2918,-0.2902,-0.2845,-0.2736,-0.2682,-0.2718,-0.2717,-0.1989,-0.1326,-0.1326,-0.065,-0.0067,-0.0034,-0.0034,-0.0034,0.0,-0.0034,-0.0033,0.0,0.0,0.0,0.0,0.0,0.0,0.0,0.0,0.0,0.0,0.0,0.0,0.0,0.0,0.0,0.0,0.0,0.0,0.0,0.0,0.0,0.0,0.0,0.0,0.0,0.0,0.4539,0.4714,0.4806,0.4726,0.427,0.329,0.2351,0.1798,0.0799,0.0,0.0,0.0,0.0,0.0,0.0,0.0,0.0,0.0,0.0,0.0,0.0,0.0,0.0,0.0,0.0,0.0,0.0,0.0,0.0,0.0,0.0,0.0,0.0,0.0,0.0,0.0,0.0,0.0,0.0,0.0,0.0,0.0,0.0,0.0,0.0,0.0,0.0,0.0,0.0,0.0,0.0,0.0,0.0,0.0,0.0,0.0,0.0,0.0,0.0,0.0,-0.0235,-0.0549,-0.0549,-0.0784,-0.1058,-0.1058,-0.1058,-0.1017,-0.097,-0.0968,-0.0962,-0.0901,-0.0896,-0.0891,-0.0913,-0.065,-0.0431,-0.0431,-0.0211,0.0,0.0,0.0,0.0,0.0,0.0,0.0,0.0,0.0,0.0,0.0,0.0,0.0,0.0,0.0,0.0,0.0,0.0,0.0,0.0,0.0,0.0,0.0,0.0,0.0,0.0,0.0,0.0,0.0,0.0,0.0,0.4545,0.4644,0.4684,0.4904,0.4965,0.4874,0.4464,0.3425,0.2409,0.1896,0.0855,0.0,0.0,0.0,0.0,0.0,0.0,0.0,0.0,0.0,0.0,0.0,0.0,0.0,0.0,0.0,0.0,0.0,0.0,0.0,0.0,0.0,0.0,0.0,0.0,0.0,0.0,0.0,0.0,0.0,0.0,0.0,0.0,0.0,0.0,0.0,0.0,0.0,0.0,0.0,0.0,0.0,0.0,0.0,0.0,0.0,0.0,0.0,0.0,0.0,0.0,0.0,0.0,0.0,0.0,0.0,0.0,0.0,0.0,0.0,0.0,0.0,0.0,0.0,0.0,0.0,0.0,0.0,0.0,0.0,0.0,0.0,0.0,0.0,0.0,0.0,0.0,0.0,0.0,0.0,0.0,0.0,0.0,0.0,0.0,0.0,0.0,0.0,0.0,0.0,0.0,0.0,0.0,0.0,0.0,0.0,0.0,0.0,0.0,0.0,0.0,0.0,0.4556,0.4707,0.4935,0.5073,0.511,0.5179,0.5351,0.3988,0.269,0.2682,0.1254,0.0,0.0,0.0,0.0,0.0,0.0,0.0,0.0,0.0,0.0,0.0,0.0,0.0,0.0,0.0,0.0,0.0,0.0,0.0,0.0,0.0,0.0,0.0,0.0,0.0,0.0,0.0,0.0,0.0,0.0,0.0,0.0,0.0,0.0,0.0,0.0,0.0,0.0,0.0,0.0,0.0,0.0,0.0,0.0,0.0,0.0,0.0,0.0,0.0,0.0,0.0,0.0,0.0,0.0,0.0,0.0,0.0,0.0,0.0,0.0,0.0,0.0,0.0,0.0,0.0,0.0,0.0,0.0,0.0,0.0,0.0,0.0,0.0,0.0,0.0,0.0,0.0,0.0,0.0,0.0,0.0,0.0,0.0,0.0,0.0,0.0,0.0,0.0,0.0,0.0,0.0,0.0,0.0,0.0,0.0,0.0,0.0,0.0,0.0,0.0,0.0,0.488,0.4985,0.5083,0.5267,0.5337,0.5284,0.5206,0.3897,0.2661,0.2575,0.1188,0.0,0.0,0.0,0.0,0.0,0.0,0.0,0.0,0.0,0.0,0.0,0.0,0.0,0.0,0.0,0.0,0.0,0.0,0.0,0.0,0.0,0.0,0.0,0.0,0.0,0.0,0.0,0.0,0.0,0.0,0.0,0.0,0.0,0.0,0.0,0.0,0.0,0.0,0.0,0.0,0.0,0.0,0.0,0.0,0.0,0.0,0.0,0.0,0.0,0.0,0.0,0.0,0.0,0.0,0.0,0.0,0.0,0.0,0.0,0.0,0.0,0.0,0.0,0.0,0.0,0.0,0.0,0.0,0.0,0.0,0.0,0.0,0.0,0.0,0.0,0.0,0.0,0.0,0.0,0.0,0.0,0.0,0.0,0.0,0.0,0.0,0.0,0.0,0.0,0.0,0.0,0.0,0.0,0.0,0.0,0.0,0.0,0.0,0.0,0.0,0.0,0.5029,0.5179,0.5254,0.5375,0.5344,0.5237,0.5117,0.3802,0.2588,0.2523,0.1165,0.0,0.0,0.0,0.0,0.0,0.0,0.0,0.0,0.0,0.0,0.0,0.0,0.0,0.0,0.0,0.0,0.0,0.0,0.0,0.0,0.0,0.0,0.0,0.0,0.0,0.0,0.0,0.0,0.0,0.0,0.0,0.0,0.0,0.0,0.0,0.0,0.0,0.0,0.0,0.0,0.0,0.0,0.0,0.0,0.0,0.0,0.0,0.0,0.0,0.0,0.0,0.0,0.0,0.0,0.0,0.0,0.0,0.0,0.0,0.0,0.0,0.0,0.0,0.0,0.0,0.0,0.0,0.0,0.0,0.0,0.0,0.0,0.0,0.0,0.0,0.0,0.0,0.0,0.0,0.0,0.0,0.0,0.0,0.0,0.0,0.0,0.0,0.0,0.0,0.0,0.0,0.0,0.0,0.0,0.0,0.0,0.0,0.0,0.0,0.0,0.0,0.5123,0.5257,0.5395,0.5395,0.5243,0.5093,0.5076,0.3804,0.2598,0.2484,0.0,0.0105,0.0025,0.0,0.0,0.0,0.0,0.0,0.0,0.0,0.0,0.0,0.0,0.0,0.0,0.0,0.0,0.0,0.0,0.0,0.0,0.0,0.0,0.0,0.0,0.0,0.0,0.0,0.0,0.0,0.0,0.0,0.0,0.0,0.0,0.0,0.0,0.0,0.0,0.0,0.0,0.0,0.0,0.0,0.0,0.0,0.0,0.0,0.0,0.0,0.0,0.0,0.0,0.0,0.0,0.0,0.0,0.0,0.0,0.0,0.0,0.0,0.0,0.0,0.0,0.0,0.0,0.0,0.0,0.0,0.0,0.0,0.0,0.0,0.0,0.0,0.0,0.0,0.0,0.0,0.0,0.0,0.0,0.0,0.0,0.0,0.0,0.0,0.0,0.0,0.0,0.0,0.0,0.0,0.0,0.0,0.0,0.0,0.0,0.0,0.0,0.0,0.5287,0.5375,0.5395,0.5395,0.5243,0.5069,0.4951,0.4068,0.0,0.0,0.0,0.0584,0.0101,0.0,0.0,0.0,0.0,0.0,0.0,0.0,0.0,0.0,0.0,0.0,0.0,0.0,0.0,0.0,0.0,0.0,0.0,0.0,0.0,0.0,0.0,0.0,0.0,0.0,0.0,0.0,0.0,0.0,0.0,0.0,0.0,0.0,0.0,0.0,0.0,0.0,0.0,0.0,0.0,0.0,0.0,0.0,0.0,0.0,0.0,0.0,0.0,0.0,0.0,0.0,0.0,0.0,0.0,0.0,0.0,0.0,0.0,0.0,0.0,0.0,0.0,0.0,0.0,0.0,0.0,0.0,0.0,0.0,0.0,0.0,0.0,0.0,0.0,0.0,0.0,0.0,0.0,0.0,0.0,0.0,0.0,0.0,0.0,0.0,0.0,0.0,0.0,0.0,0.0,0.0,0.0,0.0,0.0,0.0,0.0,0.0,0.0,0.0,0.5375,0.5395,0.5395,0.5395,0.5189,0.4972,0.4904,0.0,0.0,0.0,0.0,0.0341,0.0048,0.0,0.0,0.0,0.0,0.0,0.0,0.0,0.0,0.0,0.0,0.0,0.0,0.0,0.0,0.0,0.0,0.0,0.0,0.0,0.0,0.0,0.0,0.0,0.0,0.0,0.0,0.0,0.0,0.0,0.0,0.0,0.0,0.0,0.0,0.0,0.0,0.0,0.0,0.0,0.0,0.0,0.0,0.0,0.0,0.0,0.0,0.0,0.0,0.0,0.0,0.0,0.0,0.0,0.0,0.0,0.0,0.0,0.0,0.0,0.0,0.0,0.0,0.0,0.0,0.0,0.0,0.0,0.0,0.0,0.0,0.0,0.0,0.0,0.0,0.0,0.0,0.0,0.0,0.0,0.0,0.0,0.0,0.0,0.0,0.0,0.0,0.0,0.0,0.0,0.0,0.0,0.0,0.0,0.0,0.0,0.0,0.0,0.0,0.0,0.5385,0.5395,0.5395,0.5395,0.5138,0.4881,0.4877,0.3669,0.0,0.0,0.0,0.0351,0.0206,0.0,0.0,0.0,0.0,0.0,0.0,0.0,0.0,0.0,0.0,0.0,0.0,0.0,0.0,0.0,0.0,0.0,0.0,0.0,0.0,0.0,0.0,0.0,0.0,0.0,0.0,0.0,0.0,0.0,0.0,0.0,0.0,0.0,0.0,0.0,0.0,0.0,0.0,0.0,0.0,0.0,0.0,0.0,0.0,0.0,0.0,0.0,0.0,0.0,0.0,0.0,0.0,0.0,0.0,0.0,0.0,0.0,0.0,0.0,0.0,0.0,0.0,0.0,0.0,0.0,0.0,0.0,0.0,0.0,0.0,0.0,0.0,0.0,0.0,0.0,0.0,0.0,0.0,0.0,0.0,0.0,0.0,0.0,0.0,0.0,0.0,0.0,0.0,0.0,0.0,0.0,0.0,0.0,0.0,0.0,0.0,0.0,0.0,0.0,0.5354,0.5395,0.5395,0.5395,0.5138,0.488,0.4745,0.0,0.0,0.2979,0.2194,0.1475,0.0917,0.0,0.0,0.0,0.0,0.0,0.0,0.0,0.0,0.0,0.0,0.0,0.0,0.0,0.0,0.0,0.0,0.0,0.0,0.0,0.0,0.0,0.0,0.0,0.0,0.0,0.0,0.0,0.0,0.0,0.0,0.0,0.0,0.0,0.0,0.0,0.0,0.0,0.0,0.0,0.0,0.0,0.0,0.0,0.0,0.0,0.0,0.0,0.0,0.0,0.0,0.0,0.0,0.0,0.0,0.0,0.0,0.0,0.0,0.0,0.0,0.0,0.0,0.0,0.0,0.0,0.0,0.0,0.0,0.0,0.0,0.0,0.0,0.0,0.0,0.0,0.0,0.0,0.0,0.0,0.0,0.0,0.0,0.0,0.0,0.0,0.0,0.0,0.0,0.0,0.0,0.0,0.0,0.0,0.0,0.0,0.0,0.0,0.0,0.0,0.5206,0.5324,0.5395,0.5395,0.5138,0.4877,0.4724,0.0,0.3356,0.2987,0.2319,0.1615,0.1005,0.0703,0.0,0.0,0.0,0.0,0.0,0.0,0.0,0.0,0.0,0.0,0.0,0.0,0.0,0.0,0.0,0.0,0.0,0.0,0.0,0.0,0.0,0.0,0.0,0.0,0.0,0.0,0.0,0.0,0.0,0.0,0.0,0.0,0.0,0.0,0.0,0.0,0.0,0.0,0.0,0.0,0.0,0.0,0.0,0.0,0.0,0.0,0.0,0.0,0.0,0.0,0.0,0.0,0.0,0.0,0.0,0.0,0.0,0.0,0.0,0.0,0.0,0.0,0.0,0.0,0.0,0.0,0.0,0.0,0.0,0.0,0.0,0.0,0.0,0.0,0.0,0.0,0.0,0.0,0.0,0.0,0.0,0.0,0.0,0.0,0.0,0.0,0.0,0.0,0.0,0.0,0.0,0.0,0.0,0.0,0.0,0.0,0.0,0.0,0.509,0.5243,0.5385,0.5337,0.5104,0.4827,0.0,0.0,0.332,0.3131,0.2413,0.1673,0.1251,0.088,0.0483,0.0,0.0,0.0,0.0,0.0,0.0,0.0,0.0,0.0,0.0,0.0,0.0,0.0,0.0,0.0,0.0,0.0,0.0,0.0,0.0,0.0,0.0,0.0,0.0,0.0,0.0,0.0,0.0,0.0,0.0,0.0,0.0,0.0,0.0,0.0,0.0,0.0,0.0,0.0,0.0,0.0,0.0,0.0,0.0,0.0,0.0,0.0,0.0,0.0,0.0,0.0,0.0,0.0,0.0,0.0,0.0,0.0,0.0,0.0,0.0,0.0,0.0,0.0,0.0,0.0,0.0,0.0,0.0,0.0,0.0,0.0,0.0,0.0,0.0,0.0,0.0,0.0,0.0,0.0,0.0,0.0,0.0,0.0,0.0,0.0,0.0,0.0,0.0,0.0,0.0,0.0,0.0,0.0,0.0,0.0,0.0,0.0,0.5059,0.5243,0.5358,0.514,0.4992,0.4773,0.0,0.4105,0.3913,0.3643,0.2635,0.1808,0.1786,0.081,0.0,0.0,0.0,0.0,0.0,0.0,0.0,0.0,0.0,0.0,0.0,0.0,0.0,0.0,0.0,0.0,0.0,0.0,0.0,0.0,0.0,0.0,0.0,0.0,0.0,0.0,0.0,0.0,0.0,0.0,0.0,0.0,0.0,0.0,0.0,0.0,0.0,0.0,0.0,0.0,0.0,0.0,0.0,0.0,0.0,0.0,0.0,0.0,0.0,0.0,0.0,0.0,0.0,0.0,0.0,0.0,0.0,0.0,0.0,0.0,0.0,0.0,0.0,0.0,0.0,0.0,0.0,0.0,0.0,0.0,0.0,0.0,0.0,0.0,0.0,0.0,0.0,0.0,0.0,0.0,0.0,0.0,0.0,0.0,0.0,0.0,0.0,0.0,0.0,0.0,0.0,0.0,0.0,0.0,0.0,0.0,0.0,0.0,0.4789,0.4942,0.5047,0.4968,0.4874,0.4674,0.4274,0.4105,0.3809,0.3131,0.2674,0.2162,0.134,0.0882,0.0472,0.0077,0.0,0.0,0.0,0.0,0.0,0.0,0.0,0.0,0.0,0.0,0.0,0.0,0.0,0.0,0.0,0.0,0.0,0.0,0.0,0.0,0.0,0.0,0.0,0.0,0.0,0.0,0.0,0.0,0.0,0.0,0.0,0.0,0.0,0.0,0.0,0.0,0.0,0.0,0.0,0.0,0.0,0.0,0.0,0.0,0.0,0.0,0.0,0.0,0.0,0.0,0.0,0.0,0.0,0.0,0.0,0.0,0.0,0.0,0.0,0.0,0.0,0.0,0.0,0.0,0.0,0.0,0.0,0.0,0.0,0.0,0.0,0.0,0.0,0.0,0.0,0.0,0.0,0.0,0.0,0.0,0.0,0.0,0.0,0.0,0.0,0.0,0.0,0.0,0.0,0.0,0.0,0.0,0.0,0.0,0.0,0.0,0.0,0.4758,0.4874,0.4847,0.4718,0.4528,0.4203,0.3839,0.3429,0.2825,0.2339,0.1784,0.1029,0.0703,0.0449,0.0052,0.0,0.0,0.0,0.0,0.0,0.0,0.0,0.0,0.0,0.0,0.0,0.0,0.0,0.0,0.0,0.0,0.0,0.0,0.0,0.0,0.0,0.0,0.0,0.0,0.0,0.0,0.0,0.0,0.0,0.0,0.0,0.0,0.0,0.0,0.0,0.0,0.0,0.0,0.0,0.0,0.0,0.0,0.0,0.0,0.0,0.0,0.0,0.0,0.0,0.0,0.0,0.0,0.0,0.0,0.0,0.0,0.0,0.0,0.0,0.0,0.0,0.0,0.0,0.0,0.0,0.0,0.0,0.0,0.0,0.0,0.0,0.0,0.0,0.0,0.0,0.0,0.0,0.0,0.0,0.0,0.0,0.0,0.0,0.0,0.0,0.0,0.0,0.0,0.0,0.0,0.0,0.0,0.0,0.0,0.0,0.0,0.0,0.4629,0.4819,0.4677,0.4563,0.4382,0.407,0.3432,0.0,0.2675,0.1719,0.0896,0.0854,0.0372,0.0,0.0,0.0,0.0,0.0,0.0,0.0,0.0,0.0,0.0,0.0,0.0,0.0,0.0,0.0,0.0,0.0,0.0,0.0,0.0,0.0,0.0,0.0,0.0,0.0,0.0,0.0,0.0,0.0,0.0,0.0,0.0,0.0,0.0,0.0,0.0,0.0,0.0,0.0,0.0,0.0,0.0,0.0,0.0,0.0,0.0,0.0,0.0,0.0,0.0,0.0,0.0,0.0,0.0,0.0,0.0,0.0,0.0,0.0,0.0,0.0,0.0,0.0,0.0,0.0,0.0,0.0,0.0,0.0,0.0,0.0,0.0,0.0,0.0,0.0,0.0,0.0,0.0,0.0,0.0,0.0,0.0,0.0,0.0,0.0,0.0,0.0,0.0,0.0,0.0,0.0,0.0,0.0,0.0,0.0,0.0,0.0,0.0,0.3945,0.0,0.4196,0.4159,0.4151,0.4073,0.0,0.3363,0.2742,0.2138,0.0,0.0,0.0304,0.0095,0.0,0.0,0.0,0.0,0.0,0.0,0.0,0.0,0.0,0.0,0.0,0.0,0.0,0.0,0.0,0.0,0.0,0.0,0.0,0.0,0.0,0.0,0.0,0.0,0.0,0.0,0.0,0.0,0.0,0.0,0.0,0.0,0.0,0.0,0.0,0.0,0.0,0.0,0.0,0.0,0.0,0.0,0.0,0.0,0.0,0.0,0.0,0.0,0.0,0.0,0.0,0.0,0.0,0.0,0.0,0.0,0.0,0.0,0.0,0.0,0.0,0.0,0.0,0.0,0.0,0.0,0.0,0.0,0.0,0.0,0.0,0.0,0.0,0.0,0.0,0.0,0.0,0.0,0.0,0.0,0.0,0.0,0.0,0.0,0.0,0.0,0.0,0.0,0.0,0.0,0.0,0.0,0.0,0.0,0.0,0.0,0.0,0.0,0.3716,0.3904,0.4099,0.4099,0.4048,0.3974,0.3914,0.0,0.0,0.0,0.0,0.0,0.0,0.0,0.0,0.0,0.0,0.0,0.0,0.0,0.0,0.0,0.0,0.0,0.0,0.0,0.0,0.0,0.0,0.0,0.0,0.0,0.1657,0.1657,0.1657,0.1121,0.0,0.0,0.0,0.0,0.0,0.0269,0.0807,0.0269,0.0,0.0,0.0,0.0,0.0,0.0,0.0,0.0,0.0,0.0,0.0,0.0,0.0,0.0,0.0,0.0,0.0,0.0,0.0,0.0,0.0,0.0,0.0,0.0,0.0,0.0,0.0,0.0,0.0,0.0,0.0,0.0,0.0,0.0,0.0,0.0,0.0,0.0,0.0,0.0,0.0,0.0,0.0,0.0,0.0,0.0,0.0,0.0,0.0,0.0,0.0,0.0,0.0,0.0,0.0,0.0,0.0,0.0,0.0,0.0,0.0,0.0,0.0,0.0,0.0,0.0,0.0,0.0,0.3628,0.3883,0.415,0.4132,0.4058,0.3991,0.3964,0.0,0.0,0.0,0.0,0.0,0.0,0.0,0.0,0.0,0.0,0.0,0.0,0.0,0.0,0.0,0.0,0.0,0.0,0.0,0.0,0.0,0.0,0.0,0.0,0.0,0.0,0.3614,0.3614,0.2637,0.0584,0.0539,0.0539,0.0539,0.0539,0.1076,0.2057,0.1031,0.1121,0.0,0.0,0.0,0.0539,0.0359,0.0269,0.0269,0.0269,0.0269,0.0269,0.0269,0.0269,0.0269,0.0045,0.0,0.0,0.0,0.0,0.0,0.0,0.0,0.0,0.0,0.0,0.0,0.0,0.0,0.0,0.0,0.0,0.0,0.0,0.0,0.0,0.0,0.0,0.0,0.0,0.0,0.0,0.0,0.0,0.0,0.0,0.0,0.0,0.0,0.0,0.0,0.0,0.0,0.0,0.0,0.0,0.0,0.0,0.0,0.0,0.0,0.0,0.0,0.0,0.0,0.0,0.0,0.0,0.0,0.375,0.3904,0.3971,0.3744,0.3853,0.396,0.3856,0.0,0.0,0.0,0.0,0.0,0.0,0.0,0.0,0.0,0.0,0.0,0.0,0.0,0.0,0.0,0.0,0.0,0.0,0.0,0.0,0.0,0.0,0.0,0.0,0.0,0.0,0.3614,0.3614,0.3436,0.3037,0.3037,0.3037,0.3037,0.3037,0.3126,0.3303,0.3126,0.317,0.0,0.0,0.3037,0.2948,0.1924,0.1522,0.1522,0.1522,0.1522,0.1522,0.1522,0.1522,0.1389,0.0359,0.0,0.0,0.0,0.0,0.0,0.0,0.0,0.0,0.0,0.0,0.0,0.0,0.0,0.0,0.0,0.0,0.0,0.0,0.0,0.0,0.0,0.0,0.0,0.0,0.0,0.0,0.0,0.0,0.0,0.0,0.0,0.0,0.0,0.0,0.0,0.0,0.0,0.0,0.0,0.0,0.0,0.0,0.0,0.0,0.0,0.0,0.0,0.0,0.0,0.0,0.0,0.0,0.0,0.3682,0.3846,0.3944,0.3748,0.3921,0.4099,0.4031,0.0,0.0,0.0,0.0,0.0,0.0,0.0,0.0,0.0,0.0,0.0,0.0,0.0,0.0,0.0,0.0,0.0,0.0,0.0,0.0,0.0,0.0,0.0,0.0,0.0,0.0,0.0,0.5487,0.5487,0.5487,0.5487,0.4861,0.3614,0.3614,0.3927,0.4552,0.3881,0.3972,0.4552,0.0,0.3614,0.357,0.2992,0.2769,0.2769,0.2769,0.2769,0.2769,0.2769,0.2769,0.2681,0.2147,0.1924,0.1924,0.1924,0.1924,0.1924,0.1924,0.1924,0.179,0.1165,0.0494,0.0,0.0,0.0,0.0,0.0,0.0,0.0,0.0,0.0,0.0,0.0,0.0,0.0,0.0,0.0,0.0,0.0,0.0,0.0,0.0,0.0,0.0,0.0,0.0,0.0,0.0,0.0,0.0,0.0,0.0,0.0,0.0,0.0,0.0,0.0,0.0,0.0,0.0,0.0,0.0,0.0,0.0,0.0,0.3696,0.3846,0.3974,0.3917,0.0,0.4271,0.4271,0.0,0.0,0.0,0.0,0.0,0.0,0.0,0.0,0.0,0.0,0.0,0.0,0.0,0.0,0.0,0.0,0.0,0.0,0.0,0.0,0.0,0.0,0.0,0.0,0.0,0.0,0.0,0.7095,0.7095,0.7095,0.7095,0.6201,0.4417,0.4417,0.4907,0.5758,0.4863,0.4907,0.5758,0.4819,0.4417,0.4417,0.415,0.4016,0.4016,0.4016,0.4016,0.4016,0.4016,0.3838,0.3614,0.3614,0.3614,0.3614,0.3614,0.3614,0.3618,0.3635,0.3642,0.3466,0.2583,0.1636,0.0773,0.0181,0.0,0.0,0.0,0.0,0.0,0.0,0.0,0.0,0.0,0.0,0.0,0.0,0.0,0.0,0.0,0.0,0.0,0.0,0.0,0.0,0.0,0.0,0.0,0.0,0.0,0.0,0.0,0.0,0.0,0.0,0.0,0.0,0.0,0.0,0.0,0.0,0.0,0.0,0.0,0.0,0.0,0.3923,0.3981,0.4028,0.413,0.4331,0.0,0.4474,0.4576,0.0,0.4796,0.0,0.0,0.0,0.0,0.0,0.0,0.0,0.0,0.0,0.0,0.0,0.0,0.0,0.0,0.0,0.0,0.0,0.0,0.0,0.0,0.0,0.0,0.0,0.0,0.0,0.7095,0.7095,0.7095,0.7007,0.6827,0.6827,0.6871,0.6962,0.6871,0.6915,0.6962,0.6871,0.6827,0.6782,0.5714,0.527,0.527,0.527,0.527,0.527,0.527,0.4552,0.3614,0.3614,0.3614,0.3614,0.3614,0.3614,0.3628,0.3746,0.3769,0.3783,0.3809,0.3782,0.3156,0.0649,0.0,0.0,0.0,0.0,0.0,0.0,0.0,0.0,0.0,0.0,0.0,0.0,0.0,0.0,0.0,0.0,0.0,0.0,0.0,0.0,0.0,0.0,0.0,0.0,0.0,0.0,0.0,0.0,0.0,0.0,0.0,0.0,0.0,0.0,0.0,0.0,0.0,0.0,0.0,0.0,0.0,0.3863,0.3948,0.4008,0.4065,0.4284,0.0,0.0,0.4721,0.4874,0.0,0.0,0.0,0.0,0.0,0.0,0.0,0.0,0.0,0.0,0.0,0.0,0.0,0.0,0.0,0.0,0.0,0.0,0.0,0.0,0.0,0.0,0.0,0.0,0.0,0.0,0.7095,0.7095,0.7095,0.7095,0.7095,0.7095,0.7095,0.7095,0.7095,0.7095,0.7095,0.7095,0.7095,0.7051,0.665,0.6473,0.6473,0.6473,0.6473,0.6473,0.6473,0.6157,0.5797,0.5797,0.5797,0.5797,0.5797,0.5852,0.5969,0.6016,0.6086,0.6015,0.5301,0.512,0.4522,0.1939,0.1231,0.1046,0.0189,0.0,0.0,0.0,0.0,0.0,0.0,0.0,0.0,0.0,0.0,0.0,0.0,0.0,0.0,0.0,0.0,0.0,0.0,0.0,0.0,0.0,0.0,0.0,0.0,0.0,0.0,0.0,0.0,0.0,0.0,0.0,0.0,0.0,0.0,0.0,0.0,0.0,0.0,0.3819,0.3938,0.4065,0.4065,0.0,0.0,0.4785,0.4911,0.5009,0.0,0.0,0.0,0.0,0.0,0.0,0.0,0.0,0.0,0.0,0.0,0.0,0.0,0.0,0.0,0.0,0.0,0.0,0.0,0.0,0.0,0.0,0.0,0.0,0.0,0.0,0.0,0.7095,0.7095,0.7095,0.7095,0.7095,0.7095,0.7095,0.7095,0.7095,0.7095,0.7095,0.7095,0.7095,0.7095,0.7095,0.7095,0.7095,0.7095,0.7095,0.7095,0.7095,0.7095,0.7095,0.7095,0.7095,0.7095,0.721,0.7316,0.7414,0.7516,0.7426,0.6694,0.6486,0.5992,0.3834,0.2953,0.2417,0.1491,0.0961,0.0625,0.0625,0.0287,0.0,0.0,0.0,0.0,0.0,0.0,0.0,0.0,0.0,0.0,0.0,0.0,0.0,0.0,0.0,0.0,0.0,0.0,0.0,0.0,0.0,0.0,0.0,0.0,0.0,0.0,0.0,0.0,0.0,0.0,0.0,0.0,0.0,0.0,0.3873,0.3987,0.4194,0.0,0.0,0.0,0.0,0.5103,0.0,0.0,0.0,0.0,0.0,0.0,0.0,0.0,0.0,0.0,0.0,0.0,0.0,0.0,0.0,0.0,0.0,0.0,0.0,0.0,0.0,0.0,0.0,0.0,0.0,0.0,0.0,0.0,0.7095,0.7095,0.7095,0.7095,0.7095,0.7095,0.7095,0.7095,0.7095,0.7095,0.7095,0.7095,0.7095,0.7095,0.7095,0.7095,0.7095,0.7095,0.7095,0.7095,0.7095,0.7095,0.7095,0.7095,0.7095,0.7095,0.7098,0.7152,0.7506,0.76,0.7662,0.7904,0.7988,0.7686,0.6331,0.502,0.3999,0.3978,0.2983,0.2006,0.2006,0.0965,0.0048,0.0,0.0,0.0,0.0,0.0,0.0,0.0,0.0,0.0,0.0,0.0,0.0,0.0,0.0,0.0,0.0,0.0,0.0,0.0,0.0,0.0,0.0,0.0,0.0,0.0,0.0,0.0,0.0,0.0,0.0,0.0,0.0,0.0,0.3724,0.386,0.0,0.0,0.0,0.0,0.0,0.0,0.0,0.0,0.0,0.0,0.0,0.0,0.0,0.0,0.0,0.0,0.0,0.0,0.0,0.0,0.0,0.0,0.0,0.0,0.0,0.0,0.0,0.0,0.0,0.0,0.0,0.0,0.0,0.0,0.7095,0.7095,0.7095,0.7095,0.7095,0.7095,0.7095,0.7095,0.7095,0.7095,0.7095,0.7095,0.7095,0.7095,0.7095,0.7095,0.7095,0.7095,0.7095,0.7095,0.7095,0.7095,0.7095,0.7095,0.7095,0.7095,0.7214,0.7319,0.7411,0.7584,0.7571,0.6675,0.6514,0.6481,0.6079,0.502,0.4011,0.399,0.3685,0.3138,0.2195,0.2432,0.253,0.1608,0.1397,0.1392,0.1408,0.0602,0.0,0.0,0.0,0.0,0.0,0.0,0.0,0.0,0.0,0.0,0.0,0.0,0.0,0.0,0.0,0.0,0.0,0.0,0.0,0.0,0.0,0.0,0.0,0.0,0.0,0.0,0.0,0.0,0.3802,0.0,0.0,0.0,0.0,0.0,0.0,0.0,0.0,0.0,0.0,0.0,0.0,0.0,0.0,0.0,0.0,0.0,0.0,0.0,0.0,0.0,0.0,0.0,0.0,0.0,0.0,0.0,0.0,0.0,0.0,0.0,0.0,0.0,0.0,0.0,0.7011,0.7068,0.7095,0.7095,0.7095,0.7095,0.7095,0.7095,0.7095,0.7095,0.7095,0.7095,0.7095,0.7095,0.7095,0.7095,0.7095,0.7095,0.7095,0.7095,0.7095,0.7095,0.7095,0.7095,0.7095,0.7095,0.7204,0.7292,0.7398,0.7539,0.7545,0.6819,0.6683,0.6783,0.6783,0.5824,0.482,0.482,0.3967,0.3115,0.2864,0.3015,0.3115,0.2865,0.2815,0.2815,0.2815,0.1661,0.0807,0.0807,0.0353,0.0,0.0,0.0,0.0,0.0,0.0,0.0,0.0,0.0,0.0,0.0,0.0,0.0,0.0,0.0,0.0,0.0,0.0,0.0,0.0,0.0,0.0,0.0,0.0,0.0,0.0,0.0,0.0,0.0,0.0,0.0,0.0,0.0,0.0,0.0,0.0,0.0,0.0,0.0,0.0,0.0,0.0,0.0,0.0,0.0,0.0,0.0,0.0,0.0,0.0,0.0,0.0,0.0,0.0,0.0,0.0,0.0,0.0,0.0,0.0,0.0,0.6866,0.7007,0.7078,0.0,0.7088,0.7095,0.7095,0.7095,0.7095,0.7095,0.7095,0.7095,0.7095,0.7095,0.7095,0.7095,0.7095,0.7095,0.7095,0.7095,0.7095,0.7095,0.7095,0.7095,0.7095,0.7095,0.7095,0.7122,0.7309,0.7468,0.7577,0.7609,0.771,0.7839,0.7839,0.683,0.5829,0.5979,0.4069,0.2514,0.3715,0.3115,0.2715,0.3966,0.4166,0.4166,0.4166,0.3065,0.2163,0.2163,0.1159,0.0353,0.0353,0.0353,0.0351,0.0345,0.0246,0.0193,0.0187,0.0093,0.0,0.0,0.0,0.0,0.0,0.0,0.0,0.0,0.0,0.0,0.0,0.0,0.0,0.0,0.0,0.0,0.0,0.0,0.0,0.0,0.0,0.0,0.0,0.0,0.0,0.0,0.0,0.0,0.0,0.0,0.0,0.0,0.0,0.0,0.0,0.0,0.0,0.0,0.0,0.0,0.0,0.0,0.0,0.0,0.0,0.0,0.0,0.0,0.0,0.0,0.0,0.6627,0.6749,0.6856,0.693,0.0,0.7045,0.7095,0.7095,0.7095,0.7095,0.7095,0.7095,0.7095,0.7095,0.7095,0.7095,0.7095,0.7095,0.7095,0.7095,0.7095,0.7095,0.7095,0.7095,0.7095,0.7095,0.7095,0.7095,0.7102,0.7136,0.7383,0.7365,0.6384,0.6263,0.6431,0.6431,0.5422,0.472,0.5727,0.477,0.3667,0.3915,0.462,0.5225,0.5525,0.5575,0.5575,0.5575,0.447,0.3565,0.3565,0.3316,0.3115,0.3115,0.3115,0.316,0.3148,0.222,0.1561,0.1548,0.062,0.0,0.0,0.0,0.0,0.0,0.0,0.0,0.0,0.0,0.0,0.0,0.0,0.0,0.0,0.0,0.0,0.0,0.0,0.0,0.0,0.0,0.0,0.0,0.0,0.0,0.0,0.0,0.0,0.0,0.0,0.0,0.0,0.0,0.0,0.0,0.0,0.0,0.0,0.0,0.0,0.0,0.0,0.0,0.0,0.0,0.0,0.0,0.0,0.0,0.0,0.6477,0.6552,0.659,0.6742,0.682,0.682,0.6927,0.7031,0.7095,0.7095,0.7095,0.7095,0.7095,0.7095,0.7095,0.7095,0.7095,0.7095,0.7095,0.7095,0.7095,0.7095,0.7095,0.7095,0.7095,0.7095,0.7095,0.7095,0.7095,0.7095,0.7095,0.7305,0.7363,0.6717,0.6687,0.6854,0.6918,0.5977,0.5122,0.5827,0.497,0.4166,0.482,0.5525,0.6179,0.6833,0.6983,0.6983,0.6983,0.5824,0.472,0.4116,0.4016,0.4016,0.4016,0.4016,0.4016,0.4016,0.3386,0.2961,0.2935,0.2326,0.1913,0.1921,0.1312,0.098,0.0971,0.032,0.0,0.0,0.0,0.0,0.0,0.0,0.0,0.0,0.0,0.0,0.0,0.0,0.0,0.0,0.0,0.0,0.0,0.0,0.0,0.0,0.0,0.0,0.0,0.0,0.0,0.0,0.0,0.0,0.0,0.0,0.0,0.0,0.0,0.0,0.0,0.0,0.0,0.0,0.0,0.0,0.0,0.0,0.63,0.63,0.6416,0.6474,0.6474,0.6586,0.6661,0.6664,0.6817,0.692,0.7058,0.7058,0.7071,0.7095,0.7095,0.7095,0.7095,0.7095,0.7095,0.7095,0.7095,0.7095,0.7095,0.7095,0.7095,0.7095,0.7095,0.7095,0.7095,0.7095,0.7095,0.7095,0.7095,0.7265,0.7438,0.7563,0.7723,0.7879,0.7958,0.7185,0.6331,0.6331,0.5472,0.492,0.5827,0.5979,0.6381,0.7739,0.7988,0.7988,0.7988,0.7083,0.5977,0.4868,0.4668,0.4668,0.4668,0.4668,0.4668,0.4668,0.4468,0.4342,0.4328,0.4126,0.3995,0.4014,0.2962,0.2339,0.2331,0.1265,0.069,0.0677,0.0225,0.0,0.0,0.0,0.0,0.0,0.0,0.0,0.0,0.0,0.0,0.0,0.0,0.0,0.0,0.0,0.0,0.0,0.0,0.0,0.0,0.0,0.0,0.0,0.0,0.0,0.0,0.0,0.0,0.0,0.0,0.0,0.0,0.0,0.0,0.0,0.0,0.0,0.0,0.63,0.63,0.63,0.6317,0.6327,0.6327,0.647,0.6542,0.6545,0.6658,0.681,0.6913,0.6913,0.698,0.7095,0.7095,0.7095,0.7095,0.7095,0.7095,0.7095,0.7095,0.7095,0.7095,0.7095,0.7095,0.7095,0.7095,0.7095,0.7095,0.7095,0.7095,0.7095,0.7095,0.7343,0.7573,0.7594,0.7797,0.7965,0.7985,0.7889,0.7739,0.7739,0.7584,0.7182,0.6229,0.5979,0.6381,0.7739,0.7988,0.7988,0.7988,0.7839,0.7686,0.7484,0.7484,0.7484,0.7484,0.7484,0.7484,0.7484,0.6429,0.5722,0.5757,0.4654,0.4021,0.3999,0.3848,0.3723,0.3754,0.3551,0.342,0.3305,0.1131,0.0,0.0,0.0,0.0,0.0,0.0,0.0,0.0,0.0,0.0,0.0,0.0,0.0,0.0,0.0,0.0,0.0,0.0,0.0,0.0,0.0,0.0,0.0,0.0,0.0,0.0,0.0,0.0,0.0,0.0,0.0,0.0,0.0,0.0,0.0,0.0,0.0,0.63,0.63,0.63,0.63,0.63,0.63,0.63,0.6361,0.6433,0.6511,0.6539,0.6698,0.6886,0.6886,0.6964,0.7095,0.7095,0.7095,0.7095,0.7095,0.7095,0.7095,0.7095,0.7095,0.7095,0.7095,0.7095,0.7095,0.7095,0.7095,0.7095,0.7095,0.7095,0.7095,0.7095,0.7295,0.7489,0.7577,0.775,0.788,0.7968,0.7988,0.7988,0.7988,0.7988,0.7839,0.7235,0.7135,0.7285,0.7889,0.7988,0.7988,0.7988,0.7988,0.7988,0.7988,0.7988,0.7988,0.7988,0.7988,0.7988,0.7988,0.7484,0.7135,0.7135,0.6575,0.6252,0.6257,0.5558,0.5143,0.5101,0.4417,0.3989,0.3906,0.2083,0.1089,0.0986,0.0314,0.0,0.0,0.0,0.0,0.0,0.0,0.0,0.0,0.0,0.0,0.0,0.0,0.0,0.0,0.0,0.0,0.0,0.0,0.0,0.0,0.0,0.0,0.0,0.0,0.0,0.0,0.0,0.0,0.0,0.0,0.0,0.0,0.0,0.0,0.63,0.63,0.63,0.63,0.63,0.63,0.63,0.63,0.6354,0.646,0.646,0.6556,0.6814,0.6854,0.6906,0.7045,0.7082,0.7095,0.7095,0.7095,0.7095,0.7095,0.7095,0.7095,0.7095,0.7095,0.7095,0.7095,0.7095,0.7095,0.7095,0.7095,0.7095,0.7095,0.7095,0.7275,0.7455,0.7567,0.7729,0.7896,0.7961,0.7988,0.7988,0.7988,0.7988,0.7988,0.7988,0.7988,0.7988,0.7988,0.7988,0.7988,0.7988,0.7988,0.7988,0.7988,0.7988,0.7988,0.7988,0.7988,0.7988,0.7988,0.7988,0.7988,0.7988,0.7988,0.7988,0.7988,0.7083,0.6531,0.6531,0.5553,0.5007,0.4984,0.3641,0.276,0.2299,0.1393,0.0897,0.0897,0.0897,0.0763,0.0,0.0,0.0,0.0,0.0,0.0,0.0,0.0,0.0,0.0,0.0,0.0,0.0,0.0,0.0,0.0,0.0,0.0,0.0,0.0,0.0,0.0,0.0,0.0,0.0,0.0,0.0,0.0,0.0,0.0,0.63,0.63,0.63,0.63,0.63,0.63,0.63,0.63,0.6303,0.631,0.631,0.6388,0.6542,0.6647,0.6797,0.6903,0.7038,0.7095,0.7095,0.7095,0.7095,0.7095,0.7095,0.7095,0.7095,0.7095,0.7095,0.7095,0.7095,0.7095,0.7095,0.7095,0.7095,0.7095,0.7095,0.735,0.759,0.7597,0.7804,0.7978,0.7988,0.7988,0.7988,0.7988,0.7988,0.7988,0.7988,0.7988,0.7988,0.7988,0.7988,0.7988,0.7988,0.7988,0.7988,0.7988,0.7988,0.7988,0.7988,0.7988,0.7988,0.7988,0.7988,0.7988,0.7988,0.7988,0.7988,0.7988,0.7939,0.7889,0.7889,0.7829,0.771,0.7617,0.6267,0.4971,0.3679,0.3515,0.3392,0.3392,0.3392,0.2814,0.0,0.0,0.0,0.0,0.0,0.0,0.0,0.0,0.0,0.0,0.0,0.0,0.0,0.0,0.0,0.0,0.0,0.0,0.0,0.0,0.0,0.0,0.0,0.0,0.0,0.0,0.0,0.0,0.0,0.0,0.63,0.63,0.63,0.63,0.63,0.63,0.63,0.63,0.63,0.63,0.63,0.6375,0.6515,0.6569,0.6692,0.6889,0.694,0.7011,0.7095,0.7095,0.7095,0.7095,0.7095,0.7095,0.7095,0.7095,0.7095,0.7095,0.7095,0.7095,0.7095,0.7095,0.7095,0.7112,0.7258,0.7434,0.7617,0.7709,0.7882,0.7988,0.7988,0.7988,0.7988,0.7988,0.7988,0.7988,0.7988,0.7988,0.7988,0.7988,0.7988,0.7988,0.7988,0.7988,0.7988,0.7988,0.7988,0.7988,0.7988,0.7988,0.7988,0.7988,0.7988,0.7988,0.7988,0.7988,0.7988,0.7988,0.7988,0.7988,0.7988,0.7988,0.7965,0.7911,0.7369,0.6372,0.4975,0.4059,0.3614,0.3614,0.3614,0.3349,0.303,0.0,0.0,0.0,0.0,0.0,0.0,0.0,0.0,0.0,0.0,0.0,0.0,0.0,0.0,0.0,0.0,0.0,0.0,0.0,0.0,0.0,0.0,0.0,0.0,0.0,0.0,0.0,0.0,0.0,0.63,0.63,0.63,0.63,0.63,0.63,0.63,0.63,0.63,0.63,0.63,0.6351,0.6443,0.6491,0.6583,0.678,0.6842,0.6967,0.7095,0.7095,0.7095,0.7095,0.7095,0.7095,0.7095,0.7095,0.7095,0.7095,0.7095,0.7095,0.7095,0.7095,0.7095,0.7125,0.7326,0.7478,0.7631,0.777,0.7874,0.7988,0.7988,0.7988,0.7988,0.7988,0.7988,0.7988,0.7988,0.7988,0.7988,0.7988,0.7988,0.7988,0.7988,0.7988,0.7988,0.7988,0.7988,0.7988,0.7988,0.7988,0.7988,0.7988,0.7988,0.7988,0.7988,0.7988,0.7988,0.7988,0.7988,0.7988,0.7988,0.7988,0.7988,0.7988,0.7889,0.7305,0.6285,0.533,0.4851,0.4772,0.4772,0.455,0.0,0.0,0.0,0.0,0.0,0.0,0.0,0.0,0.0,0.0,0.0,0.0,0.0,0.0,0.0,0.0,0.0,0.0,0.0,0.0,0.0,0.0,0.0,0.0,0.0,0.0,0.0,0.0,0.0,0.6293,0.63,0.63,0.63,0.63,0.63,0.63,0.63,0.63,0.63,0.63,0.63,0.63,0.6306,0.6443,0.6508,0.6528,0.6787,0.6957,0.7092,0.7095,0.7095,0.7095,0.7095,0.7095,0.7095,0.7095,0.7095,0.7095,0.7095,0.7095,0.7095,0.7095,0.7095,0.7125,0.7329,0.7482,0.7631,0.7777,0.7877,0.7988,0.7988,0.7988,0.7988,0.7988,0.7988,0.7988,0.7988,0.7988,0.7988,0.7988,0.7988,0.7988,0.7988,0.7988,0.7988,0.7988,0.7988,0.7988,0.7988,0.7988,0.7988,0.7988,0.7988,0.7988,0.7988,0.7988,0.7988,0.7988,0.7988,0.7988,0.7988,0.7988,0.7988,0.7988,0.7892,0.7746,0.76,0.7448,0.7292,0.7095,0.7095,0.6517,0.3044,0.0,0.0,0.0,0.0,0.0,0.0,0.0,0.0,0.0,0.0,0.0,0.0,0.0,0.0,0.0,0.0,0.0,0.0,0.0,0.0,0.0,0.0,0.0,0.0,0.0,0.0,0.0,0.6095,0.6142,0.6293,0.63,0.63,0.63,0.63,0.63,0.63,0.63,0.63,0.63,0.63,0.63,0.6303,0.634,0.6416,0.6518,0.6563,0.6746,0.6953,0.7055,0.7095,0.7095,0.7095,0.7095,0.7095,0.7095,0.7095,0.7095,0.7095,0.7095,0.7095,0.7095,0.7095,0.7146,0.7455,0.7567,0.7651,0.7857,0.7958,0.7988,0.7988,0.7988,0.7988,0.7988,0.7988,0.7988,0.7988,0.7988,0.7988,0.7988,0.7988,0.7988,0.7988,0.7988,0.7988,0.7988,0.7988,0.7988,0.7988,0.7988,0.7988,0.7988,0.7988,0.7988,0.7988,0.7988,0.7988,0.7988,0.7988,0.7988,0.7988,0.7988,0.7988,0.7988,0.7948,0.7851,0.76,0.7448,0.7292,0.7095,0.7095,0.6918,0.4081,0.0,0.0,0.0,0.0,0.0,0.0,0.0,0.0,0.0,0.0,0.0,0.0,0.0,0.0,0.0,0.0,0.0,0.0,0.0,0.0,0.0,0.0,0.0,0.0,0.0,0.0,0.0,0.5935,0.6003,0.6156,0.6166,0.6231,0.6296,0.63,0.63,0.63,0.63,0.63,0.63,0.63,0.63,0.63,0.63,0.6344,0.6429,0.6555,0.6668,0.6851,0.7011,0.7095,0.7095,0.7095,0.7095,0.7095,0.7095,0.7095,0.7095,0.7095,0.7095,0.7095,0.7095,0.7095,0.7152,0.7506,0.76,0.7662,0.7907,0.7988,0.7988,0.7988,0.7988,0.7988,0.7988,0.7988,0.7988,0.7988,0.7988,0.7988,0.7988,0.7988,0.7988,0.7988,0.7988,0.7988,0.7988,0.7988,0.7988,0.7988,0.7988,0.7988,0.7988,0.7988,0.7988,0.7988,0.7988,0.7988,0.7988,0.7988,0.7988,0.7988,0.7988,0.7988,0.7988,0.7988,0.7847,0.76,0.7509,0.7353,0.7095,0.7095,0.7095,0.5508,0.5712,0.0,0.0,0.0,0.0,0.613,0.6179,0.0,0.0,0.0,0.0,0.0,0.0,0.0,0.0,0.0,0.0,0.0,0.0,0.0,0.0,0.0,0.0,0.0,0.0,0.5623,0.5769,0.5793,0.5861,0.5959,0.5969,0.6074,0.6269,0.6276,0.6282,0.63,0.63,0.63,0.63,0.63,0.63,0.63,0.63,0.63,0.6313,0.6539,0.6671,0.6722,0.694,0.7065,0.7095,0.7095,0.7095,0.7095,0.7095,0.7095,0.7095,0.7095,0.7095,0.7095,0.7095,0.7095,0.7149,0.7485,0.7587,0.7662,0.7907,0.7988,0.7988,0.7988,0.7988,0.7988,0.7988,0.7988,0.7988,0.7988,0.7988,0.7988,0.7988,0.7988,0.7988,0.7988,0.7988,0.7988,0.7988,0.7988,0.7988,0.7988,0.7988,0.7988,0.7988,0.7988,0.7988,0.7988,0.7988,0.7988,0.7988,0.7988,0.7988,0.7988,0.7988,0.7988,0.7988,0.7971,0.783,0.76,0.7584,0.7424,0.7095,0.7095,0.7095,0.601,0.61,0.6097,0.0,0.0,0.0,0.0,0.6722,0.0,0.0,0.0,0.0,0.0,0.0,0.0,0.0,0.0,0.0,0.0,0.0,0.0,0.0,0.0,0.0,0.0,0.0,0.5501,0.562,0.5735,0.5813,0.5844,0.5844,0.5915,0.6071,0.6074,0.6135,0.6296,0.63,0.63,0.63,0.63,0.63,0.63,0.63,0.63,0.6303,0.6361,0.6521,0.6705,0.6763,0.6926,0.7095,0.7095,0.7095,0.7095,0.7095,0.7095,0.7095,0.7095,0.7095,0.7095,0.7095,0.7095,0.7129,0.736,0.7502,0.7662,0.7907,0.7988,0.7988,0.7988,0.7988,0.7988,0.7988,0.7988,0.7988,0.7988,0.7988,0.7988,0.7988,0.7988,0.7988,0.7988,0.7988,0.7988,0.7988,0.7988,0.7988,0.7988,0.7988,0.7988,0.7988,0.7988,0.7988,0.7988,0.7988,0.7988,0.7988,0.7988,0.7988,0.7988,0.7988,0.7988,0.7988,0.7919,0.777,0.76,0.7478,0.7322,0.7095,0.7095,0.7095,0.7314,0.7386,0.7416,0.7134,0.0,0.0,0.0,0.0,0.0,0.0,0.0,0.0,0.0,0.0,0.0,0.0,0.0,0.0,0.0,0.0,0.0,0.0,0.0,0.0,0.0,0.0,0.6375,0.6157,0.6211,0.6091,0.5726,0.5694,0.5766,0.5911,0.5952,0.603,0.6146,0.6259,0.63,0.63,0.63,0.63,0.63,0.63,0.63,0.6303,0.6375,0.6491,0.66,0.6753,0.6859,0.6997,0.7068,0.7095,0.7095,0.7095,0.7095,0.7095,0.7095,0.7095,0.7095,0.7095,0.7095,0.7125,0.7326,0.7529,0.775,0.7928,0.7988,0.7988,0.7988,0.7988,0.7988,0.7988,0.7988,0.7988,0.7988,0.7988,0.7988,0.7988,0.7988,0.7988,0.7988,0.7988,0.7988,0.7988,0.7988,0.7988,0.7988,0.7988,0.7988,0.7988,0.7988,0.7988,0.7988,0.7988,0.7988,0.7988,0.7988,0.7988,0.7988,0.7988,0.7988,0.7988,0.7914,0.7818,0.76,0.7522,0.7366,0.7095,0.7095,0.7095,0.0,0.0,0.0,0.0,0.0,0.8523,0.0,0.0,0.0,0.0,0.0,0.0,0.0,0.0,0.0,0.0,0.0,0.0,0.0,0.0,0.0,0.0,0.0,0.0,0.0,0.0,0.7204,0.6873,0.6662,0.6322,0.5839,0.5648,0.561,0.5755,0.5908,0.5963,0.5993,0.6183,0.63,0.63,0.63,0.63,0.63,0.63,0.63,0.6306,0.6422,0.6487,0.6535,0.677,0.6859,0.69,0.7041,0.7095,0.7095,0.7095,0.7095,0.7095,0.7095,0.7095,0.7095,0.7095,0.7095,0.7129,0.736,0.7584,0.7807,0.7938,0.7988,0.7988,0.7988,0.7988,0.7988,0.7988,0.7988,0.7988,0.7988,0.7988,0.7988,0.7988,0.7988,0.7988,0.7988,0.7988,0.7988,0.7988,0.7988,0.7988,0.7988,0.7988,0.7988,0.7988,0.7988,0.7988,0.7988,0.7988,0.7988,0.7988,0.7988,0.7988,0.7988,0.7988,0.7988,0.7988,0.7988,0.786,0.7641,0.7614,0.7441,0.7095,0.7095,0.7095,0.0,0.0,0.0,0.0,0.8758,0.0,0.0,0.0,0.0,0.0,0.0,0.0,0.0,0.0,0.0,0.0,0.0,0.0,0.0,0.0,0.0,0.0,0.0,0.0,0.0,0.0,0.0,0.7384,0.6472,0.6102,0.6539,0.5844,0.5491,0.561,0.5752,0.5891,0.599,0.6183,0.63,0.63,0.63,0.63,0.63,0.63,0.63,0.6303,0.6317,0.6395,0.6525,0.6658,0.6807,0.69,0.7041,0.7095,0.7095,0.7095,0.7095,0.7095,0.7095,0.7095,0.7095,0.7095,0.7095,0.7149,0.7485,0.7597,0.7682,0.7911,0.7988,0.7988,0.7988,0.7988,0.7988,0.7988,0.7988,0.7988,0.7988,0.7988,0.7988,0.7988,0.7988,0.7988,0.7988,0.7988,0.7988,0.7988,0.7988,0.7988,0.7988,0.7988,0.7988,0.7988,0.7988,0.7988,0.7988,0.7988,0.7988,0.7988,0.7988,0.7988,0.7988,0.7988,0.7988,0.7988,0.7988,0.7907,0.7787,0.7662,0.7441,0.7095,0.7095,0.7095,0.0,0.0,0.0,0.0,0.0,0.0,0.0,0.0,0.8415,0.0,0.0,0.0,0.0,0.0,0.0,0.0,0.0,0.0,0.0,0.0,0.0,0.0,0.0,0.0,0.0,0.0,0.0,0.0,0.0,0.643,0.6408,0.5671,0.5298,0.5487,0.5599,0.5749,0.5895,0.6051,0.6173,0.63,0.63,0.63,0.63,0.63,0.63,0.63,0.63,0.6334,0.6409,0.6603,0.6739,0.682,0.7007,0.7095,0.7095,0.7095,0.7095,0.7095,0.7095,0.7095,0.7095,0.7095,0.7095,0.7152,0.7506,0.76,0.7662,0.7907,0.7988,0.7988,0.7988,0.7988,0.7988,0.7988,0.7988,0.7988,0.7988,0.7988,0.7988,0.7988,0.7988,0.7988,0.7988,0.7988,0.7988,0.7988,0.7988,0.7988,0.7988,0.7988,0.7988,0.7988,0.7988,0.7988,0.7988,0.7988,0.7988,0.7988,0.7988,0.7988,0.7988,0.7988,0.7988,0.7988,0.7988,0.7914,0.7811,0.775,0.7567,0.7272,0.7139,0.7095,0.8951,0.0,0.0,0.0,0.0,0.0,0.0,0.0,0.0,0.0,0.0,0.0,0.0,0.0,0.0,0.0,0.0,0.0,0.0,0.0,0.0,0.0,0.0,0.0,0.0,0.0,0.0,0.0,0.0,0.0,0.652,0.5605,0.5182,0.5327,0.5488,0.5657,0.58,0.5915,0.6108,0.63,0.63,0.63,0.63,0.63,0.63,0.63,0.63,0.63,0.6323,0.658,0.6702,0.6729,0.6984,0.7095,0.7095,0.7095,0.7095,0.7095,0.7095,0.7095,0.7095,0.7095,0.7125,0.7255,0.7519,0.7628,0.7709,0.7917,0.7988,0.7988,0.7988,0.7988,0.7988,0.7988,0.7988,0.7988,0.7988,0.7988,0.7988,0.7988,0.7988,0.7988,0.7988,0.7988,0.7988,0.7988,0.7988,0.7988,0.7988,0.7988,0.7988,0.7988,0.7988,0.7988,0.7988,0.7988,0.7988,0.7988,0.7988,0.7988,0.7988,0.7988,0.7988,0.7988,0.7988,0.7934,0.7875,0.7831,0.7682,0.7431,0.7275,0.7136,0.0,0.0,0.0,0.8951,0.0,0.0,0.0,0.0,0.9111,0.0,0.0,0.0,0.0,0.0,0.0,0.0,0.0,0.0,0.0,0.0,0.0,0.0,0.0,0.0,0.0,0.0,0.0,0.0,0.0,0.0,0.7235,0.5883,0.51,0.5106,0.5433,0.5657,0.58,0.5915,0.6108,0.63,0.63,0.63,0.63,0.63,0.63,0.63,0.63,0.63,0.6323,0.658,0.6702,0.6729,0.6984,0.7095,0.7095,0.7095,0.7095,0.7095,0.7095,0.7095,0.7095,0.7095,0.7241,0.7439,0.7553,0.7695,0.7838,0.7944,0.7988,0.7988,0.7988,0.7988,0.7988,0.7988,0.7988,0.7988,0.7988,0.7988,0.7988,0.7988,0.7988,0.7988,0.7988,0.7988,0.7988,0.7988,0.7988,0.7988,0.7988,0.7988,0.7988,0.7988,0.7988,0.7988,0.7988,0.7988,0.7988,0.7988,0.7988,0.7988,0.7988,0.7988,0.7988,0.7988,0.7988,0.7988,0.7982,0.7882,0.7736,0.759,0.7434,0.7285,0.0,0.0,0.9826,0.9211,0.0,0.0,0.0,0.0,0.0,0.0,0.0,0.0,0.0,0.0,0.0,0.0,0.0,0.0,0.0,0.0,0.0,0.0,0.0,0.0,0.0,0.0,0.0,0.0,0.0,0.0,0.0,0.6983,0.6586,0.6688,0.6461,0.6431,0.6651,0.614,0.6006,0.63,0.63,0.63,0.63,0.63,0.63,0.63,0.63,0.6354,0.6457,0.6617,0.6759,0.6871,0.7021,0.7095,0.7095,0.7095,0.7095,0.7095,0.7095,0.7095,0.7112,0.7258,0.7329,0.7463,0.7665,0.7773,0.7841,0.7944,0.7988,0.7988,0.7988,0.7988,0.7988,0.7988,0.7988,0.7988,0.7988,0.7988,0.7988,0.7988,0.7988,0.7988,0.7988,0.7988,0.7988,0.7988,0.7988,0.7988,0.7988,0.7988,0.7988,0.7988,0.7988,0.7988,0.7988,0.7988,0.7988,0.7988,0.7988,0.7988,0.7988,0.7988,0.7988,0.7988,0.7988,0.7988,0.7988,0.7938,0.7885,0.7736,0.759,0.7383,0.9866,1.0053,0.0,0.9517,0.9619,0.0,0.9064,0.0,0.0,0.0,0.0,0.0,0.0,0.0,0.0,0.0,0.0,0.0,0.0,0.0,0.0,0.0,0.0,0.0,0.0,0.0,0.807,0.8523,0.7573,0.0,0.0,0.0,0.7325,0.741,0.6967,0.6836,0.7109,0.6226,0.5956,0.63,0.63,0.63,0.63,0.63,0.63,0.63,0.63,0.6381,0.6525,0.6637,0.679,0.69,0.7041,0.7095,0.7095,0.7095,0.7095,0.7095,0.7095,0.7095,0.7122,0.7322,0.7453,0.7499,0.774,0.7848,0.7913,0.7961,0.7988,0.7988,0.7988,0.7988,0.7988,0.7988,0.7988,0.7988,0.7988,0.7988,0.7988,0.7988,0.7988,0.7988,0.7988,0.7988,0.7988,0.7988,0.7988,0.7988,0.7988,0.7988,0.7988,0.7988,0.7988,0.7988,0.7988,0.7988,0.7988,0.7988,0.7988,0.7988,0.7988,0.7988,0.7988,0.7988,0.7988,0.7988,0.7988,0.7988,0.7911,0.7807,0.7665,0.7465]}]]